GFSGL_con_sbcape_000.txt.gz
CAPE
864 354 164 3 0 0 0 0 0 0 0 0 0 0 0 0 0 0 0 0 0 0 13 22 34 27 11 0 0 0 0 1 0 0 0 0 0 0 0 0 0 0 0
838 179 29 0 0 0 0 0 0 0 0 0 0 0 0 0 0 0 0 0 0 11 46 35 66 50 23 7 0 0 0 0 1 1 0 0 0 0 0 0 0 0 0
826 46 6 0 1 1 0 0 0 0 0 0 0 0 0 0 0 0 0 0 0 3 31 44 53 27 0 0 0 0 0 5 3 3 0 0 0 0 0 0 0 0 0
462 41 18 6 11 23 0 0 0 0 0 0 0 0 0 0 0 0 0 0 0 11 41 48 24 19 16 7 0 0 22 23 35 7 1 1 3 0 0 0 0 0 0
413 143 111 68 46 3 9 0 0 0 0 0 0 0 0 0 0 0 0 0 22 68 80 51 20 18 38 39 32 40 0 16 49 22 1 7 1 0 0 0 1 0 0
559 374 305 127 39 0 22 141 0 0 0 0 0 0 0 0 0 0 18 25 89 88 78 23 0 0 7 10 31 68 100 122 150 79 24 1 24 23 1 0 2 2 23
708 678 350 8 10 0 0 2 3 7 0 0 0 0 2 21 0 4 4 82 34 7 4 0 0 0 16 3 0 8 54 87 154 368 16 18 43 1 6 10 9 5 28
814 747 141 20 0 0 0 0 0 0 0 0 0 11 13 26 10 4 6 16 11 0 0 0 0 0 0 0 0 13 3 0 0 0 0 0 3 8 17 35 7 29 15
828 513 237 87 85 99 2 0 0 0 0 12 47 77 64 93 68 28 1 7 8 0 0 0 0 0 0 0 0 0 0 0 0 0 0 0 0 0 1 11 4 25 24
608 495 356 104 0 0 18 11 0 0 4 27 43 15 17 25 22 0 0 8 5 0 0 0 0 0 0 0 0 0 0 0 0 0 0 0 3 2 1 10 46 25 21
365 383 535 326 163 29 0 0 0 17 28 55 33 0 18 66 63 0 0 0 0 0 0 0 0 0 0 0 0 0 0 0 0 2 2 0 2 2 2 3 5 8 7
270 206 96 80 122 0 0 0 0 0 0 0 13 0 0 0 0 0 0 0 0 0 0 0 0 0 0 0 0 0 0 0 1 2 0 0 6 5 4 3 4 6 4
1 0 6 0 0 0 0 0 0 0 0 29 59 81 114 1 0 0 0 0 0 0 0 0 0 0 0 0 0 0 0 0 0 0 0 0 2 3 9 5 2 3 0
0 0 0 0 0 0 0 0 0 0 0 10 54 63 2 0 0 0 0 0 0 0 0 0 0 0 0 0 0 0 0 0 0 0 0 0 1 2 1 2 8 3 2
0 0 0 0 0 0 7 0 0 0 3 26 22 0 0 0 0 0 0 0 0 0 0 0 0 0 0 0 0 0 0 0 0 0 0 0 0 0 0 1 4 2 2
1 1 0 0 0 0 2 2 0 0 0 0 0 0 0 0 0 0 0 0 0 0 0 0 0 0 0 0 0 0 0 0 0 0 0 0 0 0 0 0 0 2 2
3 0 0 0 0 0 2 1 0 0 0 0 0 0 0 0 0 0 0 0 0 0 0 0 0 0 0 0 0 0 0 0 0 0 0 0 0 0 0 0 0 0 2
0 0 0 0 0 1 0 1 0 0 0 0 0 0 0 0 0 0 0 0 0 0 0 0 0 0 0 0 0 0 0 0 0 0 0 0 0 0 0 0 0 0 2
0 0 0 0 1 0 1 1 0 0 0 0 0 0 0 0 0 0 0 0 0 0 0 0 0 0 0 0 0 0 0 0 0 0 0 0 0 0 0 0 0 0 0
0 0 0 0 0 0 1 0 0 0 0 0 0 0 0 0 0 0 0 0 0 0 0 0 0 0 0 0 0 0 0 0 0 0 0 0 0 0 0 0 0 0 0
0 0 0 0 0 0 0 0 0 0 0 0 0 0 0 0 0 0 0 0 0 0 0 0 0 0 0 0 0 0 0 0 0 0 0 0 0 0 0 0 0 0 0
0 0 0 0 0 0 0 1 1 0 0 0 0 0 0 0 0 0 0 0 0 0 0 0 0 0 0 0 0 0 0 0 0 0 0 0 0 0 0 0 0 0 0
0 0 0 0 0 0 0 0 0 0 0 0 0 0 0 0 0 0 0 0 0 0 0 0 0 0 0 0 0 0 0 0 0 0 0 0 0 0 0 0 0 0 0
0 0 0 0 0 0 0 0 0 0 0 0 0 0 0 0 0 0 0 0 0 0 0 0 0 0 0 0 0 0 0 0 0 0 0 0 0 0 0 0 0 0 0
0 0 0 0 0 0 0 0 0 0 0 0 0 0 0 0 0 0 0 0 0 0 0 0 0 0 0 0 0 0 0 0 0 0 0 0 0 0 0 0 0 0 0
0 0 0 0 0 0 0 0 0 0 0 0 0 0 0 0 0 0 0 0 0 0 0 0 0 0 0 0 0 0 0 0 0 0 0 0 0 0 0 0 0 0 0

GFSGL_con_sbcape_003.txt.gz
CAPE
2124 2679 2869 2800 2720 2769 1908 1588 334 385 438 338 337 189 169 147 139 204 251 37 5 100 372 449 509 595 279 283 334 286 143 113 106 1 14 31 27 80 84 82 25 0 0
2500 2656 2452 2523 1514 1477 1801 164 304 225 297 354 347 302 295 256 281 286 197 0 80 142 178 402 397 281 554 426 270 286 162 209 125 108 75 42 111 135 170 220 125 0 0
2301 2124 2216 1957 1542 1933 75 141 60 166 84 176 288 393 350 330 449 521 354 112 242 299 302 391 424 526 515 231 263 140 94 289 169 137 85 56 74 147 188 275 240 121 19
1949 2096 2309 1612 1338 401 209 21 0 25 82 85 258 562 384 444 414 294 120 240 378 329 434 488 576 562 422 299 202 229 257 234 161 151 112 76 110 336 229 235 120 45 20
2320 2133 1877 1403 950 345 85 9 0 0 11 0 34 338 368 294 187 233 308 444 691 687 652 858 708 612 179 116 71 196 220 187 115 93 109 88 121 136 241 161 146 80 120
2133 1970 1600 1190 551 313 270 13 0 0 0 101 77 186 325 182 56 13 161 581 811 961 936 728 771 128 84 23 16 44 91 195 258 214 99 228 529 353 276 278 142 41 14
1883 1732 1366 884 486 601 358 214 25 0 0 12 198 160 546 474 148 19 8 465 756 880 942 799 617 181 58 119 17 0 17 16 78 308 335 380 379 399 358 151 23 26 18
1815 1632 1266 818 672 470 600 354 167 0 20 329 381 535 491 626 183 6 0 402 496 734 609 534 417 323 180 45 57 38 79 132 181 106 135 173 144 56 14 24 30 39 27
1792 1719 1118 708 738 627 550 512 260 163 204 294 144 370 457 526 14 23 67 238 282 213 542 383 121 102 4 0 0 4 32 58 7 0 0 0 0 0 0 11 10 24 26
1748 1681 1149 735 628 550 671 631 355 291 111 79 229 456 230 513 23 69 106 59 160 115 339 69 0 0 0 0 0 0 29 52 4 0 0 0 0 1 0 12 3 11 18
1688 1316 1059 895 844 837 854 518 301 300 211 478 552 693 419 499 311 1 0 110 196 215 223 119 0 0 0 0 0 1 1 0 0 0 0 1 2 2 5 6 7 24 95
1421 1044 1065 842 814 660 623 381 362 450 597 541 600 613 174 320 0 0 0 7 41 243 338 50 0 0 0 0 0 0 0 0 0 0 1 1 0 0 0 0 0 2 12
1044 818 984 848 591 484 383 387 324 395 386 431 313 255 212 208 60 1 1 1 0 18 0 0 0 0 0 0 0 0 0 0 0 0 0 0 0 0 0 0 0 1 4
788 835 963 1077 798 470 404 306 181 183 74 38 122 246 486 183 35 0 0 0 0 0 0 0 0 0 0 0 0 0 0 0 0 0 0 0 0 0 0 0 0 0 10
1023 1059 967 962 551 520 210 44 39 70 2 180 189 406 607 363 85 0 0 0 0 0 0 0 0 0 0 2 0 0 0 0 0 0 0 0 0 0 0 0 0 2 16
1052 918 720 397 158 43 0 0 0 0 0 0 0 105 0 0 0 0 0 0 0 0 0 0 0 0 2 1 0 0 0 0 0 0 0 0 0 0 0 0 0 4 12
615 538 309 162 344 241 10 0 0 0 0 0 0 0 0 0 0 0 0 0 0 0 0 0 0 0 0 0 0 0 0 0 0 0 0 0 0 0 0 0 0 0 0
233 0 43 38 64 36 1 40 32 37 32 0 0 0 0 0 0 0 0 0 0 0 0 0 0 0 0 0 0 0 0 0 0 0 0 0 0 0 0 0 0 0 0
47 23 69 111 125 62 106 79 31 88 47 0 0 0 0 0 0 0 0 0 0 0 0 0 0 0 0 0 0 0 0 0 0 0 0 0 0 0 0 0 0 0 0
376 56 143 137 6 23 35 54 85 56 0 0 0 0 0 0 0 0 0 0 0 0 0 0 0 0 0 0 0 0 0 0 0 0 0 0 0 0 0 0 0 0 0
430 129 73 223 222 200 177 179 181 47 9 0 5 0 0 0 0 0 0 0 0 0 0 0 0 0 0 0 0 0 0 0 0 0 0 0 0 0 0 0 0 0 0
138 206 344 376 294 254 242 165 160 147 117 63 31 0 0 0 0 0 0 0 0 0 0 0 0 0 0 0 0 0 0 0 0 0 0 0 0 0 0 0 0 0 0
126 135 154 157 197 17 158 316 367 328 184 74 57 6 0 0 0 0 0 0 0 0 0 0 0 0 0 0 0 0 0 0 0 0 0 0 0 0 0 0 0 0 0
46 42 48 53 72 100 159 147 111 16 81 60 36 9 0 0 0 0 0 0 0 0 0 0 0 0 0 0 0 0 0 0 0 0 0 0 0 0 0 0 0 0 0
6 4 3 13 15 24 9 17 22 5 8 16 12 2 1 0 0 0 0 0 0 0 0 0 0 0 0 0 0 0 0 0 0 0 0 0 0 0 0 0 0 0 0
0 0 0 0 0 0 0 0 0 0 0 0 0 0 0 20 17 0 0 0 0 0 0 0 0 0 0 0 0 0 0 0 0 0 0 0 0 0 0 0 0 0 0

GFSGL_con_sbcape_006.txt.gz
CAPE
2706 3320 3116 2923 3007 3396 3342 3438 3033 2585 1627 1121 881 401 302 225 148 188 129 0 1 2 0 62 211 420 193 74 72 53 64 80 82 7 12 24 50 120 100 144 127 86 69
3125 3354 2907 2894 2988 3197 3882 3274 2691 2794 1400 1129 751 443 672 218 209 303 189 7 11 0 32 165 324 245 358 429 188 204 167 179 127 204 183 55 349 68 79 225 207 87 97
2602 2756 2825 2825 2997 3226 3346 2877 2917 1749 904 468 433 674 713 561 292 345 386 321 116 32 108 245 311 332 401 207 235 102 113 109 141 122 133 131 71 46 181 478 463 445 114
2331 2709 3233 2999 2822 2979 2890 1707 1067 815 401 117 286 332 173 447 640 622 349 427 205 70 220 324 492 506 406 384 294 317 323 212 285 117 166 99 140 205 186 97 95 106 68
2567 2653 3001 3146 3073 2775 2415 1479 665 446 382 0 93 16 135 490 198 570 374 231 248 302 371 478 622 739 347 320 173 475 331 197 144 133 114 97 50 105 298 107 96 159 363
2798 2872 2983 3274 3069 2810 2241 1201 801 517 186 51 0 0 6 147 0 0 122 309 385 551 710 892 1004 873 538 188 55 12 51 119 126 86 74 114 287 272 301 183 213 153 194
2921 2963 3095 3183 2849 2361 1728 1361 787 528 156 98 104 30 79 399 28 0 13 172 389 667 978 987 794 417 341 570 149 8 15 0 0 122 258 229 430 435 370 483 348 236 133
2899 2915 2959 2817 2548 2163 1985 1343 961 339 262 399 479 304 269 409 267 0 0 420 835 1084 966 770 631 501 537 500 465 256 173 186 212 169 188 135 152 141 60 29 25 54 98
2655 2714 2644 2413 2201 1694 1541 1475 1393 775 562 724 749 643 608 716 0 0 0 585 852 992 703 545 430 662 80 0 64 112 157 145 20 0 0 0 0 0 0 5 5 32 50
2615 2652 2549 2247 2207 1897 1691 1709 1467 1184 866 646 755 734 596 1297 0 0 0 670 1016 573 276 437 0 40 0 0 0 52 63 89 74 1 22 16 1 9 1 25 13 35 64
2554 2650 2370 2147 2211 2352 1967 1726 1517 1079 987 1020 838 863 1043 469 768 0 0 591 299 376 393 975 385 0 0 0 0 0 22 0 0 0 4 0 0 12 38 154 138 69 36
2714 2558 2084 2028 1777 1869 1799 1326 884 1107 1202 990 1464 1482 1214 1365 201 0 0 8 66 497 1177 386 7 0 0 0 0 0 0 0 0 5 2 0 2 14 17 10 6 3 0
2128 1731 1874 1913 1423 1222 1148 822 793 1009 1041 1078 1299 1180 1804 1067 7 0 1 1 0 482 393 23 0 0 0 0 0 0 0 0 10 1 0 0 1 3 1 17 30 56 88
2121 2087 1644 1363 1497 1154 1048 1131 1199 1114 1033 1687 1391 785 539 776 292 79 0 2 0 9 0 0 0 0 0 0 0 0 1 4 0 0 0 1 1 2 3 0 0 0 7
1726 1733 1269 1093 1065 1314 592 180 789 112 208 547 457 273 214 1157 533 200 85 170 149 10 0 0 0 5 5 13 17 9 4 0 0 0 0 1 0 0 0 0 0 0 30
1378 1306 1333 1402 1430 1281 731 108 0 0 1 1 1 89 22 6 0 0 0 0 0 0 0 0 1 3 3 7 8 3 0 0 0 0 0 0 0 0 0 0 0 0 28
1448 1375 1172 759 823 894 823 474 151 0 0 0 0 0 0 0 0 0 0 0 0 0 0 0 0 0 0 0 0 0 0 0 0 0 0 0 0 0 0 0 0 0 10
1150 404 759 747 752 578 547 564 539 399 154 0 0 0 0 0 0 0 0 0 0 0 0 0 0 0 0 0 0 0 0 0 0 0 0 0 0 0 0 0 0 0 10
260 312 464 311 181 83 196 236 358 360 245 144 0 0 0 0 0 0 0 0 0 0 0 0 0 0 0 0 0 0 0 0 0 0 0 0 0 0 0 0 0 0 0
139 0 36 181 357 431 564 490 455 393 377 320 100 37 0 0 0 0 0 0 0 0 0 0 0 0 0 0 0 0 0 0 0 0 0 0 0 0 0 0 0 0 7
232 312 109 465 445 404 302 230 236 291 328 246 245 97 0 6 16 12 4 0 0 0 0 0 0 0 0 0 0 0 0 0 0 0 0 0 0 0 0 0 0 0 0
343 219 147 99 169 186 199 253 308 292 237 239 195 0 0 1 12 31 12 1 0 0 0 0 0 0 0 0 0 0 0 0 0 0 0 0 0 0 0 0 0 0 0
145 110 234 311 308 43 267 334 365 353 362 237 299 194 0 7 21 36 18 1 0 0 0 0 0 0 0 0 0 0 0 0 0 0 0 0 0 0 0 0 0 0 0
177 200 176 149 109 114 131 254 330 91 278 325 235 154 34 20 39 18 0 0 1 1 0 0 0 0 0 0 0 0 0 0 0 0 0 0 0 0 0 0 0 0 0
99 98 95 91 74 79 163 125 101 73 61 76 49 29 28 39 34 1 1 4 9 5 0 0 0 0 0 0 0 0 0 0 0 0 0 0 0 0 0 0 0 0 0
1 0 0 0 0 1 1 6 9 11 11 17 26 33 33 41 50 47 30 32 30 16 4 0 0 0 0 0 0 0 0 0 0 0 0 0 0 0 0 0 0 0 0

GFSGL_con_sbcape_009.txt.gz
CAPE
3938 3937 4138 3896 4054 4551 4433 4247 4223 3343 3271 2343 2432 1923 1007 813 759 941 500 174 413 621 521 173 380 688 103 19 26 41 17 57 20 16 21 134 1119 741 469 442 169 430 117
3573 4228 4282 4308 4219 4103 4569 4569 4281 3780 3527 2689 2351 1862 1081 588 202 871 548 365 128 175 209 644 337 199 1205 1485 168 1236 582 316 90 524 250 23 483 721 1063 1097 304 54 110
3082 3239 3972 3920 4309 4229 4576 4450 4455 4345 3692 2478 2362 2035 1102 1005 1051 1098 1050 579 324 392 338 753 572 1129 1280 602 1007 474 278 408 290 45 68 86 79 25 180 765 650 278 231
2113 2428 3565 4082 4124 4084 4527 4473 4552 4152 3932 2687 2284 1722 1313 1026 1019 939 978 936 1151 962 861 824 913 1013 1145 1285 1029 1444 1008 565 343 182 102 97 160 190 395 122 124 45 67
2876 2907 3585 4381 4294 4316 4285 4631 4406 4157 3669 2501 2123 1427 1209 599 389 1089 668 490 933 842 649 566 891 1009 669 733 838 808 1253 465 252 178 161 144 166 165 191 207 244 213 91
3675 3580 4106 4720 4588 4581 4622 4695 4222 3631 3065 2265 1224 721 400 143 0 32 486 192 1133 1130 920 1275 1351 708 449 207 227 178 89 478 584 159 177 160 384 355 142 127 315 161 13
4179 4500 4617 4993 4914 4916 4580 4139 3554 2716 2492 1810 955 150 151 433 0 10 0 273 738 1117 1487 1178 1086 793 344 437 442 110 44 0 24 352 561 555 511 533 507 550 403 208 69
4621 4545 4804 4955 4924 4791 4212 3573 2786 2433 2257 1519 751 516 523 727 21 1 0 294 791 907 1405 1710 1808 1554 1036 1019 814 418 556 949 651 264 446 654 579 275 101 55 160 143 70
3845 4229 4402 4258 4152 3910 3305 3020 2480 2170 1978 1047 604 524 944 1111 32 0 1 642 831 1511 1645 1642 1311 1373 682 172 274 192 214 361 215 8 1 0 0 0 0 0 4 12 18
3607 3637 4029 4083 3732 3242 3071 2962 2519 2472 1851 1196 818 1076 1133 1316 75 1 28 437 778 1261 1428 1770 259 248 0 0 83 103 229 339 218 199 168 1 19 22 0 18 53 71 53
2939 3027 3381 3270 3388 3170 2751 2881 2527 2297 1782 1411 1053 1435 1622 1508 1027 0 0 565 877 959 1224 989 768 0 0 0 0 34 93 20 103 0 0 3 149 160 19 131 519 125 49
3647 3344 3322 3088 2798 2659 2586 2516 2258 1997 1630 1561 1840 1832 1423 1681 545 0 0 0 0 691 1132 984 795 0 0 0 0 0 0 0 0 0 11 43 27 1 4 22 317 274 27
3706 3494 3119 2731 2481 2416 2664 2134 1464 1389 1184 1427 1098 1689 1736 1875 921 1 1 0 0 61 247 0 0 0 0 0 0 0 0 0 0 23 40 2 0 0 158 87 296 480 459
2908 2548 2397 2258 1926 1676 1594 1271 1052 963 1206 1523 1493 1509 1497 1234 997 212 0 0 1 0 1 1 0 0 0 0 0 0 0 2 19 0 0 0 0 0 2 0 0 0 0
2934 2574 2191 1790 1608 1134 661 676 883 194 567 986 1202 1304 784 347 479 72 5 18 231 61 103 88 37 47 48 65 55 67 40 36 13 2 0 0 0 0 0 0 0 0 0
2324 2078 1756 1523 1276 1066 426 2 0 0 2 1 0 53 44 0 0 0 0 0 0 0 11 28 38 19 45 42 106 149 50 8 6 3 0 0 0 0 0 0 0 0 0
1893 1851 1399 1263 1411 1560 1057 975 563 0 0 0 0 0 0 0 0 0 0 0 0 0 0 0 6 10 24 20 17 10 2 1 0 0 0 0 0 0 0 0 0 0 1
1739 764 1258 1018 865 909 893 695 449 245 57 2 0 0 0 0 0 0 0 0 0 0 0 0 4 10 6 1 0 0 0 0 0 0 0 0 0 0 0 0 0 0 0
1505 950 992 893 779 429 392 381 418 406 333 12 0 0 0 0 0 0 0 0 0 6 8 1 1 0 0 0 0 0 0 0 0 0 0 0 0 0 0 0 0 0 0
431 136 477 528 283 189 230 195 247 284 216 55 16 0 0 0 0 0 0 0 0 0 2 0 0 0 0 0 0 0 0 0 0 0 0 0 0 0 0 0 0 0 0
151 152 7 319 281 268 335 304 244 223 203 206 195 27 0 0 23 81 33 17 1 3 7 0 0 0 0 0 0 0 0 0 0 0 0 0 0 0 0 0 0 0 0
248 299 142 296 192 229 192 158 152 147 150 233 63 6 0 52 54 65 56 147 16 18 16 3 0 0 0 0 0 0 0 0 0 0 0 0 0 0 0 0 0 0 0
122 97 88 89 212 100 151 262 199 325 228 273 14 10 19 164 75 43 163 32 63 20 19 1 0 0 0 0 0 0 0 0 0 0 0 0 0 0 0 0 0 0 0
302 118 185 247 416 209 178 277 148 74 182 223 158 140 152 31 30 180 62 44 37 13 2 6 1 0 0 0 0 0 0 0 0 0 0 0 0 0 0 0 0 0 0
114 100 136 126 118 123 113 90 98 134 80 66 121 111 74 92 17 25 29 0 1 4 8 11 4 0 0 0 0 0 0 0 0 0 0 0 0 0 0 0 0 0 0
66 45 41 42 27 17 20 29 40 60 66 59 88 170 50 30 26 29 32 31 14 16 19 24 7 0 0 0 0 0 0 0 0 0 0 0 0 0 0 0 0 0 0

GFSGL_con_sbcape_012.txt.gz
CAPE
4117 4060 4067 4025 3984 3467 3889 3287 3529 2771 2495 2463 2168 1822 1597 1127 1119 914 601 388 569 541 477 604 507 820 487 336 669 420 178 160 166 31 78 88 105 136 151 159 382 177 84
3899 3952 3977 4049 4016 3976 3434 3886 3328 3862 3017 2365 2265 2000 1646 752 1123 609 371 213 728 655 627 628 477 370 1010 934 915 629 677 827 319 237 239 160 429 603 692 152 355 58 58
3637 3665 3773 3813 3970 3893 4037 3448 4161 3578 3099 2320 2370 2038 1742 772 983 651 478 570 603 241 444 564 404 742 1215 979 924 770 560 574 620 190 109 123 112 36 36 48 29 214 354
3254 3363 3516 3651 3748 3658 3868 4068 3745 3846 3278 3063 2362 2099 1875 928 757 552 737 820 723 437 831 736 676 651 1145 1156 927 1179 1055 942 397 48 113 177 326 179 271 95 33 143 69
2768 3137 3447 3815 3728 3800 3767 4122 4015 3951 3870 3494 2930 2296 2041 1031 710 890 897 846 897 649 1245 806 839 1181 886 1058 1214 1011 1149 730 201 25 7 32 53 39 80 51 43 50 39
2238 2663 3077 3585 3951 3777 3976 3921 4231 4165 4220 3741 3141 2232 1909 1016 262 393 732 832 995 686 1001 1194 932 716 453 396 51 127 624 596 134 74 41 20 82 152 171 89 40 8 0
2565 2726 2918 3542 3947 4053 3976 4032 4279 4297 4194 3698 3328 2199 1530 1037 0 0 218 695 410 644 1384 1191 1067 544 964 1197 185 127 135 77 65 44 37 71 155 241 151 76 61 50 0
3667 3264 3485 4112 4296 4220 4221 4249 4432 4360 3985 3478 2685 1460 903 542 125 23 2 82 201 702 980 1305 1078 837 1165 1157 1065 1007 475 265 212 73 30 73 216 273 184 47 1 0 0
3365 4630 4128 5033 4793 4762 4742 4681 4495 3799 2932 2400 1604 674 495 730 36 6 0 55 90 597 932 844 1033 1278 1147 504 648 722 311 604 487 146 99 156 43 0 0 3 0 0 0
4295 4442 5008 5021 4950 4888 4790 4364 3053 2416 2225 1913 994 723 587 818 765 61 0 315 304 766 1099 981 482 792 490 193 355 367 370 390 577 537 240 27 9 2 0 1 7 12 15
4533 4546 4828 4917 4957 4833 4538 3296 2407 2477 2622 1701 1111 894 923 725 1265 0 0 658 901 1025 925 888 1029 520 67 0 0 298 176 0 10 98 67 0 0 50 72 236 151 116 122
4489 4465 4626 4686 3833 3788 3384 2730 2749 2373 1922 1632 1289 1148 1285 1610 39 0 0 12 62 696 1171 906 624 1 0 0 0 0 0 0 0 0 0 0 23 15 9 5 26 28 12
4029 4257 4217 3890 3473 3131 2771 2701 2440 2266 1811 1498 1664 1611 1929 1880 1104 6 0 0 0 0 505 1 0 0 0 0 0 0 0 0 0 0 0 8 0 0 1 0 66 277 370
4104 3715 3270 2641 2544 2577 2330 2206 1847 1687 1499 1624 1814 2157 1805 1710 884 123 6 0 0 0 0 0 0 0 0 0 0 0 0 1 9 67 9 0 10 0 0 1 1 0 0
2891 2647 2155 1812 1772 1202 112 859 1357 0 337 1901 1964 1693 1286 1174 990 344 93 0 1 0 0 1 0 2 0 0 0 7 10 21 43 109 22 6 0 0 0 0 0 0 0
2608 2247 1670 1691 1252 716 81 0 0 0 0 0 0 521 0 0 0 0 0 0 0 0 67 522 365 344 258 323 45 116 38 37 57 24 1 0 0 0 0 0 0 0 0
2372 2310 1941 1634 1618 1170 701 367 0 0 0 0 0 0 0 0 0 0 0 0 0 0 109 93 39 446 288 249 106 50 18 55 3 3 0 2 0 0 0 0 0 0 0
2734 1939 1845 1699 1765 1694 1543 1121 899 136 0 0 0 0 0 0 0 0 0 0 0 0 0 0 252 203 99 18 5 0 0 1 0 0 0 0 0 0 0 0 0 0 0
2170 1550 1226 1707 1712 1437 1285 1201 636 290 144 0 0 0 0 0 0 0 0 0 0 19 16 42 54 5 1 0 1 2 0 0 0 0 0 0 1 0 0 0 0 0 0
2042 752 1007 1279 582 883 707 624 606 659 10 0 0 0 0 0 0 0 0 0 0 13 79 38 11 0 0 0 0 0 0 0 0 0 0 0 0 0 0 0 0 0 0
611 863 1 912 482 476 364 319 305 297 242 114 18 0 0 0 0 0 0 1 22 23 135 27 30 29 13 5 0 0 0 0 0 0 0 0 0 0 0 0 0 0 0
231 373 246 286 432 528 645 479 294 163 195 259 192 0 0 1 51 160 35 12 47 50 30 64 15 24 18 3 0 0 0 0 0 0 0 0 0 0 0 0 0 0 0
296 89 100 109 37 22 76 178 277 336 3 38 69 0 0 9 133 37 97 45 34 6 13 0 20 1 0 0 0 0 0 0 0 0 0 0 0 0 0 0 0 0 0
169 111 130 182 204 140 132 238 57 51 90 60 31 27 12 166 37 28 76 39 31 15 2 22 3 0 0 0 0 0 0 0 0 0 0 0 0 0 0 0 0 0 0
43 132 39 127 139 45 66 125 105 138 107 161 109 87 129 123 68 19 20 7 4 2 9 3 1 0 0 0 0 0 0 0 0 0 0 0 0 0 0 0 0 0 0
62 65 21 1 19 50 1 40 93 57 52 105 127 172 240 121 69 52 34 34 28 11 12 12 11 8 0 0 0 0 0 0 0 0 0 0 0 0 0 0 0 0 0

GFSGL_con_sbcape_015.txt.gz
CAPE
2841 2599 2970 2742 2530 2087 2352 1909 1561 1740 1086 939 1015 1053 598 342 358 385 43 35 148 2 16 0 77 2 8 0 26 0 0 0 0 0 0 0 18 0 0 7 2 8 2
3066 2927 2936 2989 2970 2565 2238 2049 2140 1442 1399 1360 1058 1088 754 455 252 340 69 49 22 125 8 0 0 10 14 7 101 57 116 51 0 0 0 0 0 3 23 28 11 24 22
3260 3199 3041 2870 3106 3002 2468 2366 2269 2262 1753 1425 1456 1066 912 686 370 377 122 5 106 29 91 20 15 1 1 82 84 107 69 72 85 32 1 2 7 1 0 0 0 0 16
3398 3283 3117 2971 2951 3012 2945 2303 2508 2602 2378 1254 1243 1195 951 711 326 351 140 39 97 129 65 134 75 5 13 296 211 193 151 175 89 25 10 1 8 21 17 21 0 0 0
3147 3209 3009 3022 3033 3093 3000 3055 2591 2596 2502 2074 1344 1305 1115 622 319 284 264 195 228 256 104 229 96 111 126 187 220 130 318 257 156 52 4 0 0 0 9 0 0 0 0
2875 2983 2884 2887 2946 3011 3033 2972 3162 2691 2813 2187 2011 1531 1276 1117 532 375 305 356 424 344 205 505 184 313 436 496 470 413 350 297 148 2 0 0 0 0 5 3 0 0 0
2404 2756 2749 2656 2895 2927 2989 2937 3234 3267 3124 3056 2616 1971 1376 1320 411 147 338 358 335 341 379 509 559 293 205 184 131 145 73 111 103 13 6 0 0 0 15 0 0 0 0
1857 2450 2538 2749 2757 3093 3044 3181 3103 3388 3291 3294 2912 2064 1514 687 104 24 4 146 221 184 379 518 429 257 174 593 390 128 44 58 53 3 0 0 0 0 42 38 0 0 0
1572 1894 2344 2485 2852 3073 3246 3233 3237 3414 3351 2975 2064 1139 549 328 88 1 0 0 7 6 142 341 366 330 338 154 319 315 344 221 136 288 110 49 5 0 64 0 0 0 0
1382 1990 2172 2353 2890 3326 3378 3301 3283 3084 2270 1874 954 536 302 206 40 15 0 3 0 0 0 229 330 328 61 16 180 155 119 99 72 4 0 0 0 0 0 0 5 0 0
1438 3575 2802 3391 3808 3674 3535 2807 2066 1850 1788 1255 748 397 205 246 306 1 0 0 42 67 88 162 104 96 345 130 4 17 137 0 0 0 0 0 0 0 0 9 17 0 0
3752 4084 4319 4238 4227 3178 2538 1822 1623 1836 1573 1039 742 609 565 358 401 286 0 0 83 193 149 197 146 329 91 0 0 0 0 0 0 0 0 0 0 0 0 0 0 6 5
3790 3747 3371 2996 2521 2113 1810 1794 1715 1420 1334 1085 879 739 735 807 50 33 0 0 0 0 0 0 0 0 0 0 0 0 0 0 0 0 0 0 0 0 0 0 0 0 0
3222 2783 2496 2350 2042 1867 1710 1517 1516 1264 1205 1075 1019 907 845 570 49 1 1 0 0 0 0 0 0 0 0 0 0 0 0 0 0 0 0 0 0 0 0 0 0 0 0
2291 1829 1744 1745 943 0 0 187 234 0 473 934 1013 764 609 696 406 0 0 0 0 0 0 0 0 0 0 0 0 0 0 0 0 2 0 0 0 0 0 0 0 0 0
1580 1432 1393 496 89 0 0 0 0 0 0 0 73 138 0 184 204 1 0 0 0 0 0 0 0 0 0 0 0 0 0 3 4 2 0 0 0 0 0 0 0 0 0
1562 1302 1024 683 336 144 0 0 0 0 0 0 0 0 0 0 0 0 0 0 0 0 0 0 0 0 0 0 0 0 0 2 0 0 0 0 0 0 0 0 0 0 0
1543 1399 1125 820 547 298 101 0 0 0 0 0 0 0 0 0 0 0 0 0 0 0 0 0 0 0 0 0 0 0 0 0 0 0 0 0 0 0 0 0 0 0 0
1688 1534 1452 1251 929 717 526 202 0 0 0 0 0 0 0 0 0 0 0 0 0 0 0 0 0 0 0 0 0 0 0 0 0 0 0 0 0 0 0 0 0 0 0
681 1314 1212 1210 1095 986 889 744 227 0 0 0 0 0 0 0 0 0 0 0 0 0 0 0 0 0 0 0 0 0 0 0 0 0 0 0 0 0 0 0 0 0 0
417 32 3 105 650 353 43 7 25 4 0 0 0 0 0 0 0 0 0 0 0 0 0 0 0 0 0 0 0 0 0 0 0 0 0 0 0 0 0 0 0 0 0
122 126 6 144 16 29 5 4 1 11 0 0 0 0 0 0 0 0 0 0 0 0 0 0 0 0 0 0 0 0 0 0 0 0 0 0 0 0 0 0 0 0 0
6 43 18 18 8 26 7 0 0 3 0 0 0 0 0 0 0 0 0 0 0 0 0 0 0 0 0 0 0 0 0 0 0 0 0 0 0 0 0 0 0 0 0
13 39 34 9 1 5 0 0 0 0 0 0 0 0 0 0 0 0 0 0 0 1 0 0 0 0 0 0 0 0 0 0 0 0 0 0 0 0 0 0 0 0 0
13 10 9 15 24 0 0 3 0 5 0 7 0 0 0 0 5 0 0 0 0 3 0 0 0 0 0 0 0 0 0 0 0 0 0 0 0 0 0 0 0 0 0
15 37 21 6 0 0 0 0 0 20 22 36 7 10 7 17 2 0 0 0 0 0 0 0 0 0 0 0 0 0 0 0 0 0 0 0 0 0 0 0 0 0 0

GFSGL_con_sbcape_018.txt.gz
CAPE
1930 1864 1716 1404 1279 1647 1586 1479 1306 968 702 791 567 251 115 51 0 130 6 5 0 0 9 0 0 0 0 0 0 0 0 0 0 0 0 0 0 0 0 0 0 0 0
1996 2051 2038 1970 1719 1509 1577 1776 1448 1277 653 767 663 408 277 164 69 41 31 21 20 0 0 0 0 0 0 0 0 1 0 0 0 0 0 0 0 0 0 1 6 1 0
2101 2087 2380 2271 2157 1972 1672 1595 1599 1418 942 707 649 739 393 328 174 123 63 11 0 5 0 0 0 0 0 6 4 5 27 11 17 11 11 0 0 0 0 0 0 0 0
2357 2227 2296 2518 2386 2331 2145 1860 1730 1718 1119 948 751 771 737 391 203 202 147 8 0 1 0 0 0 0 5 0 12 7 26 53 36 36 18 5 0 0 0 10 0 0 0
2429 2588 2441 2531 2607 2560 2468 2183 1880 1978 1768 1087 1000 898 695 625 412 231 185 72 11 3 0 0 0 10 11 6 7 19 44 81 72 59 10 0 0 0 0 0 0 0 0
2608 2659 2757 2691 2599 2585 2695 2621 2107 2001 2077 1395 1012 1000 796 749 587 237 276 174 91 32 16 0 12 105 105 10 5 30 50 101 42 16 19 5 0 0 0 0 0 0 0
2676 2869 2898 2831 2751 2675 2637 2647 2682 2217 2034 1843 1183 1068 997 986 678 119 146 168 146 139 10 14 82 293 133 112 80 80 16 37 213 80 101 1 0 0 0 0 0 0 0
2670 2821 2998 2842 2787 2731 2749 2748 2736 2825 2354 2342 1918 1421 1324 1152 715 5 108 272 241 233 194 120 195 298 103 54 29 5 10 19 49 8 0 7 0 0 0 0 0 0 0
2416 2638 2829 2775 2648 2725 2655 2747 2771 2941 2897 2755 2740 2071 1606 1395 390 0 66 144 174 185 101 224 303 164 32 4 38 78 81 165 155 63 25 12 0 0 0 0 0 0 0
1986 2381 2660 2634 2541 2633 2746 2768 2834 2929 2987 2980 2411 1821 1619 294 0 3 2 0 17 15 0 0 72 170 75 0 37 34 62 45 10 1 0 0 0 0 0 0 0 0 0
1870 1925 2316 2480 2516 2528 2825 2847 2852 2965 2584 2011 1080 320 421 395 19 0 0 0 0 0 0 0 1 0 0 0 13 12 38 1 0 0 0 0 0 0 0 0 0 0 0
1493 1444 1681 2104 2259 2600 2879 2851 2722 2262 1788 778 381 316 293 136 67 0 0 0 0 7 31 0 0 0 0 0 0 3 0 0 0 0 0 0 0 0 0 0 0 0 0
1118 1672 1844 2048 2588 2875 2692 2230 1928 1538 1210 847 587 442 373 92 3 0 0 0 0 3 0 0 0 1 1 1 1 1 0 0 0 0 0 0 0 0 0 0 0 0 0
2236 3186 3187 2917 2681 2410 1988 1764 1550 1136 863 688 657 619 375 236 0 1 1 1 1 0 0 0 0 0 0 0 0 0 0 0 0 0 0 0 0 0 0 0 0 0 0
2830 2614 2269 1619 1219 199 1 487 644 443 872 888 560 419 320 230 31 0 0 0 0 0 0 0 0 0 0 0 0 0 0 0 0 0 0 0 0 0 0 0 0 0 0
1943 1347 286 32 3 2 0 1 0 0 0 467 504 217 1 141 118 0 0 0 0 0 0 0 0 0 0 0 0 0 0 0 0 0 0 0 0 0 0 0 0 0 0
1276 468 78 9 0 0 0 0 0 0 0 2 18 3 35 0 0 0 0 0 0 0 0 0 0 0 0 0 0 0 0 0 0 0 0 0 0 0 0 0 0 0 0
338 8 314 141 32 9 0 0 0 0 0 0 0 0 0 0 0 0 0 0 0 0 0 0 0 0 0 0 0 0 0 0 0 0 0 0 0 0 0 0 0 0 0
457 289 246 165 88 0 0 0 0 0 0 0 0 0 0 0 0 0 0 0 0 0 0 0 0 0 0 0 0 0 0 0 0 0 0 0 0 0 0 0 0 0 0
623 660 538 322 145 55 0 0 0 0 0 0 0 0 0 0 0 0 0 0 0 0 0 0 0 0 0 0 0 0 0 0 0 0 0 0 0 0 0 0 0 0 0
232 496 736 761 635 429 237 6 0 0 0 0 0 0 0 0 0 0 0 0 0 0 0 0 0 0 0 0 0 0 0 0 0 0 0 0 0 0 0 0 0 0 0
0 0 30 671 563 393 339 11 7 0 0 0 0 0 0 0 0 0 0 0 0 0 0 0 0 0 0 0 0 0 0 0 0 0 0 0 0 0 0 0 0 0 0
0 0 0 0 0 0 0 0 40 1 0 0 0 0 0 0 0 0 0 0 0 0 0 0 0 0 0 0 0 0 0 0 0 0 0 0 0 0 0 0 0 0 0
0 0 0 0 0 0 0 0 0 0 0 0 0 0 0 0 0 0 0 0 0 0 0 0 0 0 0 0 0 0 0 0 0 0 0 0 0 0 0 0 0 0 0
3 0 0 0 0 0 0 0 0 0 0 0 0 0 0 0 0 0 0 0 0 0 0 0 0 0 0 0 0 0 0 0 0 0 0 0 0 0 0 0 0 0 0
0 0 0 0 0 0 0 0 0 0 0 0 0 0 0 0 0 0 0 0 0 0 0 0 0 0 0 0 0 0 0 0 0 0 0 0 0 0 0 0 0 0 0

GFSGL_con_sbcape_021.txt.gz
CAPE
972 1105 1072 1020 940 739 642 606 808 819 737 718 747 485 129 11 0 0 3 0 0 0 0 0 0 0 0 0 0 0 0 0 0 0 0 0 0 0 0 0 0 0 0
949 1043 1042 1123 1177 1111 943 804 808 897 709 751 620 411 188 54 0 40 20 15 0 0 0 0 0 0 0 0 0 0 0 0 0 0 0 0 0 0 0 0 0 0 0
1026 1219 1163 1105 1077 1218 1331 1225 1104 1062 768 698 636 559 261 96 28 0 15 6 0 0 0 0 0 0 0 0 0 0 1 0 0 0 0 0 0 0 0 0 0 0 0
1254 1398 1464 1412 1319 1146 1203 1308 1363 1267 860 727 687 646 456 269 129 61 4 0 0 0 0 0 0 0 0 0 0 3 0 2 0 0 0 0 0 0 0 0 0 0 0
1367 1567 1593 1634 1642 1574 1438 1286 1214 1283 1301 780 615 622 588 390 318 143 69 25 21 11 0 0 0 0 0 0 0 0 0 1 1 0 0 0 4 4 0 0 0 0 0
1560 1699 1731 1858 1892 1877 1838 1706 1472 1327 1383 974 777 653 611 695 461 216 210 163 92 35 5 9 0 0 0 0 0 2 0 3 0 0 0 2 0 0 0 0 0 0 0
1820 1847 1869 1847 2048 2108 2043 1995 1803 1561 1521 1104 1066 939 713 729 574 212 116 238 94 24 63 63 1 0 0 2 4 1 0 0 0 0 0 0 0 4 0 0 0 0 0
1951 2007 2127 2082 2055 2168 2208 2232 2141 1791 1727 1659 1217 1016 1087 1028 498 69 97 328 171 118 107 40 2 0 32 23 16 3 0 0 0 0 0 18 5 0 0 0 0 0 0
2009 2134 2265 2423 2332 2244 2256 2293 2340 2220 1787 1856 1572 1341 1336 1354 704 116 1 354 254 235 193 145 22 0 55 21 24 4 0 0 11 0 35 25 1 0 0 0 0 0 0
2151 2263 2443 2538 2516 2434 2373 2339 2363 2458 2394 1990 1994 1877 1613 1508 554 20 62 341 255 284 154 88 114 92 39 0 15 0 0 12 1 0 0 0 0 0 0 0 0 0 0
2079 2358 2407 2617 2582 2498 2428 2392 2511 2525 2624 2475 2544 2236 1402 671 3 0 163 217 302 221 56 0 0 0 2 0 0 0 5 0 0 0 0 0 0 0 0 0 0 0 0
1597 1941 2248 2402 2586 2394 2431 2431 2554 2625 2775 2793 2025 1431 1003 95 0 0 115 91 0 0 0 0 0 0 0 1 1 0 0 0 0 0 0 0 0 0 0 0 0 0 0
1343 1561 1751 2225 2389 2312 2438 2482 2630 2679 2704 1708 1489 1225 543 309 9 1 0 0 0 0 0 0 0 1 1 1 1 1 0 0 0 0 0 0 0 0 0 0 0 0 0
1297 1432 1504 2019 2258 2242 2508 2628 2719 2740 2096 1479 1368 775 484 151 1 0 0 0 0 0 1 1 0 0 0 0 1 0 0 0 0 0 0 0 0 0 0 0 0 0 0
1059 1244 1298 1720 1982 2269 917 1498 2408 1238 1291 1012 706 477 336 141 3 0 0 0 0 0 0 0 0 0 0 0 0 0 0 0 0 0 0 0 0 0 0 0 0 0 0
1157 1769 1983 2003 398 12 1 0 4 1 343 131 131 1 1 40 0 2 1 0 1 0 0 0 0 0 0 0 0 0 0 0 0 0 0 0 0 0 0 0 0 0 0
2348 889 429 344 291 441 416 238 27 0 1 5 21 0 0 1 2 2 2 2 1 0 0 0 0 0 0 0 0 0 0 0 0 0 0 0 0 0 0 0 0 0 0
136 255 387 296 289 143 26 0 0 0 50 0 1 0 3 2 2 2 1 1 0 0 0 0 0 0 0 0 0 0 0 0 0 0 0 0 0 0 0 0 0 0 0
231 200 114 45 0 0 0 0 0 0 0 0 0 0 0 1 1 1 0 0 0 0 0 0 0 0 0 0 0 0 0 0 0 0 0 0 0 0 0 0 0 0 0
0 65 121 10 0 0 0 0 0 0 0 0 0 0 0 0 0 0 0 0 0 0 0 0 0 0 0 0 0 0 0 0 0 0 0 0 0 0 0 0 0 0 0
62 149 31 20 0 0 0 0 0 0 0 0 0 0 0 0 0 0 0 0 0 0 0 0 0 0 0 0 0 0 0 0 0 0 0 0 0 0 0 0 0 0 0
79 262 288 142 26 10 0 0 0 0 0 0 0 0 0 0 0 0 0 0 0 0 0 0 0 0 0 0 0 0 0 0 0 0 0 0 0 0 0 0 0 0 0
0 15 99 176 129 45 21 1 0 0 0 0 0 0 0 0 0 0 0 0 0 0 0 0 0 0 0 0 0 0 0 0 0 0 0 0 0 0 0 0 0 0 0
0 0 0 0 0 0 0 0 0 0 0 0 0 0 0 0 0 0 0 0 0 0 0 0 0 0 0 0 0 0 0 0 0 0 0 0 0 0 0 0 0 0 0
0 0 0 0 0 0 0 0 0 0 0 0 0 0 0 0 0 0 0 0 0 0 0 0 0 0 0 0 0 0 0 0 0 0 0 0 0 0 0 0 0 0 0
0 0 0 0 0 0 0 0 0 0 0 0 0 0 0 0 0 0 0 0 0 0 0 0 0 0 0 0 0 0 0 0 0 0 0 0 0 0 0 0 0 0 0

GFSGL_con_sbcape_024.txt.gz
CAPE
745 753 759 712 637 508 359 346 298 449 630 856 1024 903 547 139 52 5 5 0 0 0 0 0 0 0 0 0 0 0 0 0 0 0 0 0 0 6 0 0 0 2 2
851 969 963 895 792 666 572 571 545 534 598 773 886 906 670 210 110 77 40 31 0 0 0 0 0 0 0 0 0 0 0 0 0 9 0 0 0 0 1 15 3 0 1
504 1019 1036 986 901 844 732 767 597 743 751 801 833 867 658 369 126 135 124 81 60 31 1 0 0 0 0 0 0 0 0 0 0 0 6 0 0 0 4 0 0 0 0
541 794 1014 1059 1016 1026 962 940 776 824 840 926 920 915 708 514 280 152 148 148 124 122 50 0 3 0 0 0 0 0 0 11 5 2 0 1 0 1 0 12 25 1 0
722 761 994 1055 1089 1138 1216 1174 1107 1023 1019 906 932 936 826 634 469 328 200 162 160 148 87 35 4 0 1 0 0 0 0 1 11 9 5 2 2 1 12 1 0 0 0
922 940 1066 1204 1183 1151 1135 1281 1309 1306 1275 1039 931 978 906 848 599 225 275 264 193 159 75 66 95 0 0 0 0 0 0 0 9 10 0 17 11 23 5 0 0 0 5
1089 1177 1296 1399 1442 1418 1366 1244 1225 1224 1345 1155 1101 1005 1004 1055 509 196 155 457 407 300 188 92 42 77 3 34 0 0 0 0 2 26 25 0 9 83 5 0 0 0 8
1217 1270 1475 1603 1666 1663 1675 1573 1458 1363 1296 1329 1200 1048 1058 984 503 114 100 580 539 385 283 181 212 244 101 14 11 4 0 0 3 3 61 8 2 21 0 0 1 1 1
1436 1420 1548 1739 1808 1838 1881 1877 1839 1723 1546 1516 1412 1214 1169 1205 345 30 49 544 500 425 325 249 244 223 38 0 57 68 5 1 1 2 1 0 0 0 3 2 0 0 7
1584 1702 1759 1847 1829 1926 2035 2090 2060 2004 1841 1730 1604 1368 1230 1436 65 22 57 662 661 514 420 340 72 176 6 0 178 296 192 3 3 1 0 0 0 0 0 0 0 0 0
1409 1793 1968 2067 2052 1964 2090 2276 2324 2350 2164 1870 1825 1605 1611 1380 803 4 0 767 904 582 564 361 204 40 17 0 1 27 1 2 0 0 0 0 0 0 0 0 0 0 0
1435 1775 1982 2202 2320 2323 2207 2286 2285 2439 2415 2140 1935 1868 1906 1630 1226 1 1 664 581 671 503 233 37 0 0 0 0 0 0 0 0 0 0 0 0 0 0 0 0 0 0
1202 1773 2148 2258 2445 2433 2469 2405 2407 2425 2434 2297 2083 2081 1811 1130 0 1 1 233 130 234 129 46 0 0 2 1 1 1 0 0 0 0 0 0 0 0 0 0 0 0 0
950 1290 1839 2339 2479 2609 2469 2483 2479 2477 2261 2265 2212 2129 1558 245 36 1 0 0 0 0 1 0 1 0 0 0 1 0 0 0 0 0 0 0 0 0 0 0 0 0 0
408 981 1448 2022 2052 2552 1078 1232 2354 2457 2535 2547 1927 1411 559 276 75 1 2 1 0 0 0 1 0 0 0 2 2 1 0 0 0 0 0 0 0 0 0 0 0 0 0
1780 733 1181 1762 2071 169 0 0 2 2 2 8 36 3 0 0 0 2 1 1 1 0 0 1 0 0 0 0 0 0 0 0 0 0 0 0 0 0 0 0 0 0 0
2018 1333 1245 1442 326 24 386 333 2 0 1 0 1 0 0 0 7 5 2 2 1 0 0 0 0 0 0 0 0 0 0 0 0 0 0 0 0 0 0 0 0 0 0
1851 963 726 486 364 677 364 239 43 1 2 0 1 0 0 2 2 2 1 1 0 0 0 0 0 0 0 0 0 0 0 0 0 0 0 0 0 0 0 0 0 0 0
67 274 279 372 328 10 2 4 4 7 6 2 4 1 1 1 1 1 1 0 0 0 0 0 0 0 0 0 0 0 0 0 0 0 0 0 0 0 0 0 0 0 0
0 0 0 4 7 0 0 0 1 1 0 1 2 4 0 0 0 0 0 0 0 0 0 0 0 0 0 0 0 0 0 0 0 0 0 0 0 0 0 0 0 0 0
0 2 1 0 24 4 2 0 1 1 1 1 1 5 0 0 0 0 0 0 0 0 0 0 0 0 0 0 0 0 0 0 0 0 0 0 0 0 0 0 0 0 0
10 8 0 0 3 2 2 1 0 0 0 0 2 2 0 0 0 0 0 0 0 0 0 0 0 0 0 0 0 0 0 0 0 0 0 0 0 0 0 0 0 0 0
0 13 28 21 4 0 0 0 0 0 2 2 1 0 0 0 0 0 0 0 0 0 0 0 0 0 0 0 0 0 0 0 0 0 0 0 0 0 0 0 0 0 0
0 0 1 1 1 3 4 0 0 0 0 0 0 0 0 0 0 0 0 0 0 0 0 0 0 0 0 0 0 0 0 0 0 0 0 0 0 0 0 0 0 0 0
0 0 0 0 3 0 0 1 0 0 0 0 0 0 0 0 0 0 0 0 0 0 0 0 0 0 0 0 0 0 0 0 0 0 0 0 0 0 0 0 0 0 0
0 2 0 0 0 4 0 0 0 1 1 0 0 0 0 0 0 0 0 0 0 0 0 0 0 0 0 0 0 0 0 0 0 0 0 0 0 0 0 0 0 0 0

GFSGL_con_sbcape_027.txt.gz
CAPE
1827 1812 1766 1727 1754 1900 1921 2001 2089 2255 2320 2319 2321 2303 2305 2183 1860 1684 1540 1022 712 688 340 360 367 316 94 67 39 18 13 0 0 0 5 67 68 103 36 161 96 232 126
1832 1931 1888 1912 1872 1832 1903 1973 2081 2215 2194 2522 2465 2357 2231 2190 2003 1736 1659 1199 949 851 639 434 387 131 217 148 44 131 41 16 0 255 82 91 190 242 416 455 265 49 149
1793 1866 2006 2031 1928 1910 1941 2036 2141 2196 2253 2047 2418 2577 2267 2091 2076 1825 1814 1641 1154 1076 829 602 512 393 214 40 72 15 13 112 119 53 71 91 123 140 293 469 486 242 172
1489 1806 2050 2105 2066 2012 2052 2140 2157 2279 2267 2364 2514 2665 2430 2082 2043 1831 1792 1822 1538 1269 1032 773 636 557 414 319 175 223 168 146 169 146 105 96 160 269 277 263 224 101 44
1713 1769 2090 2239 2292 2302 2222 2225 2262 2374 2269 2396 2489 2587 2460 2049 1777 1922 1827 1838 1725 1523 1324 1016 780 647 247 222 147 440 619 359 153 189 201 196 128 110 34 204 101 67 84
1786 1720 1991 2390 2452 2398 2374 2354 2386 2385 2354 2488 2532 2589 2592 2054 1416 1000 1566 1905 1787 1989 1824 1427 1064 309 78 0 0 97 602 693 695 293 296 350 502 54 269 122 94 153 95
1861 1931 2051 2299 2461 2474 2435 2483 2427 2474 2417 2484 2466 2545 2610 2617 820 277 383 2062 1881 2138 2043 1877 1378 772 165 330 32 0 0 0 86 765 693 738 546 200 172 309 238 206 287
1931 2138 2110 2112 2367 2458 2548 2539 2594 2571 2560 2567 2531 2539 2594 2555 440 72 124 1862 2260 2243 2076 1907 1655 1284 814 652 826 407 267 108 36 92 645 863 464 391 198 352 455 548 519
2010 2208 2260 2182 2413 2536 2513 2543 2551 2623 2711 2733 2683 2713 2641 2711 261 17 52 1571 2205 2247 2136 1875 1554 1417 766 152 780 769 467 510 97 1 27 4 1 3 41 358 331 204 148
2154 2263 2308 2554 2591 2656 2715 2746 2690 2633 2676 2645 2802 2802 2271 2777 222 4 63 1926 2186 1967 2069 1804 586 1071 643 0 736 983 1032 856 663 141 5 0 0 1 0 247 101 0 0
1858 2055 2617 2852 2908 2785 2529 2857 3106 2989 2901 2893 2855 2831 2783 2311 2138 1 0 2086 2172 2000 1910 1301 1479 146 90 0 114 1281 1052 988 335 353 90 66 2 0 0 0 0 0 0
2249 2682 3203 3207 2873 2661 3042 2753 3285 2884 3136 3300 3133 2612 2594 2888 1676 1 0 374 1599 2043 1346 1367 1557 9 0 0 0 604 89 130 276 188 16 0 0 0 0 0 0 0 0
2588 3149 3340 3403 3381 3384 3446 3417 2740 2419 2513 2796 2388 2438 2454 2071 2155 196 1 0 743 1372 1216 1152 750 2 2 1 0 2 0 198 104 0 0 0 0 0 0 0 0 0 0
2781 3019 3282 3555 3636 3720 3382 3267 3028 2507 2344 2094 2276 2092 2111 2143 1342 2 0 0 127 281 6 1 1 2 0 0 0 0 194 226 31 0 0 0 0 0 0 0 0 0 0
2368 2333 2714 2910 2988 3598 3652 3461 3060 2779 2748 2752 2975 2303 2378 772 0 0 1 1 2 4 3 3 5 3 2 2 5 3 82 0 0 0 0 0 0 0 0 0 0 0 0
1793 2111 2014 2155 2563 3125 3325 1368 0 176 1445 1047 2300 2387 897 1 1 1 0 1 1 0 0 4 10 2 9 3 1 2 0 0 0 0 0 0 0 0 0 0 0 0 0
724 1230 1692 1320 1966 3041 761 1494 696 0 1 41 14 1 0 0 1 0 0 0 2 1 1 4 65 6 14 0 0 0 0 0 0 0 0 0 0 0 0 0 0 0 0
654 0 340 1354 2018 864 986 474 0 31 0 2 1 0 1 0 1 1 1 1 0 0 18 14 1 0 0 0 0 0 0 0 0 0 0 0 0 0 0 0 0 0 0
362 68 82 3 1 126 420 138 33 1 0 0 0 0 1 1 1 1 1 1 2 2 87 104 32 1 0 0 0 0 0 0 0 0 0 0 0 0 0 0 0 0 0
129 0 8 0 0 0 0 1 3 9 7 1 1 0 4 2 2 1 2 2 1 25 52 63 29 4 0 0 0 0 0 0 0 0 0 0 0 0 0 0 0 0 0
2 148 0 70 11 1 0 0 1 1 2 2 13 9 0 8 7 5 5 0 1 46 115 102 6 0 0 0 0 0 0 0 0 0 0 0 0 0 0 0 0 0 0
165 166 59 4 9 9 15 10 11 9 25 7 3 1 0 2 9 4 2 44 2 29 24 0 0 0 0 0 0 0 0 0 0 0 0 0 0 0 0 0 0 0 0
51 69 5 8 18 0 3 4 5 4 6 5 4 3 4 25 21 1 0 0 0 0 0 0 0 0 0 0 0 0 0 0 0 0 0 0 0 0 0 0 0 0 0
323 298 21 11 25 15 9 4 6 1 4 10 9 6 3 0 0 0 0 0 4 0 0 0 0 0 0 0 0 0 0 0 0 0 0 0 0 0 0 0 0 0 0
0 0 25 202 216 112 60 6 4 1 1 4 4 3 0 0 3 7 9 4 0 0 0 0 0 0 0 0 0 0 0 0 0 0 0 0 0 0 0 0 0 0 0
0 0 0 0 1 2 21 29 8 1 1 2 1 0 0 0 0 9 11 7 0 0 0 0 0 0 0 0 0 0 0 0 0 0 0 0 0 0 0 0 0 0 0

GFSGL_con_sbcape_030.txt.gz
CAPE
3003 3244 3171 2857 3023 3321 3482 3680 3756 3082 3571 3013 3072 2550 2399 2801 3062 3194 3077 2413 2358 1929 1362 729 873 738 94 48 86 84 63 36 0 7 3 136 443 439 53 69 138 152 75
2874 3360 3408 3443 3308 3041 3425 3498 3710 3723 3456 3790 3340 3251 2792 2659 2986 3010 3008 2399 2489 2232 1981 1515 889 588 783 359 132 998 368 203 0 234 107 195 603 534 524 678 298 56 58
2743 2496 2723 3006 2878 3407 3640 3522 3691 3779 3844 2722 3498 3946 3357 3026 3288 3016 2919 2978 2625 2557 2289 2047 1490 765 852 485 389 235 116 146 275 36 32 235 149 354 569 738 626 617 235
1942 2199 2981 3397 3367 3377 3631 3635 3695 3824 3900 3854 3700 4175 3794 3190 2984 2699 2720 2940 2997 2637 2590 2331 1922 1416 1005 931 545 523 319 164 290 155 72 26 246 416 254 108 536 596 297
2602 2324 3051 3466 3647 3655 3701 3699 3705 3909 3798 3987 3954 4050 4097 3123 2551 3566 3408 3076 3428 2937 2739 2589 2282 1720 888 936 865 981 1382 597 60 175 227 165 200 248 489 288 199 309 353
2834 2840 3120 3641 3886 3808 3817 3804 3933 3892 3910 3974 3903 4053 4080 3067 1949 1501 2615 3219 3733 3771 3240 2791 2536 1265 771 299 308 333 886 1274 1318 223 268 495 987 576 571 358 210 198 141
2880 3204 3382 3754 3895 3949 3989 4034 3969 3915 3973 4032 3987 4011 4151 4043 1635 721 1197 2947 3607 3635 3449 3220 2739 2310 1375 1471 149 31 34 295 368 1086 1035 1221 854 1289 1116 779 738 512 511
3123 3304 3555 3732 3928 4155 4188 4113 4086 4041 3974 4092 4037 4095 4145 4075 2071 270 474 2767 3683 3765 3584 3556 3885 3506 2435 1812 1709 736 489 485 434 311 816 952 1525 943 1061 775 841 677 638
3156 3389 3557 3670 3410 3551 4120 4098 4067 3845 3665 3693 3554 4120 4375 4226 1590 64 332 2572 2936 3985 3671 3512 3594 3550 2621 883 1878 1923 1683 1187 286 78 43 62 75 63 163 482 406 711 599
3008 3277 3476 3786 3781 3705 4092 4230 4088 3938 3556 3107 3511 3910 3417 4265 2082 1 230 2261 2849 2715 3804 3971 1993 2884 2233 220 1470 1815 2004 1783 1295 419 79 36 7 24 0 194 286 257 105
2349 2415 3367 3875 4040 4038 4341 4302 4240 4067 3624 4045 3715 3696 4075 3877 3710 0 0 2631 2757 2788 2551 2831 2827 1161 243 98 412 1502 1796 1884 1127 1246 514 619 526 427 99 69 242 0 0
3083 3084 3874 3994 3208 3073 4433 4496 4176 4167 4127 3978 3379 3552 3703 4106 2649 143 0 160 2126 3010 2968 2454 2671 304 67 0 0 789 849 729 2141 1138 842 483 411 321 181 13 0 0 0
2999 3669 3715 3817 3855 4197 4487 4536 3738 4238 3371 3369 2907 3468 3176 3682 3712 1355 0 0 12 1520 2522 2330 1579 2 0 1 5 23 72 903 1001 781 507 491 270 160 22 0 0 0 0
2875 3131 3239 3500 3483 3475 3295 3545 3284 3098 3598 3207 3560 3712 3414 3448 3475 3140 630 4 5 163 103 6 0 0 1 3 2 5 399 719 677 615 466 376 91 11 0 0 0 0 0
3120 3231 3353 3301 3469 3626 3853 3376 3266 3635 3205 3428 3503 3170 3090 3100 3306 2847 679 145 233 213 0 1 2 1 2 5 35 132 298 549 455 554 376 121 12 7 0 1 0 0 5
2398 2539 2400 2498 2802 3219 3300 3737 51 218 27 1002 1795 1548 2199 2225 518 56 2 2 1 1 1 6 8 3 0 4 92 100 320 221 286 254 129 25 10 2 0 4 0 1 2
1541 1516 1458 1386 1585 1816 2400 2906 3042 1367 0 2 8 733 1828 0 2 2 1 1 1 0 273 124 9 0 1 1 9 216 321 127 109 39 28 17 3 2 1 8 0 0 0
805 6 1138 1247 1479 1880 2430 2664 2879 3266 2779 2687 173 0 1 1 1 1 1 1 0 16 277 46 57 4 52 24 50 110 170 66 51 5 4 2 0 6 8 0 0 0 0
231 567 423 263 210 150 1 1 2 137 2 3 2 0 1 1 1 1 1 0 4 150 300 241 146 124 120 70 111 121 80 11 0 0 0 1 3 4 0 0 0 0 0
246 0 27 177 0 19 17 0 0 0 0 0 2 1 0 0 11 0 0 19 63 229 296 320 405 269 157 183 109 66 32 0 0 1 2 1 0 0 0 0 0 0 0
400 484 0 132 133 15 5 1 11 14 16 6 2 1 0 0 2 50 3 20 95 169 376 318 189 151 280 225 53 3 5 0 6 1 0 0 0 0 0 0 0 0 0
665 384 240 129 93 6 21 14 16 7 17 11 5 3 1 3 0 8 102 68 92 70 113 388 475 209 66 14 0 0 0 0 0 0 0 0 0 0 0 0 0 0 0
532 429 216 238 194 1 3 4 14 16 7 10 6 4 2 9 16 48 107 113 138 182 374 522 495 93 24 0 0 0 0 0 0 0 0 0 0 0 0 0 0 0 0
699 704 439 137 129 83 12 7 6 2 12 8 10 34 62 10 1 0 6 7 38 131 75 119 42 5 6 0 0 0 0 3 2 0 0 0 0 0 0 0 0 0 0
2 35 138 248 410 177 23 6 8 10 7 4 1 2 9 14 8 0 2 2 0 2 12 11 0 0 0 0 0 0 0 0 0 0 0 0 0 0 0 0 0 0 0
0 0 0 0 42 21 49 17 10 7 6 5 5 3 0 0 2 4 5 19 37 45 39 6 1 0 0 0 0 0 0 0 0 0 0 0 0 0 0 0 0 0 0

GFSGL_con_sbcape_033.txt.gz
CAPE
3763 3768 3859 4000 4060 4269 3952 4196 4174 4186 4402 3761 4087 3664 3708 3792 3985 4382 3978 3703 3624 3309 2489 2464 2153 2223 113 56 74 52 43 41 4 0 9 798 448 335 218 321 169 594 52
3785 3880 3864 4021 4010 4049 4225 4028 4308 4407 4201 4405 4284 4201 3972 3808 3980 4255 3998 2588 3707 3201 2626 2695 1960 832 2090 1797 228 1555 451 737 76 1678 696 426 1065 1547 1437 1610 402 34 217
3248 3444 3958 3963 4052 3973 4144 4210 4172 4353 4402 4196 4284 4471 4324 3948 4019 4410 4289 3990 3784 3670 3464 3331 2717 2201 2260 733 845 426 243 496 486 181 113 175 269 535 1037 1419 1416 1138 453
2501 2859 3481 4052 3975 4042 4122 4333 4276 4383 4392 4329 4275 4403 4410 4297 4028 4109 4185 4195 3988 3799 3715 3664 3426 2811 2199 2333 1666 1605 1161 643 538 251 140 62 177 887 442 256 421 637 593
3151 3153 3456 3998 4198 4253 4212 4289 4333 4384 4357 4407 4369 4378 4566 4398 3585 4064 3864 3998 4138 4172 3966 3914 3728 3025 1897 1923 1369 1582 1470 851 66 160 290 304 137 413 886 631 602 183 590
3479 3342 3729 4127 4351 4424 4436 4380 4538 4434 4476 4467 4464 4380 4376 4091 2786 2136 3148 3961 4130 4318 4211 4130 3848 2340 1589 954 847 982 1461 2066 1756 830 709 768 2151 1282 620 386 526 195 290
3378 3782 3815 4188 4393 4522 4572 4605 4527 4524 4534 4520 4471 4529 4479 4476 2809 1239 1332 3789 4117 4033 4326 4294 3920 2713 2394 2196 431 429 226 605 944 2247 1981 1867 2173 1970 1905 984 1443 1050 570
3634 3690 3998 4125 4356 4573 4683 4633 4650 4632 4592 4594 4599 4656 4632 4514 3308 758 597 2993 3735 3929 4072 4258 4310 3464 3477 2976 2725 1515 1348 1128 968 751 1665 2057 2086 2005 1058 1607 1475 1220 1017
3908 3861 3820 4196 4345 4526 4574 4610 4644 4610 4605 4555 4610 4724 4717 4575 2954 1369 194 2671 3202 3552 3735 4154 4213 4284 3424 1745 3123 2985 2137 1674 570 527 348 306 275 326 460 803 497 691 601
3658 4076 4156 4444 4475 4533 4624 4762 4739 4690 4567 4299 4481 4632 4293 4683 3743 995 358 2907 3106 3276 3593 4079 2885 3642 3471 656 2807 3163 2677 2091 1602 614 113 41 65 15 0 742 434 278 316
3329 3999 4390 4465 4647 4572 4655 4783 4828 4759 4430 4637 4525 4569 4636 4349 4515 695 8 3310 3152 3156 3255 3414 3749 1800 1793 128 1123 2840 2816 2730 1897 1535 723 606 460 669 279 124 681 365 329
3761 3970 4324 4548 4132 4067 4692 4833 4969 4842 4750 4747 4703 4633 4553 4659 3169 1563 0 570 2738 3186 3267 3224 3401 1810 384 0 59 2128 1867 1886 1894 1203 1193 1033 701 480 490 390 548 523 168
4491 4638 4619 4694 4696 4536 4840 4910 4502 4794 4311 4404 4248 4507 4468 4468 4562 1929 6 0 368 2374 3193 2927 2547 344 0 0 93 346 455 1294 1532 981 1061 881 833 596 815 749 549 301 54
4740 4844 4808 4894 4783 4610 3660 4007 3845 3696 4024 3973 3905 4110 4014 4122 3995 4485 1960 109 18 326 1120 1527 112 1 42 375 1 0 376 894 1085 1167 773 881 539 454 77 33 3 0 0
3426 3393 3615 3433 3852 4495 4385 3289 3606 3966 3272 3589 3737 3600 3662 3766 3620 3541 3809 3688 2058 1365 1733 366 154 151 0 0 37 2 60 395 798 390 350 404 300 92 71 71 4 0 2
3592 3550 3338 3171 3324 3525 3581 4000 1986 2077 1172 1151 0 266 2419 795 839 1308 2181 1753 1427 705 1214 567 276 279 43 2 76 38 89 149 674 392 158 274 238 40 84 51 1 8 14
2434 2467 2138 1709 1897 2033 2872 3033 2906 1539 31 31 0 0 2 45 2 108 11 101 139 17 1207 573 398 212 134 109 103 20 16 282 158 312 172 105 169 174 22 6 23 21 14
1165 330 1450 1533 1649 1847 2152 2360 2432 2464 2656 2615 6 0 0 0 2 2 2 1 0 58 778 348 156 94 118 108 100 59 140 254 159 90 100 156 168 112 9 9 67 46 9
1048 981 766 785 697 578 735 676 736 635 251 1 0 0 0 0 0 0 1 344 0 2 536 117 98 47 110 232 217 98 522 284 249 67 133 183 89 18 11 27 52 2 0
332 29 147 464 235 223 235 343 282 62 9 7 3 1 0 0 0 3 3 1 7 7 172 157 70 59 134 159 290 224 291 16 96 154 199 117 65 13 14 47 6 0 0
635 596 0 310 170 217 191 134 16 30 6 6 2 0 1 0 3 10 10 22 1 2 5 10 3 126 141 145 209 162 173 80 98 143 66 65 36 11 19 4 0 0 0
528 479 406 450 179 63 151 21 59 13 3 2 9 2 0 8 20 68 61 8 31 57 49 35 89 133 141 132 125 68 75 117 157 71 15 4 2 0 0 0 0 0 0
295 389 533 531 403 30 116 51 8 8 5 5 8 16 36 42 45 45 40 10 29 99 70 97 143 177 233 109 28 24 54 39 33 6 5 0 0 0 0 0 0 0 0
272 355 327 219 143 147 79 33 10 3 7 10 17 13 35 15 12 3 2 4 39 96 128 276 102 65 98 27 25 28 11 0 0 0 0 0 0 0 0 0 0 0 0
2 22 28 8 107 17 20 18 20 9 9 6 4 2 0 28 30 4 18 18 0 48 51 59 137 135 114 54 26 0 0 0 0 0 0 0 0 0 0 0 0 0 0
0 1 9 12 11 11 1 1 5 7 6 5 5 5 6 2 0 20 21 28 51 85 82 64 53 65 60 38 38 0 0 0 0 0 0 0 0 0 0 0 0 0 0

GFSGL_con_sbcape_036.txt.gz
CAPE
3281 3249 3218 3330 2828 2931 3051 3115 3763 2763 4141 2962 3801 3214 3270 3295 3313 3603 3117 3012 3577 3044 2101 2192 1728 1389 1471 1024 774 807 903 714 463 402 1137 1405 917 413 120 416 271 415 42
3534 3438 3144 3238 3512 3341 2906 3175 3483 4098 3182 4257 3687 3381 3411 3162 3294 3285 3316 2545 3323 3051 2514 1982 2011 1418 1654 1782 1770 890 744 1084 893 1100 845 1159 1253 913 1083 1080 331 5 251
3458 3411 3312 3204 3240 3475 3540 3052 3281 3422 3838 3286 3993 3906 3245 3180 3159 3273 3259 3226 2335 3197 3009 2522 2147 1706 1556 930 1165 1057 988 1143 1408 673 758 1002 1294 1315 1012 1020 1278 805 636
3178 3450 3287 3365 3370 3410 3546 3685 3265 3292 3454 3668 3533 3472 3818 3317 3249 3170 3286 3559 3216 2899 3257 3000 2712 2161 1534 1589 1231 917 1138 1079 713 847 677 481 982 948 871 681 729 735 602
2680 3203 3359 3372 3509 3516 3619 3684 3838 3592 3421 3551 3630 3611 3506 3697 3348 3228 3249 3515 3493 3051 2970 3348 3043 2723 2097 1607 1387 1531 786 972 876 428 333 527 595 816 648 618 291 236 493
2758 2929 3185 3459 3485 3835 3680 3775 3856 3946 3837 3782 3820 3703 3687 3585 3298 2789 2957 3320 3556 3367 3272 3215 3204 2631 2170 1420 1268 1067 1302 734 499 247 345 485 638 875 1429 604 347 343 307
2998 3261 3311 3404 3565 3737 3989 3889 3846 4036 4051 4029 4011 3966 3710 3695 3135 2018 1778 3129 3227 3283 3241 3261 3317 3020 2484 1943 696 758 696 888 721 641 931 1312 1814 1583 1467 1242 1084 981 533
3880 3601 3805 3862 3686 3922 4064 4098 4124 4050 4163 4119 4174 4101 4021 3862 3240 1315 1017 2542 3087 3145 3203 3198 3254 3169 2931 2687 1847 937 806 611 464 692 1364 1179 1740 1599 1542 1529 1210 1138 1006
3464 3920 3696 4044 4027 4027 4135 4153 4213 4279 4213 4311 4243 4271 4191 4029 3010 1523 306 2232 2718 2922 3162 3299 3212 3243 3087 1898 2513 1770 1139 1046 742 428 548 1126 796 782 1343 918 923 577 510
3597 3435 3858 3783 3952 4068 4190 4341 4359 4363 4351 4304 4316 4274 4146 4196 3774 1228 325 2746 2633 2628 2809 3221 2564 3060 3035 1073 2275 2488 1924 1406 1195 637 131 21 17 72 177 763 573 417 241
3601 3745 3984 4023 3890 4093 4250 4448 4497 4487 4446 4425 4358 4341 4339 4179 4138 2156 89 3016 3165 2803 2656 2797 3012 1689 1723 648 1019 2540 2447 2220 1388 1062 381 182 142 146 80 148 487 319 209
4223 4064 4173 4513 3956 3938 4406 4510 4536 4527 4507 4445 4402 4376 4387 4323 3583 3446 110 239 2970 3198 2949 2673 2775 2673 493 115 0 2010 2330 2128 1970 1214 462 201 162 136 257 164 165 286 281
5087 4912 4472 4704 4525 4143 4588 4486 4512 4599 4527 4504 4405 4385 4308 4211 4499 3717 1741 0 2 1076 3224 3060 855 1614 817 0 24 589 495 1660 2181 1483 694 375 214 165 118 146 52 213 135
5233 5322 4947 4843 4661 4528 4171 4448 4330 4357 4512 4555 4458 4334 4167 4380 4427 4109 2282 22 0 81 1096 1796 2406 674 9 574 149 4 1334 2043 2101 1469 973 558 334 249 234 171 114 70 3
4830 4986 5113 4685 4587 4739 4590 3995 4478 4403 4237 4382 4386 4083 3908 4200 2952 360 1432 3379 1812 1200 1868 2515 2557 2222 2408 778 399 665 1441 1819 1626 1263 733 330 225 156 65 26 1 0 1
4644 4244 4059 3859 4121 4327 4563 4501 2899 2584 738 12 6 908 2988 322 0 29 1004 1561 1051 1380 819 2406 2539 2011 1436 1201 587 860 1208 1160 1121 756 274 143 70 83 5 0 0 0 0
3975 4549 4082 3379 3944 4194 3976 4525 4424 0 2 0 0 0 0 0 2 2 0 92 800 0 1728 1710 2172 1865 1080 1043 642 780 732 666 532 222 135 63 3 23 0 0 0 0 3
1945 659 2434 2110 2271 2547 2547 2334 2473 2480 2816 1832 51 0 0 0 0 1 1 0 33 0 1209 1538 1432 1403 822 422 246 320 264 238 291 212 96 42 65 0 0 0 0 0 0
2348 1587 1500 1070 984 783 1073 862 640 689 455 264 214 12 0 0 0 0 1 2 4 109 141 613 1196 1132 706 301 127 64 44 90 175 124 139 17 0 0 0 0 0 0 0
667 178 564 934 698 810 728 717 744 569 405 281 13 0 0 0 0 0 0 0 3 1 0 1 0 0 203 177 75 0 3 16 49 61 2 1 0 0 0 0 0 0 0
491 672 263 440 473 530 534 499 355 348 124 34 1 0 1 0 8 21 18 0 0 19 67 9 15 19 14 11 25 5 0 1 6 0 15 0 0 0 0 0 0 0 0
879 743 664 280 201 247 334 174 106 9 0 0 4 0 0 4 15 28 43 32 29 80 109 62 9 7 2 2 1 1 5 3 20 5 0 1 0 0 0 0 0 0 0
217 370 432 347 109 33 1 2 5 4 3 5 19 19 11 1 5 8 7 13 24 19 38 33 128 93 46 37 2 14 11 9 20 14 2 11 11 9 0 0 0 0 0
18 15 18 0 0 0 0 10 6 1 3 4 3 2 5 2 14 14 17 30 31 14 43 3 6 16 0 0 0 0 0 7 17 35 25 11 0 0 0 0 0 0 0
0 0 0 0 0 1 2 1 3 2 3 3 3 3 3 3 3 1 0 38 44 50 18 40 1 0 0 0 0 0 0 0 5 4 0 0 0 0 0 0 0 0 0
0 5 0 1 17 8 2 2 3 5 5 5 5 6 4 3 2 4 6 5 0 31 113 127 109 87 10 5 13 0 0 1 0 0 0 0 0 0 0 0 0 0 0

GFSGL_con_sbcape_039.txt.gz
CAPE
1911 1747 1990 1760 1194 1673 1765 888 1785 1247 1544 1292 1985 1990 1950 2072 2269 2191 2038 2032 2376 2083 1603 1317 1024 667 108 64 80 56 32 0 0 0 22 62 70 64 17 18 26 5 0
2129 1903 1961 2179 1944 1383 1942 1999 920 2179 1376 2290 2362 2105 2232 2044 1965 2499 2105 2202 1898 2171 1819 1128 1099 809 420 268 641 45 27 89 0 0 163 291 101 0 0 0 32 39 3
2243 2302 2143 2105 2313 1764 1721 1830 2283 1340 2483 1604 2625 2359 2292 2343 2310 2140 2347 2194 1894 2211 2018 1391 973 967 663 323 417 514 266 27 402 72 149 347 326 214 249 166 42 4 3
2201 2408 2472 2415 2370 2479 2056 1801 1581 2359 2107 2929 1882 2572 2400 2395 2291 2408 2355 2397 2268 1796 2204 1942 1549 1198 987 653 352 297 282 342 137 248 27 16 117 486 111 153 187 250 148
2292 2541 2585 2595 2398 2379 2393 2442 2282 1774 2504 2237 2630 2337 2679 2389 2462 2327 2448 2418 2419 2405 1831 2375 2114 1728 1276 844 724 371 210 313 255 51 77 143 60 374 527 247 137 157 189
2083 2418 2680 2593 2580 2393 2449 2404 2671 2650 2106 2395 2411 2449 2699 2803 2646 2131 2372 2478 2486 2570 2560 1928 2513 2077 1597 947 744 698 563 159 136 365 40 40 78 90 229 280 235 69 120
1721 2223 2525 2688 2571 2624 2520 2701 2672 2871 2924 2590 2428 2722 2624 2755 2617 1522 1608 2505 2495 2633 2664 2586 2087 2441 2040 1998 581 596 455 559 143 76 256 115 44 78 161 168 72 11 8
1926 1960 2211 2588 2785 2698 2789 2677 2911 2930 3055 3158 3066 2815 3012 2923 2672 1321 837 2349 2568 2540 2835 2791 2689 2534 2458 2345 2216 1162 957 667 399 154 41 30 130 303 314 328 150 94 117
2216 2236 2270 2694 2751 2922 2871 3049 3026 3041 3122 3172 3367 3307 3211 3206 2426 1459 312 2010 2607 2649 2689 2765 2896 2814 2649 1801 2434 2051 1449 1114 622 281 255 253 670 808 573 318 200 144 83
2775 2947 2800 2789 2942 2886 3019 3038 3198 3292 3237 3279 3277 3496 3388 3413 3155 1049 317 2308 2598 2645 2615 2562 2303 2582 2703 1311 2061 2478 1958 1511 1113 745 60 58 602 288 362 259 96 48 42
2461 2666 3266 3374 3301 3259 3153 3267 3384 3513 3548 3525 3557 3553 3695 3557 3464 1831 165 2329 2896 2846 2693 2564 2493 2102 1030 1072 443 2604 2456 2042 1302 976 821 445 173 42 53 138 103 104 31
2703 2894 2888 3106 3132 3323 3432 3589 3731 3770 3800 3744 3773 3780 3722 3678 3398 2825 361 209 2798 3036 3108 2925 2585 2274 1520 421 0 1039 1480 1562 1852 1139 1113 678 220 50 24 27 59 7 17
2914 3026 3132 3347 3342 2702 3629 3607 4038 3984 4053 3999 3937 3934 3888 3769 3669 3525 2063 90 19 1554 3221 3235 3050 2685 1513 18 0 117 23 1258 2155 1875 1358 1022 297 109 23 1 0 3 2
3343 4218 3570 3730 4078 3318 3831 3813 3944 4125 4050 3983 3950 3924 3765 3591 3603 3589 2581 89 1 1 1202 1800 1931 1798 2185 926 86 0 58 1648 2209 2281 2097 1315 236 40 43 4 0 0 0
2723 4587 4195 4165 4109 3984 3445 3964 3795 3729 3851 3950 3934 3786 3717 3720 2486 349 405 1616 801 363 780 1471 2394 2478 2125 1968 798 702 84 527 1596 1996 2124 1532 103 54 75 41 4 2 0
3808 4379 4452 3988 3947 4103 4158 2572 0 80 0 1 7 2255 0 0 1 2 2 0 0 1 30 1045 1872 2394 2659 2518 2404 1905 563 482 1124 1664 1597 776 149 45 61 36 0 3 0
2002 3293 3151 3330 3498 3840 3876 3844 592 0 1 0 0 0 0 0 0 0 2 2 2 0 284 1378 1244 1684 2220 2503 2414 2169 1182 716 912 1349 1239 280 109 2 0 13 0 0 0
1210 917 1089 1457 1320 1540 1626 1429 1261 226 303 0 0 0 0 0 1 1 0 0 0 0 1 2 195 625 1181 1626 1818 1600 1246 861 747 1031 965 176 24 0 2 1 16 0 0
1475 670 423 337 428 386 249 220 156 39 0 0 0 0 0 0 0 2 0 0 0 0 0 0 0 0 0 1 9 325 713 795 683 700 595 37 1 0 3 3 1 0 0
54 379 282 254 342 308 216 69 9 2 0 0 0 0 0 0 0 0 0 0 0 0 0 0 1 1 1 1 1 2 12 155 266 278 265 128 1 1 1 0 0 0 0
262 63 104 82 43 19 0 0 0 0 0 0 0 0 0 0 0 0 0 0 0 0 0 0 0 0 0 0 0 2 2 2 7 28 60 1 2 1 4 1 0 0 0
173 60 9 0 0 0 0 0 0 0 0 0 0 0 0 0 0 0 0 0 0 0 0 0 1 0 0 1 1 1 1 1 1 1 1 1 1 1 1 0 0 0 0
0 0 0 0 0 0 0 0 0 0 0 0 0 0 0 0 1 0 0 0 5 0 0 0 0 0 3 1 0 0 0 0 0 0 0 1 0 0 0 0 0 0 0
0 0 0 0 0 0 0 1 1 0 1 1 1 1 0 1 2 4 1 0 0 0 2 0 0 0 0 0 0 0 0 0 0 0 0 0 0 0 0 0 0 0 0
0 0 0 0 0 0 1 1 1 1 2 3 3 3 2 2 3 2 1 0 1 0 0 0 0 0 0 0 0 0 0 0 0 0 0 0 0 0 0 0 0 0 0
0 0 0 0 0 0 0 1 0 2 2 3 2 2 2 1 2 1 1 0 0 0 0 0 0 0 0 0 0 0 0 0 0 0 0 0 0 0 0 0 0 0 0

GFSGL_con_sbcape_042.txt.gz
CAPE
951 1203 1038 687 604 1441 936 229 365 735 86 755 1171 1445 1728 1483 1226 1109 1348 1875 1372 1522 1459 994 630 420 263 20 0 0 0 0 0 0 0 0 0 0 0 0 0 0 0
1113 1293 1386 1249 828 628 1462 828 397 536 773 101 1267 1341 1671 1679 1463 1406 1325 1745 1992 1626 1563 1323 1109 769 498 125 0 36 0 0 0 0 0 196 10 0 0 0 0 0 0
1291 1320 1447 1538 1382 990 764 1581 1113 629 856 1032 1420 1449 1639 1640 1709 1729 1572 1575 1618 1825 1726 1460 1387 963 894 521 70 65 133 0 0 0 0 0 18 1 1 0 0 0 0
1601 1598 1458 1648 1776 1598 1138 949 1760 1369 636 1198 1692 1803 1803 1785 1682 1739 1984 1913 1696 1613 1691 1680 1501 1077 1121 727 284 124 61 168 0 26 0 14 39 90 2 3 27 7 3
1804 1824 1771 1601 1821 2015 1758 1361 1269 1619 1816 1015 1593 1837 2000 1952 2014 1905 1739 1829 2027 1904 1589 1906 1832 1418 1116 940 728 411 54 46 41 0 0 0 0 103 142 0 17 27 61
1827 1943 1952 2017 1886 1949 2146 1965 1552 1431 1337 1974 1762 1984 1969 2266 2211 1836 2011 2049 1929 1910 1917 1750 1728 1710 1211 669 467 692 352 172 124 59 97 20 31 0 80 86 50 1 14
1764 1854 2107 2117 2280 2193 2172 2219 2226 1964 1668 1287 1741 2091 2079 2247 2243 1308 1149 2055 2123 2089 2035 2006 2011 1933 1734 1764 380 159 222 162 325 66 21 57 11 3 0 46 81 21 40
1521 1992 2081 2392 2358 2397 2237 2198 2191 2310 2381 2144 1690 1809 2182 2143 2125 953 562 1853 2164 2150 2199 2191 2182 2213 1981 2041 2176 1369 634 618 227 122 217 55 23 9 1 8 41 49 2
1337 1448 2209 2347 2597 2463 2437 2292 2332 2376 2393 2570 2570 2363 2014 2140 1967 906 195 1514 2095 2395 2383 2304 2407 2441 2366 1374 2027 2273 1969 1402 968 204 270 232 5 1 0 0 28 8 7
1575 1654 1661 2324 2515 2624 2528 2546 2505 2522 2659 2625 2666 2805 2771 2661 2337 857 105 1953 2167 2308 2533 2606 2057 2221 2618 1548 1351 2152 2288 2325 1871 1494 377 26 3 0 0 49 78 40 34
1967 1765 1808 1811 2387 2553 2671 2653 2680 2762 2666 2709 2798 2806 2899 2836 2943 1034 41 2115 2582 2604 2597 2655 2670 2173 782 1067 464 2400 2451 2500 2295 1725 1461 1020 526 233 10 130 184 86 45
1855 2215 2208 2293 2242 2507 2538 2658 2722 2709 2910 2949 2871 2954 3001 2961 2872 1529 132 268 2641 2887 3030 2948 2840 2629 1697 394 0 618 1251 885 2143 2480 1826 1535 1241 533 216 170 194 79 74
2228 2275 2416 2498 2622 2656 2665 2652 2801 2893 2975 3122 3193 3226 3291 3296 3149 2599 658 0 38 1633 3073 3228 3164 2762 1650 21 0 10 0 747 1839 2308 2475 2103 1440 1188 416 216 217 126 66
1513 2877 2229 2415 2509 2378 2962 3023 3120 3279 3345 3350 3444 3498 3515 3441 3272 3114 752 12 1 1 281 1365 1668 1726 1399 1260 632 58 0 365 1199 1841 2192 2435 2214 1287 372 75 71 50 27
2208 2446 3127 2836 2472 2540 1445 1617 3189 3531 3650 3728 3690 3759 3751 3664 2944 1750 2040 1872 776 312 582 728 1099 1604 2172 2223 2203 1565 1142 83 157 755 1527 1968 2245 1795 294 22 0 1 12
1722 2208 3272 3294 2993 2896 442 1 1 0 28 1175 1967 2654 0 244 2 1 0 0 1 1 1 561 918 1110 1476 1870 2299 2479 2434 1490 956 742 1033 1335 1603 1906 400 1 1 0 0
976 703 1518 3195 3276 3392 2803 438 1 0 0 0 0 0 0 0 0 0 0 0 1 0 70 195 468 639 928 1244 1551 1845 2057 2244 2036 1051 1207 1233 1309 1393 574 23 0 1 0
740 585 807 1920 2312 2940 2836 474 0 0 0 0 0 0 0 0 0 0 2 0 0 0 0 0 0 0 0 1 1 2 2 3 8 196 685 811 960 940 773 120 1 1 0
704 612 423 284 260 456 604 562 391 111 0 0 0 0 0 1 1 1 0 0 0 0 0 0 0 0 0 0 1 0 0 1 1 2 4 27 247 327 291 220 16 0 0
38 334 303 197 98 33 48 8 0 0 0 0 0 0 0 0 0 0 0 0 0 0 0 0 0 0 0 1 1 4 5 3 1 2 3 4 21 0 1 1 0 0 0
19 0 0 0 0 0 0 0 0 0 0 0 0 0 0 0 0 0 0 0 0 0 0 0 0 1 1 1 1 1 0 1 1 2 1 1 1 1 0 0 1 1 1
0 0 0 0 0 0 0 0 0 0 0 0 0 0 0 1 1 1 1 1 1 0 0 0 0 1 1 2 1 1 1 0 0 0 0 0 0 0 0 1 1 1 0
0 0 0 0 0 0 0 0 0 0 0 0 0 0 0 1 2 2 1 0 2 3 3 3 2 1 0 0 0 0 0 0 0 0 0 0 0 1 0 0 0 0 0
0 0 0 0 0 0 0 0 1 0 1 2 1 1 1 2 1 2 1 1 0 0 1 2 0 0 0 0 0 0 0 0 0 0 0 0 0 0 0 0 0 0 0
0 0 0 0 0 0 0 1 1 2 2 2 1 1 1 1 1 2 0 0 0 0 0 0 0 0 0 0 0 0 0 0 0 0 0 0 0 0 0 0 0 0 0
0 0 0 0 0 0 0 1 1 1 1 1 2 1 1 1 1 1 1 0 1 1 1 1 1 0 0 0 0 0 0 0 0 0 0 0 0 0 0 0 0 0 0

GFSGL_con_sbcape_045.txt.gz
CAPE
433 380 404 425 411 404 378 156 204 0 101 609 577 856 970 983 878 867 1120 1172 934 1096 1087 799 420 177 243 30 0 0 0 0 0 0 0 0 0 0 0 11 0 0 0
484 519 520 572 680 826 627 243 144 455 0 233 690 798 1140 1174 992 938 915 1265 1417 1213 1263 1234 1123 802 315 67 0 0 0 0 0 0 0 0 0 0 0 0 0 0 0
340 618 613 544 455 674 1253 1052 286 147 276 127 376 825 986 1249 1254 1033 1028 995 1283 1560 1412 1337 1465 1211 1058 602 126 20 0 0 0 0 0 0 0 0 0 0 0 0 0
474 555 816 886 812 556 494 960 1202 599 371 419 465 723 985 1160 1328 1340 1291 1213 1170 1366 1614 1581 1564 1333 1389 1241 604 238 6 0 0 0 0 0 0 0 0 0 0 0 0
729 792 903 1126 1143 1063 788 586 915 1288 985 698 741 1051 1124 1168 1315 1375 1482 1462 1336 1292 1304 1433 1561 1566 1309 1327 1235 840 113 9 1 0 0 0 0 0 13 0 0 0 0
981 1012 1048 1096 1315 1361 1277 1088 732 1058 1444 1043 823 929 1328 1508 1626 1307 1430 1527 1609 1607 1542 1412 1511 1463 1194 754 700 1029 870 505 354 83 188 34 5 0 0 0 0 0 0
1353 1343 1361 1322 1347 1541 1636 1564 1256 1027 1091 1511 1480 1115 1201 1363 1549 1075 863 1629 1548 1526 1594 1604 1637 1639 1419 1627 561 84 85 120 592 1096 382 518 229 16 2 1 6 0 0
1592 1653 1671 1712 1617 1547 1717 1903 1817 1519 1344 1237 1235 1565 1628 1642 1580 507 486 1434 1872 1840 1760 1712 1716 1756 1734 1587 1655 1597 638 641 328 97 746 1155 649 230 0 1 0 0 0
1461 1701 1828 1889 1934 1978 1878 1891 2000 2063 1951 1713 1550 1237 1227 1638 1373 867 86 1204 1709 1922 1959 1914 1970 1980 1915 1390 1556 1836 1881 1864 1157 420 143 317 280 172 43 0 0 0 0
1371 1653 1758 1933 2085 2110 2222 2141 2089 2123 2174 2254 2272 2138 1670 1476 1526 422 27 1571 1785 1876 2026 2148 1830 1845 2104 1560 1159 1820 1956 2052 2061 1946 1113 92 21 27 0 0 169 3 0
1068 1104 1573 1969 2167 2277 2216 2231 2197 2174 2235 2240 2262 2321 2369 2083 2091 583 3 1564 1973 2053 2130 2247 2325 2167 1051 833 513 2240 2359 2374 2341 1955 2233 2184 1814 1123 705 59 0 110 70
1390 1207 1281 1524 2089 2238 2381 2316 2316 2343 2321 2349 2389 2421 2448 2512 2222 1144 30 82 1973 2300 2475 2572 2577 2480 1714 419 0 434 935 577 1909 2312 2480 2605 2559 2008 1279 688 115 19 51
1666 1645 1465 1543 1582 2044 2323 2440 2418 2384 2505 2535 2541 2528 2530 2548 2504 2083 448 0 5 1346 2684 2957 2979 2621 1507 23 0 0 0 104 792 1504 2047 2305 2433 2519 2106 1318 314 75 3
1997 1830 1852 2125 2058 1969 2219 2278 2404 2534 2548 2589 2673 2819 2783 2708 2874 2360 355 43 7 1 372 1311 1383 1492 1616 1631 857 302 0 2 422 1005 1503 1804 1951 2099 2265 1823 906 264 119
1672 1758 2110 2079 1637 2030 980 1292 2216 2548 2443 2757 2838 2937 2991 3016 3040 3128 3109 1918 1162 851 1027 733 1062 1368 1631 1830 1938 1804 1628 669 122 276 526 911 1223 1439 1719 1927 1384 672 383
1135 1046 946 2223 2281 1589 14 1 0 1 2 146 1131 3214 11 421 841 357 160 204 460 148 387 851 906 807 929 1003 1118 1293 1489 1463 1265 1034 959 1088 1026 1035 1050 1065 1064 926 367
563 824 563 753 2523 1899 365 59 0 0 0 0 0 14 12 0 1 2 2 2 2 0 464 215 241 35 9 0 0 0 0 0 0 1 1 2 4 14 90 317 820 367 317
164 561 412 838 1948 2719 1250 72 0 0 0 0 0 0 0 0 0 0 0 0 0 0 0 0 0 0 0 0 0 0 1 0 0 0 0 2 4 3 3 8 30 132 146
79 279 186 115 220 1357 816 26 0 0 0 0 0 0 1 1 1 0 0 0 0 0 0 0 0 0 0 0 0 0 1 0 0 0 1 2 3 3 1 1 0 1 0
9 104 90 75 84 199 214 83 0 0 0 0 0 0 0 0 0 0 0 0 0 0 0 0 0 0 0 1 1 1 0 2 3 1 1 2 1 0 0 0 0 0 0
0 0 0 0 0 0 0 0 0 0 0 1 1 0 1 0 1 1 1 1 1 0 0 1 1 0 0 0 1 1 0 1 2 2 1 1 0 0 0 0 0 1 1
0 0 0 0 0 0 0 0 1 1 1 1 1 1 0 0 1 1 1 2 2 3 4 2 2 3 3 3 3 2 2 1 1 1 1 0 0 0 0 0 1 0 0
0 0 0 0 0 0 0 0 0 0 1 0 1 1 1 1 1 1 2 1 1 2 3 2 1 0 0 0 1 2 2 3 1 1 1 0 0 0 0 0 1 0 0
0 0 0 0 0 0 0 0 0 0 0 0 0 0 1 2 2 2 0 2 1 1 3 2 1 0 0 0 0 0 0 0 0 0 0 0 0 0 0 0 0 0 0
0 0 0 0 0 0 0 0 0 1 1 0 1 1 0 0 1 1 1 1 2 2 2 2 1 0 0 0 1 0 0 0 0 0 0 0 0 0 0 0 0 0 0
0 1 1 0 0 1 1 1 1 1 1 1 1 1 1 1 1 1 1 1 1 1 1 1 1 0 0 0 0 0 0 1 0 0 0 0 0 0 0 0 0 0 0

GFSGL_con_sbcape_048.txt.gz
CAPE
42 55 72 66 41 44 17 8 0 0 0 180 315 486 671 944 1089 1104 1193 1122 974 1125 1146 935 695 360 516 204 0 1 0 0 0 11 0 0 37 62 91 183 99 54 12
108 131 149 161 166 152 150 74 40 0 0 211 435 539 781 883 1011 1112 1255 1489 1336 1284 1306 1288 1393 917 689 487 174 63 1 0 0 64 0 0 38 62 60 51 47 0 0
222 222 208 253 300 301 300 273 196 233 12 61 398 614 758 1071 1170 1106 1228 1329 1582 1668 1610 1602 1686 1485 1567 1120 740 429 31 1 0 0 73 0 0 0 35 0 41 82 8
271 419 377 383 414 479 519 523 260 251 394 238 245 548 762 960 1258 1343 1307 1315 1308 1510 1687 1724 1732 1767 1781 1782 1346 1249 1011 375 30 15 20 0 0 29 0 88 134 0 28
285 506 556 515 491 518 687 973 957 370 301 453 443 486 760 979 1144 1435 1526 1492 1481 1471 1533 1699 1816 1699 1452 1579 1774 1673 1351 1017 1035 609 602 486 53 63 77 212 24 187 181
338 428 621 670 636 565 459 470 923 1137 878 724 624 702 713 837 832 870 1277 1633 1659 1613 1590 1569 1671 1272 1151 847 638 1050 1510 1234 1205 1019 954 1044 961 685 416 121 114 122 236
509 504 605 797 932 918 850 679 568 710 1144 1144 993 923 1030 1194 907 423 451 1518 1674 1748 1771 1773 1729 1641 1282 1771 810 248 202 163 736 1758 1487 1324 1257 1256 855 366 98 288 323
704 779 864 949 1097 1169 1212 1185 1062 831 812 1227 1332 1122 975 1036 885 190 158 1210 1658 1773 1777 1850 1899 1970 1906 1778 1917 1993 1689 1313 591 405 1094 1692 1961 1959 1542 874 596 332 253
1050 1092 1158 1208 1205 1307 1461 1521 1490 1376 1196 1075 1213 1500 1542 1361 702 172 0 1188 1622 1798 1952 1980 1955 2017 1872 1202 1786 2048 2144 2131 1657 622 307 434 290 184 240 965 310 0 12
1390 1449 1530 1555 1522 1471 1489 1630 1781 1839 1735 1615 1578 1481 1300 1591 1388 147 4 1312 1543 1742 1969 2063 1553 1697 1941 1294 1317 2120 2265 2398 2464 2516 2072 271 65 96 1 9 383 575 148
1380 1598 1707 1785 1809 1814 1788 1788 1859 1983 2098 2157 2135 2046 1948 1433 1512 448 0 1421 1869 1988 2002 2043 2193 1835 925 550 284 2123 2272 2282 2340 1931 2240 2327 2415 2119 1351 817 208 234 569
1088 1412 1684 1793 1976 2028 2093 2225 2227 2163 2204 2257 2281 2351 2422 2445 1581 1017 11 40 1471 1960 2185 2302 2384 2078 1555 459 0 128 625 326 1337 1935 2216 2428 2534 2655 2734 2281 1585 936 801
945 1122 1344 1779 1969 2224 2292 2265 2338 2351 2365 2385 2428 2473 2520 2512 2537 1178 254 0 1 858 2227 2368 2382 2268 1872 44 0 0 0 0 195 811 1371 1831 2100 2214 2214 2201 2316 1748 999
1608 1405 1237 1285 1613 2117 2342 2419 2435 2498 2545 2573 2551 2567 2563 2609 2706 2494 929 147 1 1 30 897 1190 1363 1444 1512 951 371 1 5 259 773 1277 1684 1908 1682 1675 1755 1909 1887 1621
1505 1823 1939 1910 1483 1759 1343 1377 2435 2575 2187 2610 2668 2729 2867 2876 2773 2776 2465 2191 1951 1402 1046 1040 1173 1450 1718 1788 1815 1704 1715 1162 467 559 647 741 872 781 781 958 900 856 728
1054 1066 888 2060 1589 1962 62 0 0 1 2 2 336 2629 451 859 2298 2539 2199 1614 1318 1201 864 1503 1448 1330 1108 856 679 369 188 0 3 3 2 3 4 4 7 8 12 36 14
302 429 615 423 2271 1264 518 373 22 0 0 2 3 34 823 658 4 3 2 2 2 49 1245 715 569 214 5 0 1 1 2 2 5 6 3 1 4 8 10 6 4 4 6
112 174 299 460 1073 2141 873 587 3 36 142 0 0 0 0 1 1 2 2 0 0 0 0 0 0 0 1 0 1 0 2 4 5 9 8 7 1 5 6 6 7 10 7
30 331 230 207 313 1877 638 25 1 0 0 0 1 0 0 0 0 0 0 0 0 0 0 0 1 2 1 2 3 2 4 6 4 8 5 1 4 2 7 7 5 3 2
25 0 61 130 292 554 316 33 0 0 1 0 0 0 0 0 0 0 0 0 0 0 2 2 3 3 3 1 1 4 9 3 3 5 6 13 9 12 8 9 5 6 6
2 0 0 0 1 2 0 0 1 1 3 1 1 0 0 1 1 1 1 1 2 2 3 4 4 3 3 8 4 11 12 6 13 11 15 10 8 4 10 8 3 11 4
0 0 0 0 0 0 1 0 0 2 2 1 1 0 0 1 1 1 2 2 3 3 3 2 1 1 0 1 1 1 2 2 4 5 4 6 1 2 8 6 5 0 3
0 0 0 1 1 0 1 1 1 1 1 1 0 0 0 1 1 2 3 3 3 4 4 3 1 0 0 0 0 0 0 0 0 0 4 6 2 4 5 1 1 1 1
0 0 0 2 1 1 0 1 0 0 0 0 0 0 1 2 3 3 3 3 3 3 3 4 5 1 4 3 1 0 0 0 0 0 0 3 6 1 0 0 1 0 0
0 1 1 2 1 1 1 0 0 0 0 0 0 1 2 2 2 3 3 2 2 3 3 2 1 0 1 0 0 0 0 0 0 0 0 0 0 0 0 0 0 0 0
1 0 1 1 1 1 1 1 1 1 1 1 1 1 0 1 1 1 1 1 0 0 0 0 0 0 0 0 0 0 0 1 0 0 0 0 0 0 0 0 1 0 0

GFSGL_con_sbcape_051.txt.gz
CAPE
883 932 1083 955 838 818 962 1147 1481 1093 1110 1319 1616 1732 1880 1999 2127 2374 2297 2240 2570 2585 2414 2408 2498 2390 1837 1420 1108 893 757 630 635 605 698 652 935 1147 945 827 756 860 630
976 1033 1031 1227 1144 922 1278 1048 1384 1617 1178 1343 1585 1801 1824 1815 1941 2171 2100 1746 2352 2660 2673 2562 2432 2271 2454 2310 1824 1754 1435 1198 843 1688 1214 913 1384 1320 1350 1311 934 421 524
996 736 981 1161 1067 1327 1413 1281 1465 1369 1387 1139 1281 1846 1880 1825 1884 1982 2051 2156 2239 2399 2734 2775 2673 2568 2655 2367 2571 2259 2016 1773 1346 1032 1094 938 963 824 1043 1362 1028 1221 643
801 871 1216 1301 1337 1313 1579 1687 1313 1766 1685 1415 1502 1846 1845 1873 1920 2017 2095 2239 2372 2344 2611 2798 2818 2829 2876 2933 2864 2859 2683 2515 2433 2028 1792 1664 1575 1676 1045 902 870 842 777
1240 1224 1322 1465 1533 1624 1760 1860 1745 1853 1860 1913 1686 1698 1662 1594 1449 1881 2081 2251 2418 2510 2547 2709 2726 2571 2245 2504 2719 3478 3196 2600 2271 1948 1809 1697 1665 1642 1787 1477 1371 1375 1502
1440 1451 1579 1708 1748 1815 1917 2037 2122 1916 1880 2212 2004 1807 1683 1381 787 861 1642 2185 2537 2620 2625 2668 2748 2004 1756 1114 776 1067 1935 3444 2838 2544 2300 2386 3423 2695 2358 2212 2078 1906 2224
1607 1712 1926 1965 1944 1981 2063 2225 2349 2318 1986 2177 1857 1859 2136 2258 984 401 504 1910 2420 2667 2869 2738 2516 2092 2000 2524 1690 311 207 164 819 2951 3475 3529 3692 3712 3676 3102 3230 2801 2488
1748 1828 2053 2135 2092 2142 2158 2215 2351 2201 2504 2314 2099 2301 2352 2322 1333 221 1 1386 2524 2941 2990 2843 3018 3137 2913 2575 2784 2840 2967 3016 2306 1571 2146 2892 3457 3766 3815 3711 3744 2941 2093
1837 1917 2009 2154 2224 2304 2311 2302 2160 1958 1984 2247 2243 2354 2493 2550 1062 390 5 1705 2048 2845 2948 2897 3081 3161 2612 2101 2544 2965 3361 3366 2342 1979 1656 1401 996 486 631 1805 1691 1688 1280
1967 2040 2061 2124 2293 2457 2539 2643 2674 2358 2247 1798 1894 2485 2144 2732 1733 54 2 1582 2146 1964 2753 3054 1947 1891 2227 1634 2210 2606 3299 2937 2921 3268 3498 1116 209 905 49 16 808 935 1567
1802 1782 2126 2425 2515 2649 2875 3017 2688 2599 2724 2538 2430 2746 2526 2311 2703 403 0 1655 1907 2098 2067 2066 2205 1449 1273 648 453 2935 3140 3052 3034 3356 3266 2890 2994 3138 3008 2470 891 731 1365
2672 2625 2825 2869 2278 2219 3045 2884 2766 3030 2989 3026 2914 2802 2680 2689 1708 1178 0 52 1925 2606 2731 2731 2977 2205 1581 489 1 464 696 588 1893 2073 2230 2370 2423 2400 2692 2848 3230 2795 1923
2985 3177 3008 2944 2842 3300 3003 3052 2689 3046 2767 2879 2899 2931 2949 3013 3158 968 57 0 0 1377 2603 2600 2358 2022 1613 461 13 17 0 29 501 939 1133 1402 1722 2245 2844 2611 2652 2974 3148
2521 2855 2945 2868 2970 3134 2812 2861 2879 2933 2945 2940 3064 3096 3119 3217 3288 3366 2039 595 69 68 268 1468 2005 1722 1985 2324 1670 179 0 7 184 612 1053 1553 1872 2067 1426 910 664 628 566
2246 2161 2354 2406 2478 2872 3045 2564 2941 3404 2738 3146 3216 3287 3346 3425 3419 3154 3306 3333 2915 1966 1664 2104 2250 2388 2472 2500 2403 2095 1951 1144 776 1290 1400 1212 746 370 301 234 146 132 138
2285 2575 2463 2253 1674 2201 2884 941 0 0 2 3 434 2354 3356 1846 2336 2696 2523 2702 2184 1064 1788 2647 2822 2193 2144 2212 1967 1538 844 378 877 223 30 29 9 8 28 15 20 58 81
841 1236 1205 2515 3559 2880 2923 2178 1923 0 1 2 2 10 1162 2436 1054 842 139 40 15 241 2260 2219 2369 2070 1624 493 270 411 711 324 99 98 34 2 5 3 3 3 7 29 0
892 263 1226 1569 2413 2727 2299 2186 2435 2244 1999 542 0 0 3 3 3 3 2 56 181 345 1485 1605 635 38 28 161 385 235 109 38 3 6 8 6 9 3 8 7 7 5 4
789 899 1388 1796 1689 2315 1876 1333 1657 1995 2104 1 0 0 1 2 1 0 0 1588 1361 69 0 0 0 30 148 51 12 5 7 5 6 7 5 7 6 11 8 13 13 5 0
500 281 227 1576 1456 1366 848 703 1193 1506 933 674 436 14 0 0 133 0 0 0 0 2 3 4 6 9 11 11 8 15 16 11 12 12 16 17 24 23 7 13 10 22 10
19 786 0 1122 1329 861 356 167 385 613 449 248 67 0 0 1 6 4 3 2 3 3 6 7 7 4 3 3 4 21 17 19 19 25 27 23 30 28 28 23 17 16 20
0 298 715 840 894 463 216 1 1 1 4 5 4 1 0 1 2 2 2 2 3 4 4 3 1 1 1 0 0 0 0 0 0 1 3 14 18 15 16 10 6 16 9
0 278 483 539 472 12 44 1 1 2 3 2 1 0 0 0 1 1 2 2 2 2 3 1 0 0 0 0 0 0 0 0 0 0 0 6 22 5 1 6 2 8 10
4 115 328 238 5 15 3 3 1 0 0 0 0 0 1 2 3 5 4 4 4 3 3 2 1 0 0 0 0 0 0 0 0 0 0 0 6 11 7 9 6 0 3
3 2 5 5 6 2 2 1 0 0 0 0 0 1 1 3 3 2 2 2 2 1 1 0 0 0 0 0 0 0 0 0 0 0 0 0 0 4 40 78 49 9 7
1 1 1 1 2 2 1 1 1 0 1 0 1 1 1 2 3 3 1 0 0 0 0 0 0 0 0 0 0 0 0 0 0 0 0 0 0 0 2 29 54 84 107

GFSGL_con_sbcape_054.txt.gz
CAPE
1713 1855 1815 1557 1543 1598 1609 1686 1860 1745 1598 1840 1443 1324 1332 2032 2236 2527 2323 1999 2719 2805 2462 2209 2790 2833 1974 1160 1072 1033 923 853 816 587 494 718 1678 1943 1634 1489 1287 1334 931
1806 2303 2039 1999 2136 1537 1806 1743 1891 2036 1852 2000 1879 1676 1481 1745 2244 2561 2438 1748 2229 2552 2765 2759 2655 2249 2980 2818 1786 2006 1671 1780 1068 2518 1605 808 1831 2123 1896 2005 1720 1202 877
1657 1318 1465 1640 1693 2083 2065 1798 2264 2068 2110 1890 1964 2008 1816 1702 2145 2488 2555 2281 2099 2322 2538 2786 2777 2822 2859 2419 2308 1996 1928 2132 2403 2059 1910 1482 1422 1588 2076 2916 2851 2293 1483
1190 1204 1793 1733 1943 1642 2490 2600 1989 2491 2303 2203 2187 2128 2028 1744 1668 2087 2251 2403 2313 2313 2545 2630 2950 3150 3269 3407 3374 3289 3204 3025 2831 2364 1950 1622 1408 1817 1666 1781 1948 1766 1644
2007 1303 1918 2499 2357 2522 2832 2882 2522 2678 2403 2339 2330 2297 2155 1883 1349 1933 1982 2053 2359 2442 2445 2792 2918 2861 2687 2980 3290 4365 4637 3382 2404 1906 1693 1615 1612 1689 2297 2043 2353 2360 2610
2480 2211 2497 3033 2958 3031 3195 3335 3357 2964 2859 2836 2331 2397 2309 1819 917 735 1230 1805 2088 2498 2634 2751 2879 2356 2347 2082 1744 1666 1921 3779 4600 3089 2321 2379 4340 3599 2760 2722 2551 2840 3319
2809 2718 2937 3208 3248 3326 3356 3522 3447 3442 3020 3289 2516 2573 2997 2769 1191 400 380 1493 1767 2534 3272 2738 2525 2030 2449 2938 1377 930 761 680 672 2661 3637 3844 4287 4474 4953 4982 4156 4178 4281
3160 3001 3131 3359 3374 3521 3561 3626 3740 3143 3331 3155 2852 3299 3341 3097 1609 571 28 1631 2355 2703 2928 2838 3460 3227 2731 2233 2602 2760 2893 3153 2640 2113 2648 2896 3058 3215 4136 4247 4356 3701 3657
3176 3210 3310 3397 3423 3277 3350 3426 3186 3262 3093 3081 2910 3235 3278 3548 1353 750 98 1755 1845 2887 2899 3182 3438 3570 2839 2340 2800 3272 3245 3174 1879 1789 1978 2076 1961 1725 1424 2599 2792 3061 3254
3039 3133 3308 3343 3499 3483 3479 3748 3763 3138 3210 2819 2876 3260 2690 3369 2436 267 200 1858 2354 1971 3056 3668 2210 2167 2468 1943 2798 2858 3418 2579 2357 2776 2912 2471 607 1069 725 1130 2865 2694 2936
2292 2351 2985 3432 3705 3670 3983 3942 3829 3220 3314 3397 3102 3539 3832 3151 3320 523 0 2278 1917 1931 1815 1613 1806 1082 1448 1082 951 3066 3041 2529 2641 3433 3955 4001 4012 3825 3807 4085 3546 2639 2558
2867 2823 3442 3586 2796 2714 4029 3548 3412 3586 3676 3872 3580 3206 2864 3067 2282 844 0 185 1869 2396 2268 1717 2317 1894 676 301 42 942 1353 1167 2432 2911 3342 3687 3492 3484 3356 3102 3608 3817 3541
3171 3473 2887 2912 2864 3698 3727 3437 3262 3497 3266 3189 3171 3116 2977 2999 3352 1734 4 0 25 1470 2497 2469 1772 1367 1073 525 110 588 108 1962 2666 3039 2866 2967 2958 2472 3041 3081 3109 4060 3451
2905 3008 3071 3149 3081 2913 3033 3190 3109 3102 3157 3055 3163 3149 3172 3243 3418 3699 2368 330 44 176 932 1836 2451 2149 1983 2043 2489 1182 2245 2986 2920 2638 1614 1447 2329 2610 2743 1873 842 656 563
2934 3012 3213 3234 3162 3345 3454 2622 3242 3627 1721 3294 3203 3361 3467 3552 3577 3463 3679 4021 3332 2205 2368 2793 2943 2927 3080 3356 3563 3426 3603 2963 1309 1060 1694 2204 2695 2140 802 497 524 511 501
2673 2684 2762 2834 3128 3204 3381 2501 0 1 3 71 53 1253 3614 2241 2644 2774 3028 2818 1764 2103 2666 3380 3204 3288 3369 3184 3292 3286 2858 2063 2305 2131 2388 1656 1031 595 480 404 326 323 371
2345 3043 3058 2539 2824 3095 2837 2927 1970 81 2 3 3 24 32 209 1154 2005 1513 68 230 1794 3826 3530 3819 4060 3538 2974 2723 2280 2320 1563 1955 1420 1052 811 469 412 256 264 178 400 366
1436 846 2469 2130 1427 1191 1246 1042 890 1255 3023 3042 120 0 1 17 38 234 2 219 559 249 2983 3181 2913 2145 1481 1273 1128 1297 1267 1390 1125 726 500 393 419 367 168 56 336 411 231
1227 1362 1899 1708 1423 1769 2480 2199 1392 2514 3271 3206 908 0 0 2 2 2 2 3736 3701 2166 1035 914 986 890 768 637 930 1178 924 680 352 349 341 221 193 126 64 4 258 2 0
623 293 624 1890 1914 2073 2182 2250 2693 3483 3493 2813 2057 1131 3 3 230 77 142 1367 2152 1264 545 360 165 278 209 236 330 413 363 210 165 110 79 41 27 53 75 53 14 7 29
80 507 265 1258 1719 1583 1383 1171 1480 2319 3140 2917 2157 35 2 1194 1217 691 320 275 286 338 373 61 41 4 9 14 117 208 139 34 3 1 2 3 6 16 70 40 27 7 10
0 66 565 873 1252 1220 957 538 454 1386 690 2 1 0 0 173 38 3 3 2 3 2 4 3 1 1 1 1 0 1 2 5 7 6 5 6 12 8 8 4 10 8 8
0 0 76 490 1050 292 799 600 361 260 358 126 52 41 0 0 0 1 1 0 0 0 0 0 0 0 0 0 0 0 0 0 0 0 0 0 11 4 10 17 34 21 13
0 4 153 329 339 513 613 391 147 1 2 1 1 0 0 0 0 1 0 0 0 0 0 0 0 0 0 0 0 0 0 0 0 0 0 0 1 14 14 28 90 42 30
1 11 8 4 4 3 3 3 4 2 2 3 1 0 0 0 0 0 0 0 0 0 0 0 0 0 0 0 0 0 0 0 0 0 0 0 0 2 12 40 55 49 48
2 1 1 1 1 0 0 1 1 1 1 1 1 2 1 1 1 1 0 0 0 0 0 0 0 0 0 0 0 0 0 0 0 0 0 0 2 1 2 0 16 72 90

GFSGL_con_sbcape_057.txt.gz
CAPE
2428 2604 2323 2367 2248 2316 2995 3125 3334 2862 3267 3041 2668 2304 2271 2357 2785 3881 3639 2641 2746 3285 3005 2531 3519 3844 2112 1320 960 844 815 790 754 710 617 1360 2715 3289 2664 2422 1773 2260 1477
2270 2768 2484 2676 2249 2098 2314 2909 3319 3400 3029 3488 3141 2931 2432 2099 2970 3568 2624 2300 2691 2782 2926 3505 2553 2232 3997 3922 2319 3596 1923 2367 1172 2675 1751 1601 2871 2961 3191 3513 1987 1742 1883
2085 2004 2481 2485 2495 2250 2850 2700 3127 3476 3721 2432 3266 3532 3039 2417 3145 3457 3639 3268 2975 3032 2988 3319 3228 3529 4145 2836 3631 2216 1623 2341 2355 2163 2299 2148 2239 2116 2623 3450 3612 3134 2269
1301 1554 2219 2591 2622 2515 2976 3141 3237 3531 3722 3615 3693 3655 3370 2961 2772 2733 3208 3399 3353 2821 3163 3288 3382 3700 4176 4536 3838 4493 3716 3315 2543 2330 2352 2414 2464 2846 2405 2283 2596 2660 2687
1932 1835 2149 2670 2840 3074 2873 3348 3317 3566 3654 3841 3954 3817 3673 2856 2078 2842 3170 3324 3636 3308 3274 3432 3307 3292 2612 3646 3240 4051 4127 3745 2712 2795 2570 2245 2041 2089 2778 2592 2717 3206 3627
2424 2123 2277 2927 3115 3084 3043 3317 3600 3703 3842 3976 3885 3911 3801 2191 1417 1105 1968 2736 3338 3583 3691 3682 3738 2450 2222 2025 2083 2227 2247 3927 4722 3208 2608 2514 3618 3493 3140 2999 3386 3224 3534
2865 2842 2791 3099 3214 3232 3276 3531 3730 3837 3964 4176 4061 3980 4029 3906 1525 573 431 2212 2916 3302 3632 3798 3280 1881 2637 3722 2074 1827 1633 1179 817 2941 3416 3548 3716 4121 4589 4651 3437 3933 4536
3121 3526 3074 3532 3438 3563 3711 3764 3952 3985 4002 4124 4168 4208 4201 3964 2347 539 11 2153 2289 2855 3517 3678 3987 3719 3716 3463 3988 3768 3524 3696 3466 2347 2718 3308 3978 4226 4454 4089 4193 4191 4322
3697 3393 3606 3494 3839 3903 3903 3970 4098 4127 4138 4095 4170 4312 4379 4263 1954 950 18 2021 2166 2922 3123 3202 3577 4082 3479 2670 3323 3554 3901 4082 2295 1566 1825 2700 2718 2180 1474 1831 2628 3729 3764
3627 3525 3828 3732 4025 4052 4123 4240 4279 4208 4179 3612 3926 4310 3995 4506 3188 369 214 2253 2449 2153 3218 3586 2497 2265 2705 2431 3286 3714 3880 4056 3820 3370 3312 2618 944 1426 641 1154 3594 3491 3781
3509 3738 4120 4036 4173 4293 4450 4439 4451 4387 3724 4296 4167 4267 4393 4051 4298 1171 0 2811 2145 2237 2125 1926 2239 1684 1563 1212 819 3486 3530 3632 3208 3092 2920 3581 3847 4320 4166 3478 4192 4243 3863
3695 3892 4138 4295 3696 3648 4488 4483 4478 4474 4495 4703 4540 4367 3599 4540 3220 731 0 280 2339 2625 2264 1248 1736 1039 357 309 38 870 1312 1383 2161 2520 2987 3416 3837 4179 3922 3997 4337 4443 4501
4059 4115 4171 4252 4226 4238 4424 4590 4076 4442 3503 3546 3409 3165 2928 2841 3550 1945 0 0 243 1762 2478 1381 1280 1576 178 0 0 661 774 2043 2588 2981 3458 3707 3676 3816 2933 2637 4320 4540 4665
4219 4253 4288 4192 4197 4189 3790 3755 3442 3258 3264 3111 3051 2922 2733 2548 2234 2708 1567 112 22 248 1436 1979 2173 1916 1243 2217 2612 592 2015 3063 3357 3658 3962 3701 3166 2458 3147 3178 3089 1207 732
3992 3807 3934 3504 3436 3948 3774 3369 3344 3638 2491 3200 2716 2450 2204 2742 2739 2858 3149 3428 2663 2028 2380 2685 2552 2589 2912 3296 3799 3877 4029 4042 3862 3691 3447 2714 2955 3111 3459 2321 1053 788 701
3222 3394 3136 3077 3471 3469 3429 2267 0 297 316 480 125 1215 2857 1001 1353 664 2494 2733 2376 2232 2255 3015 3269 3384 3566 3612 3832 4008 4007 3781 4129 3152 2599 2861 3108 2646 1872 1067 746 641 634
3351 3409 3407 2825 3433 3890 3759 3110 2707 109 1 2 2 442 5 596 1074 5 3 203 1231 1215 3623 3643 3645 3885 3770 3868 3900 3787 3592 3343 3043 2950 2961 2748 2138 1637 752 682 615 512 713
2397 1899 3512 3247 3190 3551 3523 3451 3191 2826 2261 2634 14 96 2 0 2 104 3 728 2620 2262 3855 3660 4302 4035 4460 4273 3840 3502 2954 2771 2686 2297 2102 1759 1355 899 721 721 468 530 738
593 1266 1655 2659 2812 2319 2229 1663 1140 1098 1461 1360 791 25 0 0 0 2 24 3045 3511 3699 3445 3762 3695 3582 3274 2323 1957 1586 1915 1652 1512 1947 1397 1042 716 599 575 416 304 84 46
385 219 627 1856 1280 1418 1222 1374 1013 1059 836 29 46 1319 10 56 1176 2077 1494 2813 3818 3555 2337 2573 2453 1709 1563 1315 1473 1569 1129 732 812 644 602 502 327 225 313 286 240 182 174
0 699 308 1610 2082 1310 1595 1137 1429 1958 2252 2611 2285 84 40 1199 1892 1600 237 73 8 914 1541 1674 1043 759 414 510 811 1050 587 787 422 207 69 151 45 29 234 210 426 110 6
0 0 187 1295 1235 1644 1696 1638 1930 2237 2299 1502 584 22 30 135 314 0 0 0 0 0 14 223 131 30 10 0 0 42 31 176 255 161 132 144 110 23 3 3 21 84 125
0 0 0 629 986 531 1014 1006 975 1050 1287 1135 611 307 105 9 150 22 0 1 2 0 0 0 0 0 0 0 0 0 0 0 0 0 0 0 1 11 6 6 43 89 78
0 0 6 288 467 277 67 310 177 0 4 25 33 241 117 8 3 4 1 1 1 0 0 0 0 0 0 0 0 0 0 0 0 0 0 0 0 1 10 25 25 25 68
0 14 0 0 0 7 4 0 0 0 2 0 0 0 0 0 0 0 1 2 1 2 3 2 0 0 0 0 0 0 0 0 0 0 0 0 0 0 6 19 27 25 32
2 2 1 0 1 0 0 0 0 0 0 0 0 1 0 0 0 0 0 0 0 0 0 0 0 0 0 0 0 0 0 0 0 0 0 0 1 0 0 0 0 1 15

GFSGL_con_sbcape_060.txt.gz
CAPE
2311 1979 1904 1572 1194 1126 1603 940 2342 2002 3990 3306 3733 3274 3062 3062 3650 3645 3077 3174 3116 3141 3463 3570 3235 3060 3103 2994 2757 1960 1818 2187 1759 1583 2207 1840 2884 2909 2343 2276 2524 2128 1801
2327 2144 2053 1996 1443 1339 797 1924 2188 2620 2608 3728 3292 3877 2998 3074 3135 3235 3240 2037 3053 3151 3465 3228 3516 3302 3996 3608 3090 3100 3315 3556 2733 2294 2247 1777 1766 1937 2812 3230 2965 1936 1594
2312 2133 2191 2127 2049 1669 1244 1024 2160 2296 3151 2567 3370 3047 3292 2801 2820 2963 3249 2963 2864 3336 3277 3414 3237 3513 3689 3664 3726 2929 2418 2672 2416 2319 2163 2843 2847 2705 2289 2853 3321 2828 2462
1975 2067 2061 2068 2018 1855 2006 1147 2235 2461 2269 2679 2769 3190 3068 2793 2480 2555 3251 3180 3006 2795 3297 2949 3414 3592 3564 3932 3558 3471 3438 3442 3009 3009 2449 2251 2411 2577 3249 2806 2457 2478 2070
1591 1783 2111 2264 2075 2108 1857 1966 1281 2039 2489 2755 2854 3078 3133 2974 2460 2315 2561 3062 3181 3052 2903 3206 3151 3281 2944 3429 3376 3658 3649 3620 3324 3171 2954 2985 2472 2384 2492 2509 2859 2946 2734
1669 1763 1937 2275 2242 2317 1987 2223 2267 2157 2438 2815 2966 3054 3209 2930 2164 1509 2007 2335 3209 3096 3020 2966 3480 2229 2069 1985 1679 1967 2465 3312 3154 3415 3349 3061 2766 2802 2936 2588 2704 2790 2625
2094 1962 2022 2384 2457 2291 2524 2126 2735 2436 2731 2795 2941 3109 3215 3222 2038 901 949 2127 2382 2856 3081 3004 3043 2476 2378 2986 2003 1007 1045 1271 1199 2278 2554 2610 2568 2499 2731 3242 3165 3221 3251
2262 2513 2305 2277 2391 2554 2496 2715 2457 2852 2717 2958 3006 3074 3204 3247 2775 953 80 1514 2166 2551 2654 2885 3159 2883 2698 3179 3128 3134 2705 2538 2170 1387 1542 2182 2517 2833 3297 3367 3387 3406 2673
3015 2458 2803 2248 2564 2558 2653 2583 2704 2742 2945 2952 3081 3206 3214 3237 2614 1852 16 921 1625 1980 2080 2596 3255 3106 2706 2409 2161 2592 2907 3229 3102 2785 3027 3058 2533 2303 2358 2358 2400 1714 2333
2424 3063 2681 2724 2625 2773 2722 2769 2829 2910 2938 3050 3044 3185 3230 3415 2896 951 98 1767 1631 1847 2207 2449 1984 1777 2052 1942 2026 2899 2806 2755 2867 3028 3109 2750 1136 828 726 19 1453 2646 3558
2836 2560 3400 3444 2813 3201 3127 3108 3190 3234 3200 3356 3338 3358 3632 3494 3649 1254 0 2115 2052 2140 1954 2136 2369 2173 1603 1173 978 2479 2766 2860 3061 3170 3056 2574 2503 3421 3775 4077 3916 3732 3733
3600 3117 3451 3384 3382 3176 3669 3645 3527 3513 3571 3596 3603 3695 3617 3945 3271 882 0 209 2166 2420 2303 2281 2077 1922 1438 937 53 383 1404 1220 2028 2181 2200 2410 2886 3169 4064 4448 4342 3516 3483
4018 3528 3675 3860 3759 3404 3807 3770 3849 3849 3714 3613 3655 3643 3739 3653 3941 2508 78 0 156 1949 2465 2091 834 897 0 0 0 7 49 661 1517 2086 2548 3007 3325 4180 3893 3354 2726 3013 3660
2828 3991 3842 4015 3851 3597 3789 3814 3898 3873 3851 3743 3421 3789 3597 3593 3637 3827 477 1 0 45 1242 1918 1157 1573 1373 1806 1299 5 585 2163 2780 3142 3254 3466 4190 3713 3179 2727 3280 3564 1584
3972 4013 3951 3905 3428 3811 3461 3816 3803 3729 3635 3624 3593 3280 3562 3357 3008 2782 2702 1969 1556 998 1751 2219 2490 2412 2271 2622 3304 3744 2634 2844 3123 3393 3600 4090 3671 3160 2905 3194 3512 1943 1520
4200 4065 3784 3719 3685 3739 3352 1797 0 1319 983 2392 1851 3042 1378 743 317 264 2 1836 1859 1703 1653 2637 2723 2801 2819 2665 2795 3279 3866 3763 4057 4237 4227 3609 3092 2825 2804 2975 1680 1131 1229
1250 3967 3492 2993 3287 3445 3380 2909 2103 60 1 2 273 1128 2178 948 785 331 9 0 85 345 2638 2493 2870 3365 3340 3685 3882 4392 4610 4571 3846 3518 3190 2851 2885 3060 1335 1443 1297 1069 803
182 638 3045 3028 2681 3078 3404 3217 2735 2372 2039 810 2 0 2 252 1219 914 1019 1722 894 966 2910 3630 3755 3758 4531 4331 4207 4261 4298 3704 3272 3143 3050 2979 2633 2263 1691 1468 1246 947 766
1 1 243 1035 947 1441 3153 3301 3016 3038 3033 2902 756 35 1 2 2 2 155 3104 3300 3363 3167 3306 3820 4620 4601 4692 4276 3952 3341 2841 2654 2373 2322 1953 1385 996 1214 996 695 174 148
0 0 0 530 1031 273 1284 668 1433 1980 2916 2151 1880 1221 25 12 394 740 1441 2556 3065 3819 4345 4245 3949 3276 3089 2544 2213 2267 1898 645 895 702 578 538 323 475 351 480 519 459 332
0 0 0 61 514 563 877 992 586 1002 803 610 727 37 78 299 2089 2378 1492 184 968 2707 2093 1369 798 648 541 841 904 963 898 963 977 216 213 129 257 134 213 246 200 295 357
0 0 3 809 579 1118 1173 1579 1883 1408 1043 444 52 6 107 740 89 0 0 0 0 0 295 371 167 74 46 24 38 56 11 115 141 63 97 84 138 145 93 10 1 0 29
0 0 36 0 161 188 134 2 2 0 21 171 165 498 564 153 2 0 0 0 0 0 0 0 0 0 0 0 0 0 0 0 0 0 0 0 1 9 66 13 3 2 30
0 2 0 0 0 0 10 4 0 0 0 0 0 0 0 0 0 0 0 0 0 0 0 0 0 0 0 0 0 0 0 0 0 0 0 0 0 0 1 27 35 23 16
0 0 2 3 0 0 0 0 0 5 9 13 9 2 0 0 0 0 1 0 0 0 0 0 0 0 0 0 0 0 0 0 0 0 0 0 0 0 4 6 8 0 13
2 2 2 2 1 3 2 0 0 0 0 0 1 5 5 4 0 0 0 0 0 0 0 0 0 0 0 0 0 0 0 0 0 0 0 0 0 0 0 0 0 0 0

GFSGL_con_sbcape_063.txt.gz
CAPE
563 872 321 58 573 660 455 145 910 671 1360 1984 1883 2132 2062 1850 2015 1900 1290 1715 1444 1270 1374 1650 1597 1498 1076 1495 2362 1815 952 729 639 417 928 930 961 965 776 999 812 970 841
807 693 949 324 87 621 442 492 124 803 870 1844 2041 2031 1881 1804 2101 2046 1802 1563 1729 1768 1670 1795 2028 1974 1731 1611 1991 1857 1811 1845 1506 983 726 720 937 1158 1105 1113 1489 1979 1591
1105 859 1018 909 221 198 227 351 128 1048 556 1900 1784 1869 1824 1760 1702 1991 2079 1829 1607 1839 1883 2169 1834 1911 2161 2514 2336 1979 1772 1544 1918 1547 1531 1556 2022 1850 1694 1394 1687 2007 2149
1372 1419 1145 1047 985 214 174 22 689 515 1862 1080 2035 1662 1976 1509 1638 1801 1898 2068 1975 1768 2230 2032 2094 2108 1974 2093 2345 2400 2244 2267 2086 2036 1998 1802 1704 1949 1898 2051 1846 1486 1978
1503 1564 1451 1271 1080 1015 478 360 0 969 751 1744 1380 2134 1812 1983 1708 1529 1788 2138 2125 1999 1769 1984 2072 2099 2472 2546 2639 2632 2683 2588 2551 2542 2436 2354 2223 1918 2038 2131 1986 1590 1664
1155 1583 1559 1402 1335 1237 1091 894 349 165 1303 829 1384 1613 2111 2096 2026 1653 1415 1922 2237 2166 2127 2035 2174 2211 2128 2191 2012 2445 2816 2750 2846 2798 2482 2424 2114 1915 1904 1853 1706 2030 2294
886 1386 1464 1435 1461 1351 1270 1101 1119 354 718 1523 1344 1510 1741 2082 2027 1460 1023 1325 1416 2205 2181 2112 2118 2214 2141 2051 1876 1218 687 504 973 1804 1797 1762 1825 1875 1851 1861 1965 2313 2478
913 973 1375 1502 1455 1510 1396 1293 1121 1146 633 733 1365 1732 1883 1951 2175 891 580 951 1300 1435 2153 2145 2109 2058 1892 1726 1833 2006 1769 1151 814 482 614 1401 1643 1863 1952 2067 2156 2452 2662
965 1225 1377 1411 1609 1662 1396 1474 1190 1451 1414 1152 1499 1719 1978 2072 1982 1347 1 299 999 1357 1533 1665 2040 2180 2116 2161 1564 2010 2418 2637 2750 1984 1811 1538 1414 1365 1400 1601 2140 2337 2276
1361 1578 1502 1433 1591 1656 1698 1414 1639 1250 1398 1742 1515 1856 1993 2071 2019 1098 23 852 475 880 1191 1345 1788 1990 1932 1872 1407 1615 1441 1362 1471 1723 1604 1034 557 626 789 204 1630 1673 1452
1842 1979 1808 1656 1502 1738 1722 1800 1599 1762 1668 1646 1930 1866 2041 2017 2240 1402 7 1619 1465 949 965 1121 1273 1349 933 653 588 1326 1925 2161 2038 2077 2248 2488 2189 1820 1913 1934 411 1245 2388
1605 2029 2234 2195 1646 1857 1859 1863 1873 1789 1872 1839 1896 2067 2040 2201 2000 1408 109 65 1819 1608 1216 1156 1085 1347 1314 987 34 5 499 362 1066 1858 1819 1657 1584 1677 1997 2579 3278 3046 2895
1252 2496 1949 2403 2255 1901 2181 2034 2060 2044 2048 2063 2098 2138 2255 2300 2555 1562 264 0 14 1317 1661 1440 1470 1300 675 7 0 9 0 0 410 817 1156 1330 1665 2113 2766 2887 2500 2327 2768
441 2099 2711 2491 2638 2197 2594 2275 2297 2268 2351 2258 2352 2364 2379 2381 2613 2785 239 0 0 0 1105 765 257 322 299 612 508 0 0 19 341 694 972 1444 2070 2871 2854 2445 2463 2648 1955
7 2052 2748 2603 2406 2721 2476 2828 2615 2606 2542 2530 2498 2493 2459 2731 2584 2839 2374 1076 979 478 632 1115 895 814 1323 1245 1379 1349 17 347 921 1625 2209 2615 2956 2854 2535 2333 2567 2600 863
2 902 2719 2817 2841 2812 2611 707 1 678 2324 2583 2620 2780 2574 1379 2756 2454 1732 1607 1063 587 449 1419 1348 1486 1589 1620 1281 1866 1886 1207 1568 2059 2452 2721 2878 2576 2448 2290 2087 401 359
3 4 68 2719 3045 2929 2843 2508 1618 54 1 2 40 2451 1287 1060 9 33 3 243 2 0 1434 1511 1711 1646 1716 1716 1626 1401 1623 2654 2623 2886 3138 2957 2757 2700 2447 1741 491 330 157
1 1 1 236 2295 2816 2932 2805 2172 1377 1084 131 1 0 39 16 47 66 0 0 0 156 1299 1322 1683 1890 1981 1969 2128 2378 2892 2811 2838 2777 2620 2491 2340 2322 1942 1013 504 227 115
3 2 1 3 861 1436 2442 2579 2120 1334 1330 353 1 1 1 2 1 1 2 1704 571 853 1438 1763 1560 1776 1990 2697 2467 2757 2829 2591 2558 2379 2276 2090 1898 1358 495 302 147 45 17
3 1 0 0 152 652 1424 1694 1897 1825 1741 489 179 37 1 3 204 319 397 1011 1773 1714 1567 1709 1466 2225 2374 2285 1853 1535 1318 1255 1304 930 463 238 157 100 61 54 75 37 3
2 4 0 0 1 220 243 333 390 570 697 369 214 29 0 70 448 635 398 96 66 735 814 318 346 0 4 169 213 332 509 289 262 134 71 20 15 6 0 0 0 0 0
2 2 2 2 124 71 85 171 182 292 198 76 29 1 1 0 0 0 0 0 0 0 1 8 0 0 0 0 0 0 0 0 0 0 0 0 0 0 0 0 0 0 0
3 7 8 4 10 2 3 4 3 1 1 8 29 17 1 0 0 0 0 0 0 0 0 0 0 0 0 0 0 0 0 0 0 0 0 0 0 0 0 0 0 0 0
0 3 6 2 6 5 4 5 7 1 3 3 3 2 1 0 0 0 0 0 1 0 0 0 0 0 0 0 0 0 0 0 0 0 0 0 0 0 0 0 0 0 0
1 2 1 1 1 1 3 2 0 2 1 3 1 2 1 3 4 1 0 0 0 0 0 0 0 0 0 0 0 0 0 0 0 0 0 0 0 0 0 0 0 0 0
1 2 1 0 1 1 1 0 0 0 0 0 0 0 1 2 0 0 0 0 0 0 0 0 0 0 0 0 0 0 0 0 0 0 0 0 0 0 0 0 0 0 0

GFSGL_con_sbcape_066.txt.gz
CAPE
336 104 0 5 133 517 49 91 314 413 561 783 1411 1220 1084 1156 888 1107 683 614 1075 977 628 630 1096 893 839 586 1096 1366 1027 191 239 110 64 636 695 430 604 419 618 688 627
443 325 94 0 34 312 427 87 26 382 522 1071 1314 1484 1294 1281 1220 1175 1042 997 1134 1071 889 907 1321 1556 1450 1029 1078 1363 1182 875 767 1013 207 560 812 1265 1295 1306 1471 1661 1632
390 397 391 93 0 64 361 329 82 54 330 1414 1398 1613 1567 1467 1379 1388 1364 1068 967 1201 1243 1079 1166 1283 1599 1399 1335 1655 1376 1381 1101 1049 1529 920 1425 1292 1312 1106 1285 1507 1592
444 472 524 593 175 0 46 261 221 39 64 822 1463 1443 1361 1473 1438 1510 1466 1356 1158 1042 1220 1250 1420 1386 1238 1487 1626 1692 1722 1746 1544 1393 1280 1301 1333 1547 1300 1701 1676 1032 1329
570 657 487 687 719 280 0 15 45 167 276 243 988 1409 1455 1360 1275 1154 1310 1362 1369 1287 1257 1370 1555 1551 1544 1328 1428 1579 1752 1775 1800 1921 1890 1779 1977 2219 2065 1636 1499 1295 1108
817 795 905 633 828 800 452 0 0 0 178 477 856 1123 1240 1520 1330 1131 1203 1368 1396 1348 1302 1256 1267 1517 1517 1591 1646 2099 2018 2057 2082 2071 2141 2309 2181 1579 1323 1274 1264 1275 1733
1080 1117 1149 1215 1001 893 855 495 189 88 0 280 553 1095 1329 1386 1360 830 697 1047 1405 1484 1463 1460 1440 1718 1648 1578 1339 607 495 1448 2164 2123 2076 1848 1567 1486 1363 1393 1447 1288 1601
556 1330 1536 1467 1365 1255 1004 912 634 465 82 0 549 493 1009 1313 1646 656 329 857 872 1150 1578 1723 1655 1656 1499 1457 1514 1579 1453 1069 346 44 430 1035 1160 1287 1344 1597 1636 1552 1823
107 489 992 1580 1480 1404 1303 1144 1034 920 682 154 353 1035 817 766 850 813 47 813 1048 916 911 1101 1526 1564 1593 1315 1306 1333 1369 1477 1733 1344 703 576 675 748 673 952 1536 1689 1911
191 271 491 954 1390 1462 1416 1330 1223 1101 1066 867 506 447 1134 1343 1213 315 1 1109 1182 1052 864 949 924 1433 1581 1289 897 1359 1347 1407 1056 954 1045 431 52 295 342 103 1368 1693 1621
116 456 861 962 1209 1445 1430 1426 1359 1285 1138 1154 1058 839 741 888 1203 293 0 1175 1357 1048 831 786 864 731 303 308 317 1345 1392 1416 1271 796 982 1129 1407 1670 1584 898 282 868 1157
2 2 218 1279 1363 1356 1471 1507 1378 1345 1287 1118 1299 1392 1167 1256 1101 471 0 55 1413 1490 1316 834 743 657 276 10 0 102 936 706 671 1185 1288 1481 1499 1387 1266 1158 1496 925 1091
2 0 20 688 1675 1408 1457 1519 1534 1353 1457 1490 1218 1244 1537 1567 1530 653 9 0 4 980 1616 1399 855 664 175 0 0 0 0 0 7 231 642 978 1078 1100 1067 1617 2214 2246 2064
1 1 1 198 1828 1769 1540 1559 1541 1643 1493 1497 1636 1564 1482 1571 1719 1768 199 0 0 0 470 1089 844 191 113 70 40 0 0 0 57 289 549 654 622 984 1445 1963 2264 2035 2164
2 2 3 340 1780 2167 1835 1806 1659 1692 1691 1641 1598 1596 1634 1649 1674 1840 1923 1240 674 402 606 825 226 56 349 93 148 242 0 0 0 52 235 448 760 1283 1883 1879 2011 1970 1918
5 4 7 5 142 2170 2370 1104 1 260 1318 1420 1523 1680 1738 1686 1767 1784 1700 1511 1097 637 1 1061 1076 1118 862 1076 1032 888 701 92 148 196 588 969 1453 1921 2120 1919 1966 1442 348
3 4 5 0 6 1625 2422 2280 1760 49 2 9 361 1327 1647 1951 1024 1240 1403 756 14 1 1263 985 1388 1287 1350 1320 1374 1341 1133 1201 852 777 1119 1496 1868 1951 1854 2010 1017 124 53
3 0 4 2 0 67 2123 2665 2034 1880 1572 959 2 11 35 116 1000 1035 24 1 0 1 831 1605 1188 1439 1422 1398 1427 1448 1368 1123 1732 1618 1839 2153 2105 2023 1722 1476 657 157 14
1 2 3 3 0 2 129 1645 2340 2074 1671 1882 1 1 1 2 2 1 1 436 178 127 137 1290 1161 980 909 908 1049 1018 1254 1326 1558 2114 2238 2100 1881 1628 1450 825 297 67 17
1 0 2 2 2 2 10 835 1754 1671 1131 528 235 547 0 0 48 66 43 199 318 148 274 647 722 629 0 0 25 5 3 280 682 1120 1063 1062 825 590 385 111 25 0 0
3 2 7 5 4 0 50 519 1358 1580 1329 835 169 25 7 591 461 179 36 4 18 59 263 279 133 0 0 0 5 0 0 0 52 181 2 0 0 0 0 5 0 0 0
2 3 7 5 11 2 1 134 467 1027 476 16 1 1 1 1 1 2 3 5 3 1 3 1 0 0 1 2 0 0 0 0 0 1 0 0 0 0 0 0 0 0 0
0 3 6 0 6 3 2 0 1 23 1 2 1 1 1 1 2 4 6 5 2 0 0 0 0 0 0 0 0 0 0 0 0 0 0 0 0 0 0 0 0 0 0
0 3 5 2 2 5 2 2 3 0 1 2 1 2 4 5 6 6 8 11 0 0 0 0 0 0 0 0 0 0 0 0 0 0 0 0 0 0 0 0 0 0 0
6 3 3 6 3 5 3 1 1 3 7 9 6 4 9 7 6 6 9 9 2 0 0 0 0 0 0 0 0 0 0 0 0 0 0 0 0 0 0 0 0 0 0
4 3 5 2 2 3 2 0 1 2 2 3 4 1 2 4 3 3 4 4 2 1 1 0 0 0 0 0 0 0 0 0 0 0 0 0 0 0 0 0 0 0 0

GFSGL_con_sbcape_069.txt.gz
CAPE
47 23 28 35 93 181 0 17 311 409 393 537 977 1051 914 860 904 778 538 537 789 876 478 488 552 514 602 283 473 848 469 9 202 154 0 325 412 405 926 765 873 1029 979
126 44 0 0 0 161 132 0 0 94 159 487 570 1145 1018 908 826 819 866 869 557 731 862 476 573 770 963 734 572 872 844 424 424 736 140 500 729 1018 1063 1315 1351 1213 1223
214 155 45 0 0 20 94 105 0 0 11 229 609 972 1015 970 950 818 840 848 779 825 978 845 712 755 1066 1055 818 901 1128 1074 681 726 1436 741 984 905 1270 1286 1304 1388 1042
192 277 212 87 0 0 4 10 101 0 0 65 810 957 1144 1072 1045 1066 1075 1035 932 872 881 978 1088 1065 1004 1029 1073 1282 1337 1360 1277 1171 1025 951 935 1222 1063 1488 1824 1115 1056
37 187 265 257 112 0 0 0 0 10 7 0 237 1016 1000 1142 1194 1117 1181 1189 1172 1075 919 926 1044 1147 1281 1270 1188 1062 1079 1169 1235 1325 1368 1306 1448 1623 1890 1270 1210 1048 1092
247 205 283 269 326 124 0 0 0 0 0 0 0 205 838 1158 1160 1154 1216 1294 1234 1122 1082 923 994 1293 1137 1135 957 983 1504 1541 1537 1471 1647 1746 1716 1585 1226 1095 867 989 1546
476 345 341 329 407 505 239 0 0 0 0 0 6 84 275 683 1127 832 371 1028 997 1006 983 975 911 1201 1097 1153 1062 463 262 424 1085 1687 1763 1680 1723 1478 1043 897 861 930 1078
394 577 505 575 412 512 629 392 35 0 0 0 0 0 161 351 626 516 133 630 957 969 995 1021 993 1057 1110 1193 1242 1245 1042 839 430 203 662 1532 1442 1307 850 1087 1045 1053 1122
70 147 574 822 931 712 708 709 598 238 6 0 0 0 0 63 337 129 0 470 782 825 832 924 1114 1238 1300 1176 1158 1211 1160 1160 1125 851 448 506 415 495 75 570 860 1040 1354
40 152 247 187 1203 1234 1107 914 806 642 499 295 128 0 0 103 94 0 0 730 858 973 1017 836 675 896 1167 995 555 1157 1126 1299 1242 1081 787 310 47 17 7 9 763 1257 1354
8 3 1 130 429 555 1260 1262 1151 995 882 754 646 345 61 154 473 0 0 765 864 869 930 888 857 645 167 157 30 993 1141 1222 1161 782 682 543 596 761 839 246 134 783 1042
4 8 7 4 199 747 1016 1169 1317 1232 1091 989 931 870 677 343 196 154 0 12 620 827 935 868 802 759 436 38 0 1 354 116 482 604 658 893 943 1046 1152 1149 947 426 670
4 2 3 3 4 318 1172 1115 1236 1271 1300 1171 1090 993 991 911 676 19 0 0 0 529 1085 1063 1051 771 387 0 0 0 0 0 112 75 472 591 510 653 774 730 746 905 1553
4 4 3 1 0 15 820 1316 1186 1301 1336 1236 1216 1108 935 1092 1249 1073 23 0 0 0 167 596 730 429 1 6 0 0 0 0 3 50 134 214 279 309 459 547 1027 1464 2106
0 4 2 2 3 2 9 1263 1341 1383 1464 1402 1281 1248 1151 1036 1099 1394 1415 727 301 144 273 390 875 368 806 296 24 25 0 0 0 2 51 117 102 176 387 712 1318 1875 2187
3 1 1 3 2 4 4 99 141 213 680 878 952 1253 1284 1177 1147 1085 1037 904 733 207 1 797 987 1091 1086 1061 1152 609 193 8 0 0 0 21 79 215 516 981 1568 1921 1982
0 1 1 1 0 6 4 4 587 577 2 0 0 118 441 1377 461 859 314 339 5 2 916 971 1111 1304 1165 1164 997 1062 846 544 310 82 147 272 448 606 829 1398 1630 1282 876
1 0 0 1 0 0 4 5 8 1088 1859 1504 206 0 1 21 372 414 162 0 5 1 818 1174 1272 1121 1264 1210 1097 1026 1129 1076 812 853 566 636 777 1051 1388 1566 1445 707 157
1 0 0 2 2 1 2 2 0 26 1663 1983 914 7 2 2 2 1 2 592 709 253 95 776 1059 1331 1227 1115 822 907 1012 951 861 988 1001 994 767 799 1190 1248 1090 261 21
0 2 4 2 4 4 3 2 2 9 917 1748 1678 1231 53 1 35 86 0 42 387 580 268 230 715 979 798 840 473 262 353 225 5 0 0 0 0 0 0 14 201 113 0
4 2 3 6 3 3 5 3 3 18 326 1462 1526 978 47 137 624 849 141 177 262 256 95 183 361 314 55 2 0 0 0 0 0 0 0 0 0 0 0 0 0 8 0
1 5 5 5 4 3 2 7 7 51 285 780 452 1 1 48 27 1 1 1 0 0 2 3 1 1 0 0 1 1 0 0 0 0 0 0 0 0 3 7 5 1 0
3 3 3 4 3 2 2 3 2 2 33 666 11 1 1 0 1 1 1 2 3 5 4 0 1 0 0 0 0 0 0 0 0 0 0 1 1 1 0 0 0 0 0
3 4 4 3 2 3 3 2 3 1 1 1 1 1 1 1 1 2 6 8 11 7 3 7 3 2 0 0 0 0 0 0 0 0 0 0 0 0 0 0 0 0 0
4 4 2 4 3 3 4 2 1 5 2 0 0 3 5 5 7 4 9 12 15 9 10 12 6 2 0 0 0 0 0 0 0 0 0 0 0 0 0 0 0 0 0
4 4 1 3 5 3 2 2 2 2 3 3 1 3 6 7 3 5 7 4 7 15 9 5 3 1 0 0 0 0 0 0 0 0 0 0 0 0 0 0 0 0 0

GFSGL_con_sbcape_072.txt.gz
CAPE
1 41 56 34 0 0 0 110 317 325 403 617 988 1126 930 752 931 561 698 829 930 1046 882 902 986 743 821 644 608 1094 828 234 962 1150 152 823 1168 1687 2185 1879 1994 2126 2137
14 5 1 1 56 104 0 0 72 363 327 538 668 1095 1156 1058 929 1162 1076 1065 842 883 1048 967 945 797 1051 1073 926 1135 1213 941 1048 1392 1110 1259 1655 1784 1847 2247 2262 2183 2029
0 13 16 0 0 48 105 4 0 81 178 327 612 817 1152 1193 1111 1095 1164 1144 1071 986 1023 1063 1176 998 1222 1322 1382 1328 1280 1449 1231 1297 1774 1501 1601 1559 2115 2290 2381 2498 1663
18 1 4 6 0 0 0 39 0 8 99 94 371 651 978 1151 1168 1191 1119 1142 1109 1090 1130 1214 1335 1258 1379 1472 1341 1549 1597 1748 1784 1694 1660 1642 1630 1910 1789 1957 2511 2394 1775
99 134 63 4 0 0 0 0 8 17 21 85 206 597 907 1195 1149 1224 1236 1252 1237 1225 1263 1210 1201 1179 975 1250 1558 1844 1613 1572 1605 1756 2048 1854 2161 2218 2440 2211 1882 1690 1911
63 146 302 260 132 0 0 0 0 0 36 0 36 323 781 950 1114 993 1031 1321 1359 1413 1422 1368 1415 961 903 683 567 699 1354 1982 2102 2049 2347 2086 2387 2025 2138 1896 1657 1822 1965
260 190 143 298 299 236 46 0 0 0 0 4 0 28 255 657 685 718 477 1337 1383 1386 1448 1500 1281 1218 959 1414 978 400 29 32 679 2175 2223 2308 2306 2416 2101 2069 1688 1311 1624
111 340 322 271 355 401 373 124 0 0 0 0 0 10 54 140 192 39 113 831 1247 1273 1250 1220 1273 1345 1232 1273 1391 1488 1528 1416 918 507 929 1750 2206 2241 2054 1977 1644 1346 1507
29 63 307 466 436 462 510 559 375 61 0 0 0 0 1 34 0 0 0 538 794 1095 1156 1216 1213 1211 970 500 1336 1545 1677 1699 1295 795 656 773 610 529 395 892 1215 1310 1805
3 3 1 6 538 806 534 566 499 559 381 116 28 8 0 0 0 0 0 276 330 497 877 1009 516 931 909 392 790 1473 1531 1606 1628 1656 1166 144 48 71 0 111 1030 1453 1974
4 9 3 3 30 398 789 856 628 677 628 736 497 344 171 0 34 0 0 163 375 357 449 575 1026 308 76 9 64 1250 1246 1381 1320 1249 1582 1454 1313 1128 1013 257 475 1102 1789
2 2 9 4 0 36 122 312 970 1254 1078 1011 994 849 690 385 2 8 0 1 253 578 562 671 713 470 172 0 0 3 275 87 717 1345 1405 1252 1267 1195 1458 1559 1474 933 1404
2 1 1 8 4 2 20 158 767 1149 1391 1341 1295 1169 1157 1087 665 2 0 0 0 182 644 502 386 428 223 0 0 0 0 0 177 584 856 1071 1170 1290 1412 1147 1195 1398 1327
2 2 2 2 8 7 6 6 167 1183 1323 1449 1515 1400 1352 1290 1197 1015 6 0 0 0 1 230 367 206 18 116 0 0 0 7 92 275 597 757 820 575 677 856 955 1551 1393
2 1 4 6 5 4 5 4 2 129 1143 1412 1495 1478 1479 1356 1277 1112 986 275 50 0 0 245 727 818 786 588 273 338 28 3 22 112 285 408 454 531 585 810 909 1242 1644
2 1 5 5 3 1 4 1 0 0 2 13 65 1194 1476 1141 1023 785 531 224 192 11 1 512 634 803 1016 912 789 950 696 158 309 368 341 488 532 528 572 652 844 1386 1842
3 5 7 2 3 7 13 5 3 0 0 5 3 2 7 1059 707 252 116 0 19 2 796 687 863 1117 1046 834 898 906 1336 950 673 509 447 471 372 456 269 806 1286 1324 1791
3 3 6 6 9 9 0 0 1 0 1 0 135 1 3 0 0 0 0 1 5 1 1010 1308 1392 1238 1272 1205 1044 1004 1151 1497 1073 756 435 427 467 623 808 1151 1429 1663 1607
0 1 4 5 5 4 6 2 4 5 0 2 141 417 1 1 2 1 1 482 663 522 159 1112 1536 1773 1502 1110 1196 1368 1425 1462 1499 1261 1249 1195 1111 958 892 1030 1327 1201 780
0 1 1 1 3 4 4 2 2 7 4 5 53 676 196 1 2 1 0 6 1021 1318 970 588 953 1279 1279 1241 1081 1114 1364 1264 1259 1383 1488 1321 666 594 739 686 559 207 52
7 2 1 0 2 5 0 8 9 9 9 10 45 389 754 224 739 807 199 18 247 748 1270 976 716 757 971 1079 1044 1037 1160 1411 1184 697 94 0 5 0 0 0 0 0 0
8 7 6 5 6 5 5 8 10 5 5 6 9 95 200 54 912 921 1010 186 1 1 1 130 36 1 1 9 108 243 234 65 1 2 2 2 0 0 0 6 8 2 1
3 5 8 7 8 7 8 7 5 5 3 2 7 8 7 19 37 1 0 1 1 1 1 1 1 0 1 0 5 0 1 0 0 0 1 3 7 6 31 37 10 5 5
4 6 6 5 6 6 6 5 3 1 3 3 5 2 1 1 1 2 2 2 2 2 2 2 0 0 2 2 9 0 0 2 0 0 1 5 3 2 23 9 7 0 0
5 4 4 5 5 6 6 5 3 2 2 4 4 3 3 3 2 3 3 2 3 2 2 2 2 2 6 1 1 1 1 0 0 0 0 0 0 1 1 0 0 0 0
6 6 6 6 5 5 5 4 3 4 2 3 4 4 3 3 3 3 3 3 2 3 4 2 3 5 2 1 1 0 1 0 0 0 0 0 0 0 0 0 0 0 0

GFSGL_con_sbcape_075.txt.gz
CAPE
454 887 835 771 658 859 973 1252 1623 1808 1980 2034 2121 2128 2261 2334 2412 2477 2355 2104 2237 2338 2202 2305 2313 2471 1711 1643 1555 1699 1904 1731 1503 1192 1975 2193 2789 3099 2953 3144 2520 2447 2284
564 629 658 810 756 663 808 922 1176 1651 1819 2073 2195 2270 2295 2328 2403 2446 2350 1953 2195 2026 2054 2266 2136 1915 2356 2361 2158 2333 2064 2343 2178 2246 2463 2306 2692 2888 3187 3363 2835 2190 2964
495 313 202 410 726 793 901 901 988 1151 1563 1573 1919 2180 2326 2351 2409 2450 2519 2428 2393 2251 1982 2112 2141 2305 2488 2083 2454 2295 2180 2460 2590 2613 2474 2412 2538 2590 2768 2803 2916 3023 2394
377 419 408 261 262 658 1216 1253 1024 1070 1329 1410 1658 1878 2099 2397 2464 2435 2422 2517 2539 2387 2291 2167 2152 2227 2365 2644 2668 2733 2581 2644 2501 2713 2225 2155 2349 2467 2657 2120 2088 2128 2549
560 529 613 809 477 325 876 1336 1106 1098 1070 1172 1341 1473 1708 1750 1751 2190 2360 2491 2538 2444 2348 2334 2225 2010 1748 1887 2005 2356 2541 2544 2305 2349 2206 2048 1953 1850 2052 1951 1914 2188 2643
383 713 945 965 1067 1066 1175 1274 1270 1090 1079 1124 1026 1372 1408 1161 674 744 1568 2187 2383 2422 2498 2496 2426 1483 1191 821 646 917 1451 2533 2438 2058 1583 1819 2778 2447 1766 1973 1945 2114 1883
575 624 730 1092 1067 1230 980 1022 1119 1268 1146 1169 1027 1024 1482 1708 819 213 402 1499 2041 2381 2521 2544 2393 1860 1805 2327 794 65 86 62 528 2399 2454 2350 2727 2372 2588 2790 2452 2415 2359
832 679 862 854 901 1082 1116 1062 1215 912 1086 1043 984 1178 1311 1256 578 56 2 1304 2112 2315 2414 2356 2566 2639 2397 2229 2352 2256 2275 2255 1802 1199 1655 2149 2439 2567 2882 2956 2788 2715 2388
11 101 218 697 1157 1049 1124 1196 1184 977 845 799 841 984 1226 1383 234 1 0 936 1132 2172 2382 2290 2570 2505 2230 1383 1972 2161 2283 2265 1497 1326 1166 1276 1413 1051 1130 1901 2012 1886 1555
4 11 19 89 313 1225 1282 1370 1359 1378 1118 960 839 860 552 1087 551 0 0 378 994 861 1582 2053 1231 1494 1595 751 1424 1893 2236 2098 1707 1459 1650 790 141 772 0 710 1896 1933 1602
3 0 3 18 20 44 1022 1748 1531 1693 1658 1578 1492 1392 1253 964 810 0 0 402 625 951 1012 1007 940 293 195 7 62 2065 2216 1989 1300 1657 1499 1283 1532 1961 2112 1270 1652 1912 1711
0 0 0 7 20 17 58 75 349 1135 1417 1702 1721 1832 1776 1632 587 182 0 0 270 962 1331 1112 1194 568 37 0 0 304 876 823 1295 1154 961 1030 1124 1266 1450 1740 2433 2174 1998
0 0 0 0 3 20 15 70 444 555 1000 1584 1763 1757 1754 1816 1841 195 0 0 0 308 995 1070 813 497 75 0 0 0 0 458 915 1032 1153 1211 1158 1116 1779 1927 2134 2300 2320
1 0 0 0 0 5 6 8 17 99 498 774 1577 2015 1953 1819 1945 1933 726 24 0 0 12 463 566 416 266 563 442 21 82 838 973 1120 1266 1284 1300 1335 1470 1717 1736 1686 1723
1 0 0 0 0 0 1 0 0 2 56 573 1149 1531 1953 2140 2058 1689 1718 1861 1311 269 226 549 902 1014 1182 1223 1120 1339 1331 1062 1023 1221 1492 1499 1474 1481 1573 1659 1736 1733 1800
5 6 0 0 1 1 0 0 0 0 0 0 0 0 107 1089 939 980 898 741 508 63 99 1062 1378 1471 1434 1274 1201 1273 1235 1095 1510 1447 1456 1418 1497 1501 1545 1663 1769 1958 1881
2 4 3 0 0 1 0 0 0 0 0 0 0 0 2 12 507 6 43 0 2 1 707 1405 1297 1142 1122 1103 1386 1518 1458 1355 1531 1767 1445 1414 1414 1482 1605 1718 1856 2065 2054
3 0 3 1 2 1 2 1 1 0 0 0 0 0 0 0 0 1 0 1 1 1 957 1218 1456 1279 1491 1683 1673 1831 1977 1520 1435 1774 1737 1462 1498 1553 1640 1816 1906 2093 2133
10 1 2 5 5 2 3 10 9 7 9 5 0 0 1 2 0 1 1 16 547 1114 288 1101 1582 1770 1661 1707 2190 2227 2004 1757 1206 1496 1877 2003 1842 1882 2000 2124 2388 1618 1763
8 3 8 6 3 1 3 1 11 19 13 10 7 3 27 2 125 50 2 4 644 1779 2050 1480 1823 2195 2166 2016 2100 2105 2439 2275 1500 1321 1490 1509 1615 1740 1922 1936 1873 1774 1222
6 5 6 15 3 6 9 8 11 12 8 9 14 12 20 34 262 700 1082 8 102 1481 2446 2348 2413 2216 2169 2147 2127 1867 1827 1938 1707 1495 1658 1851 1577 1619 1609 1651 1121 737 574
12 14 12 9 6 15 4 5 7 7 12 18 8 6 2 4 63 212 1013 1378 679 687 939 1166 1445 925 994 895 1011 1359 1565 1500 1422 1418 1418 1125 744 477 113 80 30 18 85
33 16 10 14 17 13 12 10 11 12 12 10 10 9 9 10 42 97 89 2 2 1 1 1 1 1 1 1 0 0 0 0 1 0 66 77 66 39 27 22 12 82 90
10 17 15 16 13 12 10 9 6 4 6 8 9 12 5 6 3 3 3 3 4 3 2 2 2 1 1 1 1 0 0 0 2 4 0 1 5 35 53 111 126 165 165
21 19 17 13 10 11 10 8 6 6 6 6 6 4 4 4 4 4 3 3 3 3 3 4 3 2 3 1 0 0 0 0 0 0 2 1 1 1 2 60 122 181 151
11 19 17 12 8 8 9 7 5 6 5 5 4 5 5 4 5 4 3 3 3 3 4 5 5 4 2 2 2 0 0 0 0 0 0 0 1 2 3 4 0 1 0

GFSGL_con_sbcape_078.txt.gz
CAPE
1529 1463 1496 1486 1580 1719 1508 1445 1732 1529 1694 2188 2522 2414 2312 2223 2325 2855 2488 1912 2312 2042 2129 2180 2439 2270 1784 1230 1389 1371 1474 1587 1529 1071 1360 1590 2753 3094 3035 3228 2689 2374 1444
1252 1580 1619 1961 1473 1321 1505 1386 1584 1777 1760 2231 2562 2653 1884 2067 2343 2809 2522 1827 2084 2018 2106 2298 2277 1799 2397 2246 1714 2038 2256 1851 1824 2123 2353 1695 2294 2674 2854 3275 2451 2064 2338
939 901 1089 1144 1337 1306 1329 1496 1512 1685 1714 1594 2152 2679 2509 1997 2479 2704 2806 2611 2252 2158 2030 2336 2164 2168 2358 1707 2038 1706 1784 2010 2003 1794 1721 1476 1841 2318 2645 3142 2566 2548 1621
852 1034 972 1118 1191 1215 1325 1497 1560 1689 1751 1607 1741 2129 2439 2242 2221 2629 2851 2927 2509 2219 2556 2584 2461 2028 2217 2657 2690 2752 2670 2512 2451 1920 1707 1654 1711 2015 2366 1785 1298 1197 1468
1012 1012 1119 1304 1221 1175 1010 1344 1569 1744 1783 1792 1622 1735 2020 2099 2058 2685 2802 2754 2773 2827 2645 2881 2699 2276 1562 1750 1908 3297 3140 2591 1960 1619 1594 1625 1504 1441 2242 1277 1240 1176 1682
1085 1131 1348 1323 1428 1536 1371 913 1540 1710 1871 1904 1837 1567 1464 1071 711 949 1445 2482 2715 2907 2846 2710 2816 1939 1758 1525 1381 1255 1139 2485 2457 1458 905 1103 2587 2097 1365 1172 1208 1170 1152
630 1292 1071 1228 1556 1589 1630 1713 1629 1616 1827 2012 1881 1821 2002 1833 472 215 378 1364 1664 2304 2591 2520 2251 1765 2227 2503 951 638 263 114 311 2535 2549 2507 2785 2380 2927 2513 3255 2171 2058
0 1 1 792 1255 1785 1875 1919 1810 1760 1743 1767 1803 2166 2026 2089 942 265 7 1189 1661 2223 2546 2458 2841 2943 2154 1970 2364 2340 2574 2493 2101 1630 1786 2127 2629 2476 2898 3027 3078 3046 2594
0 4 4 4 73 901 1664 1784 2092 2052 1948 1756 1710 1868 2180 2253 989 184 0 1089 995 1962 2210 2732 2994 3265 2457 1758 2326 2825 2685 2561 1161 1820 1676 1520 1191 1078 1107 1730 1475 1260 812
5 6 9 14 8 5 389 1382 1805 2011 1708 1780 1731 1766 1478 1930 1439 239 0 917 1007 1029 1922 2599 1567 1794 1911 1431 2445 2882 2986 2624 1323 1241 1589 966 319 1202 114 1174 1830 1580 968
3 3 1 5 17 12 9 126 1172 2150 2633 2414 1956 2210 2285 1782 1747 275 0 974 1031 1136 1147 1217 1270 488 471 221 199 2911 2400 2065 1159 977 843 854 920 996 1703 1963 2196 1950 1165
4 2 3 2 0 8 27 55 61 546 976 2030 2298 2789 2252 2724 1476 1117 0 7 671 1321 1518 1310 1623 1055 0 0 0 310 744 348 644 138 88 139 259 369 325 983 3477 3207 2328
5 5 2 2 0 0 5 9 55 138 575 1339 1834 1775 2659 2179 2539 1127 99 0 0 133 1356 1310 1144 142 7 0 0 2 0 503 686 657 490 427 337 314 1420 1880 3273 3945 3812
6 9 2 0 0 0 0 0 1 1 4 153 528 1684 1920 2522 2788 2149 1306 126 11 2 30 126 565 709 717 901 843 101 123 761 844 927 754 492 584 563 638 815 940 980 1363
6 8 2 0 0 0 0 0 0 0 0 2 11 52 368 1248 2355 0 6 2231 2533 1177 622 1012 1192 1215 1376 1602 1673 1577 1553 1243 1047 1120 1144 1122 1113 1100 1081 1034 892 902 994
39 7 0 0 0 0 0 0 0 0 0 0 0 0 0 0 0 0 0 1 2 367 673 1356 1737 1844 1904 1948 2036 2030 1928 1478 1696 1470 1340 1260 1186 1184 1168 1086 994 940 1123
5 34 15 3 2 0 0 0 0 0 0 0 0 0 0 0 0 0 2 0 0 1 1122 1680 1903 1949 2197 2345 2366 2130 2111 2096 2692 2156 2109 1836 1491 1288 1118 1053 963 1231 1427
7 0 15 21 8 2 1 0 0 0 0 0 0 0 0 0 0 0 1 0 1 1 868 1569 1881 2149 2199 1911 1737 1950 2022 2044 2376 2603 2126 2026 2047 1575 1301 1247 1259 1593 1547
25 17 17 22 22 9 3 2 0 0 0 0 0 0 0 0 0 2 1 5 36 821 567 1221 1786 1897 2406 2487 2617 2423 2907 2782 2961 2876 2450 2418 2485 2010 1659 1514 1437 1088 1381
37 20 23 21 14 17 16 7 4 2 1 0 0 0 0 1 13 81 1 2 5 359 1588 1634 1686 1932 2501 2748 2787 2746 3001 2690 2716 2644 2791 2593 2497 2491 2637 2242 2220 2188 2804
23 37 21 38 27 21 16 9 7 10 6 6 2 0 0 0 3 10 38 280 209 478 963 1742 2334 2617 2563 2863 3403 3448 2752 2934 2597 2493 2656 2661 2546 1995 1926 1842 2035 2351 2160
40 28 23 21 20 18 15 13 7 11 7 1 5 0 0 3 1 4 7 56 301 723 1088 1246 1282 892 891 1667 2497 3003 2566 2343 2277 1850 1929 2203 2393 1872 1718 1740 1719 1598 1436
34 27 23 26 33 25 28 10 8 3 9 7 7 7 8 3 3 9 12 37 4 2 1 2 2 1 1 1 1 1 3 406 614 364 1178 1667 1671 1506 1326 715 468 288 290
17 21 30 25 26 24 22 25 7 8 13 12 11 10 14 16 9 7 5 4 4 3 2 2 1 1 0 0 0 3 6 0 3 3 1 2 17 42 58 7 7 4 2
14 14 16 28 30 23 23 24 23 22 20 17 14 12 11 10 7 5 4 4 4 4 4 3 3 2 1 0 0 0 0 0 1 0 1 0 0 0 0 1 1 2 37
20 18 10 10 17 24 22 18 20 19 17 15 12 11 9 7 5 4 4 4 4 4 4 4 5 4 2 2 1 0 1 0 0 0 1 1 1 1 1 1 0 2 1

GFSGL_con_sbcape_081.txt.gz
CAPE
2039 2136 2204 2189 2041 2262 1964 1718 1872 1688 1796 1742 2147 2618 2254 2650 2240 3207 3078 2483 2330 2047 2319 2243 2285 3447 1858 1117 872 885 1026 1213 1305 1303 1575 1924 3296 3965 3715 3768 3051 3542 1907
1860 2656 1985 2438 2478 1883 2131 1901 1888 2362 1946 1998 2352 2327 2396 2046 2608 2670 2377 1788 1873 2204 1939 2273 1936 1633 3476 3430 1980 3569 2305 3061 1919 3436 2515 1790 3269 3685 4292 4798 3116 2224 2444
1591 1777 2006 1896 1831 2014 2259 1996 2636 2377 2404 1529 2258 2867 2510 1963 2856 2882 2663 2767 2341 2316 2324 2301 2098 2535 3382 2304 2981 1879 1563 2142 2372 2227 2026 1618 1831 1813 2607 3940 4357 3229 2009
1126 1515 1648 1778 1744 1844 2396 2830 2067 2947 2629 2335 2432 2895 2575 2064 1984 2318 2848 2843 2781 2564 2492 2804 2620 2547 3199 3392 2901 3558 2855 2546 2044 1506 1406 1692 1957 2707 2106 2318 1936 1394 1441
1396 1406 1882 1773 1640 1765 1918 2267 2403 2868 2848 2890 2917 2651 2752 2091 1864 2635 2661 2846 2905 3282 2849 2900 3232 2556 1603 2285 1855 3142 3723 2870 1666 1296 1383 1449 1420 1696 2520 1788 1679 1457 1865
110 409 502 1836 1882 2080 1989 1944 1997 2245 3283 3553 3048 2995 2673 1409 676 898 1782 2980 3398 3857 3229 3231 3296 2179 1966 1653 1141 1114 1322 3087 4138 1925 1281 1155 3237 2005 1087 1059 1473 1168 1268
0 0 0 130 984 1610 2234 2571 2341 1971 2571 3442 3320 3139 3267 3167 1240 90 631 1627 2505 3342 3593 3625 2948 1503 2338 3261 1477 1163 913 456 281 2633 3580 3339 3201 3635 3918 4405 3175 3070 2299
0 0 0 2 59 442 1092 1913 2304 2547 2657 2824 3144 3482 3594 3176 1765 784 0 1761 2092 2556 2849 3509 3805 3356 3270 3066 3409 3154 2897 2942 2506 1370 1824 2583 3189 3531 3753 3334 4265 4348 3375
1 0 0 0 4 9 145 213 1603 2422 2272 2185 2262 2947 3007 3496 2013 766 42 1419 1303 1971 2422 2671 2706 3388 3098 2181 2869 3341 3585 3352 1386 1865 1848 1949 1697 1228 1080 1439 1206 1169 993
0 3 6 2 1 4 4 22 265 1518 2017 2735 2017 2555 2035 2923 2400 1693 15 1476 1850 1597 2353 2528 1488 1411 1894 1829 2707 3128 3269 3172 3371 2169 1585 928 293 997 264 805 1427 1101 889
0 1 1 3 2 0 2 17 31 55 678 1729 2186 2603 3022 2549 2720 1418 246 1937 1719 1672 1753 1683 1889 900 482 337 224 2976 2782 2851 2667 2398 2091 1776 1398 1819 2124 2079 2389 1971 1215
0 0 2 2 0 0 7 1 8 41 102 578 1662 2097 2723 2830 1909 1771 63 46 1516 1726 2113 1698 1891 1011 0 0 0 276 634 796 1769 1585 1213 689 461 420 507 787 2816 3108 2432
0 0 0 1 0 0 0 0 0 91 377 383 381 1308 1552 1710 2900 1563 77 0 0 454 1869 1620 824 0 0 0 0 0 0 504 1017 1347 1570 1475 1030 465 607 1180 1914 4454 4086
13 3 0 0 0 0 0 0 0 0 0 0 80 80 68 330 2073 2176 83 7 50 47 102 510 641 577 66 110 519 53 44 881 1291 1483 1440 1518 1215 910 703 744 732 696 907
8 4 2 0 0 0 1 0 0 0 0 0 0 0 0 0 37 0 0 8 4 2 1 102 1786 1720 1493 1810 2006 2196 2391 1798 1380 1293 1475 1506 1433 1368 1098 1154 1146 1152 1240
25 5 0 0 0 0 0 0 0 0 0 0 0 0 0 0 0 0 0 0 1 3 1 254 2070 2194 2191 2270 2414 2526 2661 2146 2664 2331 1833 1642 1592 1567 1591 1654 1593 1639 1627
17 22 15 3 3 3 0 0 0 0 0 0 0 0 0 0 0 0 0 0 0 0 9 22 1415 2082 1856 2538 2213 2139 2275 2354 2850 2368 1995 2611 2000 1985 1623 1487 1579 1868 1848
19 5 10 13 12 9 8 1 0 0 0 0 0 0 0 0 0 0 0 0 0 0 4 40 1612 1863 1943 2019 2491 2393 2361 2707 2756 2765 2766 2486 2688 2623 2501 2548 2117 1916 1709
5 3 8 16 13 3 6 14 7 2 0 0 0 0 0 0 0 0 0 0 1 9 41 187 801 1474 2103 2528 2470 2698 2505 2352 2504 2835 2852 2672 2760 2584 2792 2861 2689 1220 1220
5 6 6 6 18 29 17 28 25 21 13 3 0 0 0 0 0 0 0 20 46 81 125 476 1250 735 1688 2438 2257 2424 2927 2828 3217 3146 2865 3524 3381 2760 2630 2830 2761 2489 2487
10 10 8 19 22 24 26 25 38 35 29 17 6 1 0 0 0 0 0 0 0 31 118 375 1077 1224 1801 2634 2497 1951 2280 2551 2934 3238 3183 3097 2977 3089 2378 2626 2703 2852 2826
7 8 10 13 15 37 37 29 7 5 13 28 24 13 0 6 4 0 0 0 0 0 89 5 2 92 885 497 197 373 1599 2427 2699 2885 3013 3022 2646 2556 2687 2246 2659 2409 2225
0 4 10 14 28 26 33 28 15 22 28 18 22 25 28 23 21 12 5 2 0 1 1 5 4 2 1 1 4 2 1 1 2 2 154 1469 2230 1981 1925 1770 1878 1956 1966
4 10 16 21 26 35 31 25 23 11 21 29 29 18 19 10 2 7 10 8 8 7 5 3 3 2 1 1 3 3 2 4 2 2 3 2 2 8 164 499 684 427 403
9 13 17 10 18 19 23 25 21 21 21 23 20 22 21 24 21 18 19 11 10 7 5 3 3 2 2 1 0 0 0 1 0 0 9 5 3 1 0 1 0 0 0
10 13 24 19 13 14 14 18 15 20 19 22 21 21 25 17 15 13 9 8 7 6 5 4 3 2 1 1 1 0 1 1 0 1 2 5 4 1 1 0 0 0 0

GFSGL_con_sbcape_084.txt.gz
CAPE
2556 2542 2512 2635 2834 3110 2956 3291 2995 2890 1591 679 0 221 2626 3131 2811 2951 2352 2162 2200 2434 2693 2629 2765 3302 2676 2471 2267 2379 2006 2382 2415 2266 2710 2943 2820 3454 3288 3885 3863 3629 2886
2350 2714 2713 2933 2561 2725 2857 2902 3271 3134 3149 2991 2354 2580 2872 2698 2540 2676 2751 2150 2319 2662 2685 2178 2398 2380 3340 3182 2723 2600 2839 2847 2697 2567 2465 2091 2176 2086 4541 4099 4156 2903 2591
2135 2565 2610 2555 2675 2674 2872 2792 3187 3171 3016 2662 2650 3165 3040 3108 3194 2956 2740 2864 2754 2285 2693 2660 2828 3115 3178 2472 3523 3000 2438 2539 2542 2609 2083 2703 2166 1868 2296 3292 4130 3863 3628
914 437 2490 2612 2584 2394 3188 3210 2957 3297 3139 3026 3019 3246 2852 3025 2993 2873 3121 3021 3377 2587 3001 2990 3222 3148 3150 3197 2980 2994 2863 2898 2430 2469 1884 1620 1587 1829 2850 3040 2758 1764 1655
281 455 473 789 2231 2825 2865 2631 3169 3130 3096 3255 3189 2911 3226 2963 2259 2598 2870 2985 2676 2513 2868 2903 3123 3087 2522 2981 2617 2740 2672 2716 2579 2189 1809 1791 1845 2736 2190 2064 1617 2284 1510
5 24 153 567 758 1618 2326 2454 2651 2998 3259 3275 3035 3130 2817 1993 1298 1013 1670 2215 3059 2986 2534 3019 3229 2577 1852 1184 1171 1149 1090 2826 2962 3256 2588 1718 1813 2229 2496 2682 2360 1647 1455
0 0 3 17 136 195 612 1925 2310 2393 2374 2893 2991 3129 2970 3019 1946 1011 0 1957 2862 3012 2971 2950 2935 1846 1532 2672 1104 964 745 253 316 1099 1487 2001 2391 2387 3004 3240 2972 2814 2565
0 0 0 0 3 25 232 188 319 1003 2252 2247 2422 2818 2888 2949 2475 1953 1130 558 1488 2057 2218 2712 2897 2334 2468 2651 3045 2912 1959 1828 1391 463 551 754 910 1236 1965 2036 2020 2104 2652
1 6 0 0 0 0 3 1 13 121 319 1459 2127 2287 2485 2773 2225 1511 469 956 1454 1460 1477 1969 2129 2140 2812 2348 1577 2302 2787 3088 2478 2087 1877 1244 773 599 578 1164 1325 1065 769
0 3 4 5 6 0 0 3 35 80 166 493 1069 2012 2009 2159 2230 1852 654 1771 1935 1871 1788 1709 1049 1072 1664 1205 1072 2430 2005 1742 1832 2067 1406 269 58 201 78 204 1068 1330 1078
0 0 1 11 0 12 8 6 0 31 182 268 711 1554 2011 2011 2349 1804 898 1182 2173 2066 1913 1786 1792 1280 641 210 36 1114 1456 1865 1894 1816 1964 1788 1496 1619 1600 825 950 1209 1055
13 4 0 1 3 0 0 0 0 0 102 296 396 807 1933 1888 1388 751 10 0 181 617 1769 1923 1889 0 0 0 0 0 50 171 1323 1572 1685 1518 1243 928 705 544 1508 1372 1125
7 5 23 8 0 3 8 0 0 0 9 210 220 256 215 140 353 0 0 0 0 1 8 37 0 46 34 0 8 0 0 0 252 648 822 959 1088 1027 988 629 265 1935 1829
15 16 5 0 0 0 0 0 0 0 0 0 0 0 0 0 235 0 0 0 0 0 0 0 0 0 2 135 61 512 0 26 312 561 675 831 994 1046 1026 922 496 126 249
5 2 1 0 0 0 2 5 1 0 0 0 0 0 0 0 0 0 0 0 0 0 2 2 1 397 1603 1897 1831 1464 1557 658 528 774 979 1133 1167 1093 1041 795 545 378 623
4 1 0 0 0 0 0 0 0 0 0 0 0 0 0 0 0 0 0 0 0 0 3 1 0 12 434 466 1227 1428 1638 1457 1613 1383 1134 1102 1013 1011 1013 1118 1362 813 619
2 1 0 0 0 0 3 2 0 0 0 0 0 0 0 0 0 0 0 0 0 0 3 3 3 0 53 349 541 329 261 1236 1480 1850 1741 1771 1361 1108 880 850 845 878 1195
6 0 0 0 0 1 2 0 0 0 0 0 0 0 0 0 0 0 0 0 0 0 0 0 3 19 47 569 1222 801 512 868 1049 1434 1417 1672 1571 1598 1505 1567 1500 1186 906
0 0 0 0 2 0 0 7 4 3 2 0 1 0 0 0 0 0 0 0 0 0 0 89 81 147 301 908 1220 1185 1587 1226 83 221 1395 1999 2037 1797 1829 1776 1777 1438 899
0 1 0 0 2 3 6 12 8 9 6 8 3 2 14 17 5 1 9 15 46 26 18 66 178 240 483 765 391 172 268 1104 1274 1282 1209 1302 1743 1812 1988 1770 1680 1680 1451
0 0 0 0 0 1 12 15 14 17 23 18 9 1 0 0 0 0 0 0 0 0 0 0 0 97 340 139 249 439 609 951 983 1106 1185 1246 1551 1405 1581 1693 1678 1653 1737
0 0 0 0 0 0 3 8 14 23 30 21 18 24 3 0 0 0 16 9 2 0 0 83 6 3 3 3 6 5 1 2 24 65 279 1026 1409 1513 1402 1213 1432 1804 1774
0 0 0 0 1 5 6 7 10 18 20 23 26 28 34 30 29 23 20 5 10 6 1 3 4 2 2 6 8 6 3 1 1 1 2 3 3 562 1040 1315 1440 1641 1811
0 1 2 5 6 7 5 5 8 16 23 23 25 21 24 26 37 35 24 8 4 3 3 3 3 3 2 2 2 2 4 5 1 1 3 3 3 1 7 302 917 1375 1459
3 5 6 6 10 14 7 2 3 16 21 23 25 22 19 19 18 22 25 19 18 14 7 2 4 1 1 2 1 0 0 0 0 0 1 3 2 2 3 3 30 140 167
4 2 2 7 6 8 11 12 10 2 8 17 15 15 19 15 18 19 23 13 13 12 6 3 2 2 2 1 0 0 0 1 0 0 1 3 4 4 3 1 0 0 0

GFSGL_con_sbcape_087.txt.gz
CAPE
1456 1502 1633 2070 1975 1970 1799 2008 1297 673 462 411 247 46 572 1364 1505 1465 1340 1123 1549 1265 1023 1471 1034 1629 1079 1499 1697 1425 1349 1410 1393 1422 1911 1721 1177 935 1213 1511 2420 2658 2399
1656 1758 1789 1880 2061 2205 2193 1955 1678 534 610 266 0 0 17 870 1658 1431 1374 1500 1289 1167 1178 1553 1250 1449 1540 1762 1581 1388 1405 1043 1280 1067 962 1125 1242 1618 1634 1793 2818 2755 2481
235 1322 1228 2010 2004 2042 2086 2020 1943 1742 1060 966 570 513 1121 1378 1424 1562 1391 1461 1622 1110 1215 1401 1569 1356 1631 1569 1046 1788 1653 1467 1941 1717 1655 1545 1599 945 867 949 1393 2414 1746
151 27 171 227 523 1634 2142 2143 2180 2086 1948 1630 1733 1436 1748 1753 1888 2015 1712 1293 1339 1827 1473 1885 1605 1032 1277 1533 1424 1254 1457 1582 1542 1414 1318 1120 886 992 1375 1893 814 706 1090
11 42 12 259 328 853 1259 1955 1864 2014 2106 2033 1908 1945 2230 1833 1756 1880 1977 1842 1797 1721 1747 1685 2030 2204 2197 1961 1685 1410 1461 1453 1480 1675 1583 1420 1415 1414 1100 1460 1360 1248 782
0 2 0 88 141 126 441 965 1307 1292 1411 1855 2103 2083 1929 1929 2063 1871 1621 1398 1995 1565 1404 1630 1945 2113 2058 1801 1240 1630 1667 1743 1682 1729 1791 1982 1558 1105 1722 1778 1945 1528 1262
0 1 1 1 15 72 128 96 123 261 1256 1320 1329 1481 1782 2000 1759 1318 107 370 1219 1682 1908 1818 1640 1631 1885 1705 1734 802 128 123 460 591 610 513 775 797 1119 1295 1071 1350 1305
0 0 0 0 0 0 3 5 63 68 157 756 1178 1360 1476 1596 1759 1621 694 1 281 612 1170 1811 1886 1806 1640 1521 1764 1914 1386 813 561 81 134 454 256 264 263 467 703 1101 1076
0 0 0 0 0 0 0 0 2 8 40 110 278 711 1051 1371 1494 1322 331 194 484 665 742 937 1275 1481 1879 2039 1195 1137 1217 2000 2077 1226 811 424 352 189 106 478 960 1075 855
0 0 0 0 0 0 0 0 0 0 8 193 197 289 761 1076 1249 1010 320 280 996 1184 1216 962 829 684 638 1058 619 827 904 1056 1230 1025 721 188 23 73 3 0 410 383 485
0 0 0 0 0 0 0 0 0 0 0 0 50 58 313 666 51 1 1 0 533 927 1219 1265 1215 58 0 0 0 43 571 440 586 600 1137 1162 1057 867 544 195 155 433 664
0 0 0 0 0 0 0 0 0 0 0 0 0 50 263 0 0 0 0 0 0 2 1 18 11 1 2 1 0 0 0 0 0 159 476 734 1067 1131 1001 670 837 523 555
0 0 0 0 0 0 0 0 0 0 0 0 0 0 0 0 0 0 0 0 0 0 0 0 0 0 0 0 0 0 0 0 0 0 68 297 421 571 673 629 391 126 617
0 0 0 0 0 0 0 0 0 0 0 0 0 0 0 0 0 0 0 0 0 0 0 0 0 0 0 0 0 1 23 167 95 17 12 97 221 337 501 591 650 644 511
0 0 0 0 0 0 0 0 0 0 0 0 0 0 0 0 0 0 0 0 0 0 0 0 0 0 0 0 267 1068 975 514 0 20 115 236 329 409 533 638 670 599 415
0 0 0 0 0 0 0 0 0 0 0 0 0 0 0 0 0 0 0 0 0 1 1 0 0 0 0 0 0 25 296 793 907 778 479 371 504 536 718 767 665 611 473
0 0 0 0 0 0 0 0 0 0 0 0 0 0 0 0 0 0 0 0 0 0 0 0 0 0 0 0 0 0 89 198 179 228 531 716 897 792 564 575 609 440 521
0 0 0 0 0 0 0 0 0 0 0 0 0 0 0 0 0 0 0 0 0 0 0 0 0 0 0 0 0 0 167 419 21 11 218 13 16 38 6 51 512 516 302
0 0 0 0 0 0 0 0 0 0 0 0 0 0 0 0 0 0 0 0 0 0 0 0 0 1 8 15 19 61 196 491 401 457 223 0 2 0 0 0 53 383 642
0 0 0 0 0 0 0 0 0 0 0 0 0 0 0 0 0 0 0 0 0 0 0 0 0 0 0 0 15 19 44 57 91 158 240 204 0 0 0 2 496 656 478
0 0 0 0 0 0 0 0 0 0 0 0 0 0 0 0 0 0 0 0 0 0 0 0 0 0 0 1 3 4 5 5 10 15 14 6 140 471 431 294 367 386 492
0 0 0 0 0 0 0 0 0 0 0 0 0 0 0 0 0 4 4 4 2 0 0 0 1 0 0 0 1 3 6 2 1 3 10 12 13 18 51 511 401 336 414
0 0 0 0 0 0 0 0 0 1 0 0 2 4 3 6 9 8 8 11 12 7 3 0 1 0 0 0 0 0 3 5 7 6 0 0 2 11 14 10 255 352 191
0 0 0 0 0 0 0 0 0 0 0 1 8 5 1 8 11 16 18 14 8 0 1 5 5 1 0 0 0 0 1 4 4 3 1 2 3 4 0 2 10 44 370
0 0 0 0 0 0 0 0 0 1 1 6 0 10 6 3 13 17 23 14 11 7 1 7 23 3 0 0 0 0 0 0 0 0 0 2 1 2 5 7 6 6 41
0 0 0 0 0 0 0 0 0 5 3 6 8 8 9 2 13 17 22 19 16 16 16 12 12 9 6 3 0 0 0 0 0 0 0 1 2 2 5 5 3 4 3

GFSGL_con_sbcape_090.txt.gz
CAPE
802 746 764 1107 1072 969 1117 1148 838 410 397 425 390 623 613 1045 1203 985 774 788 966 1018 842 985 974 772 883 763 1259 874 882 1012 795 742 1462 1214 993 947 1207 821 808 1486 2402
218 507 895 1044 1216 1199 1143 1274 1153 599 282 167 174 79 67 473 947 1087 1004 1252 916 875 979 762 1124 908 795 1148 1381 760 1265 811 1211 1272 808 987 1087 1018 539 737 1056 1538 1827
73 146 583 582 783 1232 1507 1622 1360 700 369 336 118 0 0 16 552 1232 1060 900 1034 1108 853 721 1021 960 891 811 1040 845 1015 1006 1237 1311 1086 954 918 413 928 821 1042 853 783
65 14 5 178 250 436 912 1257 1031 1210 704 556 507 331 406 720 904 965 1243 849 867 1008 1198 1116 1191 1160 932 674 808 924 765 883 863 867 765 795 691 790 726 910 1216 702 999
32 37 29 140 148 314 745 920 1430 1079 1128 1154 1115 1235 1170 1204 1212 1209 1424 1515 1199 991 1223 1401 1350 1501 1568 1383 1319 1270 928 871 817 858 1076 991 1125 1114 1068 966 1156 887 630
25 1 10 35 81 96 83 100 244 511 903 1087 1302 1175 1105 1479 1870 1420 1167 1270 1457 1395 1257 1096 1062 1312 1334 1437 1441 1084 1146 1177 1050 1048 1030 1087 936 825 707 1118 840 720 431
1 2 2 16 9 9 10 35 67 76 165 478 649 903 1176 1225 1310 1092 590 148 488 777 1154 1200 1135 1446 1483 1471 1522 1315 230 207 943 900 794 457 401 274 363 262 183 334 371
1 1 1 1 1 1 3 0 23 10 42 90 221 305 487 944 1182 909 643 83 113 179 525 1045 1299 1401 1263 1216 1156 1128 1180 1026 354 18 127 438 255 361 77 277 147 206 354
0 0 0 1 0 0 0 5 4 0 0 17 117 114 226 439 468 76 1 201 283 450 403 429 566 785 1102 1372 710 986 948 934 1419 1222 410 349 307 259 115 160 347 433 749
0 0 0 0 0 0 0 0 0 0 0 1 0 53 52 458 1 1 1 26 308 530 782 796 583 271 293 0 42 675 857 769 615 671 801 223 12 2 0 0 365 492 486
0 0 0 0 0 0 0 0 0 0 0 0 0 1 4 0 0 0 0 0 0 2 3 169 242 0 1 0 1 0 0 42 0 14 203 488 772 608 321 22 20 346 541
0 0 0 0 0 0 0 0 0 0 0 0 0 2 1 0 0 0 0 0 0 0 0 0 0 0 0 0 0 0 0 0 0 0 0 99 342 516 728 623 314 153 359
0 0 0 0 0 0 0 0 0 0 0 0 0 0 0 0 0 1 0 0 0 0 0 0 0 0 0 0 0 0 0 0 0 0 0 0 79 238 372 505 420 536 469
0 0 0 0 0 0 0 0 0 0 0 0 0 0 0 0 0 0 0 0 0 0 0 0 0 0 0 0 0 0 0 0 0 2 140 300 232 123 150 248 286 339 358
0 0 0 0 0 0 0 0 0 0 0 0 0 0 0 0 0 0 0 0 0 0 0 0 0 0 0 0 0 0 0 83 295 117 50 109 71 89 165 183 236 334 366
0 0 0 0 0 0 0 0 0 0 0 0 0 0 0 0 0 0 0 0 0 0 0 0 0 0 0 0 0 0 0 0 0 8 135 93 141 222 316 358 235 400 527
0 0 0 0 0 0 0 0 0 0 0 0 0 0 0 0 0 0 0 0 0 0 0 0 0 0 0 0 0 0 0 0 0 0 56 81 80 195 450 473 520 567 489
0 0 0 0 0 0 0 0 0 0 0 0 0 0 0 0 0 0 0 0 0 0 0 0 0 0 0 0 1 9 18 14 46 94 85 5 1 48 9 0 15 24 0
0 0 0 0 0 0 0 0 0 0 0 0 0 0 0 0 0 0 0 0 0 0 0 0 0 0 0 0 0 0 23 33 18 18 17 30 88 72 6 0 0 0 0
0 0 0 0 0 0 0 0 0 0 0 0 0 0 0 0 0 0 0 0 0 0 0 0 1 7 5 10 21 15 11 1 3 6 5 9 12 16 14 15 1 0 0
0 0 0 0 0 0 0 0 0 0 0 0 0 0 0 0 0 0 0 0 0 0 2 3 2 2 0 0 11 6 0 1 0 0 2 3 1 3 6 13 23 19 145
0 0 0 0 0 0 0 0 0 0 0 0 0 0 1 0 1 1 1 1 1 1 1 6 11 13 25 14 12 1 0 1 1 1 0 3 1 1 3 7 15 18 17
0 0 0 0 0 0 0 0 0 0 0 0 0 1 2 1 1 4 0 1 2 3 8 12 8 8 1 23 29 15 2 0 2 3 6 10 11 0 5 6 1 9 15
0 0 0 0 0 0 0 0 0 0 0 0 1 0 0 1 6 4 3 0 2 10 15 15 10 12 2 0 4 15 16 5 1 4 5 6 6 0 8 7 9 13 10
0 0 0 0 0 0 0 0 0 0 0 0 1 2 4 6 9 10 8 4 7 6 10 17 21 19 18 8 0 0 3 0 0 0 0 4 0 2 5 4 2 3 7
0 0 0 0 0 0 0 0 0 0 0 0 1 2 0 1 7 8 9 9 9 12 14 9 14 18 20 22 16 5 0 0 0 0 0 1 2 0 4 3 2 3 4

GFSGL_con_sbcape_093.txt.gz
CAPE
325 220 253 405 495 580 471 476 647 376 240 350 603 539 631 726 809 715 603 659 667 743 593 687 683 473 568 361 895 538 678 489 709 693 659 834 743 721 662 513 777 1127 1119
155 375 515 498 626 678 527 710 898 841 204 297 286 268 331 367 634 927 921 898 807 732 610 598 604 832 559 438 1001 543 820 605 794 730 581 714 789 646 471 509 861 954 663
10 79 257 350 512 687 806 886 922 1028 406 188 131 119 49 26 136 623 927 707 727 750 818 784 547 564 661 526 431 559 514 692 695 886 765 464 535 314 648 613 904 665 702
39 42 118 37 82 208 327 610 680 902 697 336 223 97 2 0 11 226 680 813 672 688 736 834 801 889 877 690 504 520 487 451 367 477 377 411 469 552 503 612 828 539 628
35 22 39 74 73 64 32 61 316 612 836 609 354 440 395 494 690 804 806 974 980 771 680 673 869 986 1121 1006 941 1052 923 762 569 498 539 493 549 491 520 451 641 415 190
31 34 52 16 4 6 3 8 4 41 142 346 609 668 714 1125 1519 1309 923 902 1001 1045 1077 964 758 845 869 902 487 376 815 1127 1084 587 658 698 627 421 327 402 386 234 274
1 2 2 3 0 0 0 0 2 1 15 45 152 322 530 490 883 695 456 419 576 601 738 808 845 1014 1020 937 1100 840 423 41 393 865 783 656 541 211 144 161 60 51 91
0 3 5 4 2 0 0 0 0 0 0 8 54 54 97 249 43 36 1 5 199 177 182 356 594 762 899 989 944 876 812 756 474 37 70 491 364 288 89 285 191 22 4
0 0 0 0 0 4 0 1 0 0 0 0 12 30 84 98 1 1 62 133 235 260 230 267 317 374 256 14 52 462 580 635 767 806 318 176 132 50 36 16 129 224 738
0 0 0 0 0 0 0 0 0 0 0 0 0 34 5 0 0 0 0 0 0 0 0 8 1 1 1 1 1 0 0 32 71 26 30 133 11 0 0 0 241 402 543
0 0 0 0 0 0 0 0 0 0 0 0 18 8 0 0 0 0 0 0 0 0 0 0 0 0 0 0 0 0 1 0 0 0 0 8 56 192 194 13 0 119 376
0 0 0 0 0 0 0 0 0 0 0 0 0 0 0 0 0 0 0 0 0 0 0 0 0 0 0 0 0 0 0 1 1 1 0 2 60 106 175 292 168 3 133
0 0 0 0 0 0 0 0 0 0 0 0 0 0 0 0 0 0 0 0 0 0 0 0 0 0 0 0 0 0 0 0 0 1 0 0 6 32 7 49 67 238 160
0 0 0 0 0 0 0 0 0 0 0 0 0 0 0 0 0 0 0 0 0 0 0 0 0 0 0 0 0 0 0 0 0 2 3 37 184 208 104 17 15 13 11
0 0 0 0 0 0 0 0 0 0 0 0 0 0 0 0 0 0 0 0 0 0 0 0 0 0 0 0 0 0 0 0 0 0 2 5 38 92 99 88 10 24 27
0 0 0 0 0 0 0 0 0 0 0 0 0 0 0 0 0 0 0 0 0 1 0 0 0 0 0 0 0 0 0 0 0 1 2 3 2 107 212 247 138 167 176
0 0 0 0 0 0 0 0 0 0 0 0 0 0 0 0 0 0 0 0 0 0 0 0 0 0 0 0 0 0 0 0 9 10 23 27 2 7 1 42 156 258 336
0 0 0 0 0 0 0 0 0 0 0 0 0 0 0 0 0 0 0 0 0 0 0 0 0 0 0 0 0 0 0 6 16 2 12 11 11 10 10 34 72 15 6
0 0 0 0 0 0 0 0 0 0 0 0 0 0 0 0 0 0 0 0 0 0 0 0 0 0 2 9 4 1 0 7 17 4 6 1 1 9 10 9 5 1 14
0 0 0 0 0 0 0 0 0 0 0 0 0 0 0 0 0 0 0 0 0 0 0 0 1 1 2 4 5 7 12 11 9 15 18 5 2 1 4 5 4 2 6
0 0 0 0 0 0 0 0 0 0 0 0 0 0 0 0 0 0 0 0 0 1 1 2 2 1 1 6 6 1 14 17 31 22 9 11 7 2 0 6 7 6 10
0 0 0 0 0 0 0 0 0 0 0 0 0 0 0 0 0 0 0 2 3 1 0 1 4 5 5 9 2 11 14 28 41 23 11 15 0 1 0 0 0 1 1
0 0 0 0 0 0 0 0 0 0 0 0 0 0 0 0 0 0 0 2 2 2 3 3 3 4 3 7 11 3 8 6 13 25 31 27 4 5 0 0 0 0 2
0 0 0 0 0 0 0 0 0 0 0 0 0 0 0 1 1 0 0 0 2 4 4 4 4 8 9 5 12 18 17 15 6 5 15 31 27 12 0 0 0 0 0
0 0 0 0 0 0 0 0 0 0 0 0 0 0 0 0 0 0 0 0 0 3 4 5 3 7 10 11 12 12 6 0 0 0 5 9 15 17 11 3 0 0 0
0 0 0 0 0 0 0 0 0 0 0 0 0 0 0 0 0 0 0 1 1 2 6 5 7 9 12 10 11 5 0 0 0 0 1 3 4 4 5 7 5 1 0

GFSGL_con_sbcape_096.txt.gz
CAPE
61 17 112 197 276 296 246 334 468 400 262 131 215 369 538 710 879 905 672 744 834 885 850 944 1080 806 870 716 961 1042 939 719 1167 1421 837 1452 1470 1570 1629 1512 1236 1853 1408
173 165 93 138 280 370 302 362 572 759 337 87 268 467 550 383 672 904 901 970 541 846 884 802 696 855 991 774 957 1302 972 1051 1081 1264 969 1085 1268 1272 1159 1208 1366 1290 1324
6 97 194 175 293 302 445 585 619 717 566 224 177 183 106 130 310 556 711 880 807 822 508 886 750 743 1035 884 869 862 763 915 932 1136 1212 783 886 741 1140 1300 1303 1414 897
35 44 27 59 1 58 157 216 306 561 765 360 228 251 177 138 51 32 399 918 923 910 747 814 884 830 834 1076 945 1006 786 881 867 894 846 720 701 1067 797 856 1121 999 1030
33 15 32 34 3 3 2 1 19 101 311 504 472 350 261 125 142 331 516 799 1069 1147 1086 1005 1001 898 775 814 1432 1655 1217 1239 1208 1085 997 830 1007 1047 1158 954 838 842 939
28 20 1 17 3 0 9 1 0 0 0 1 238 382 451 594 845 554 590 1083 1227 1309 1562 1469 1277 836 947 754 339 105 503 1589 1670 1172 1563 1390 1551 967 907 855 832 986 1149
2 2 4 0 2 0 0 0 0 0 0 0 16 22 62 176 1 1 0 288 908 951 973 1012 967 1046 887 1083 933 626 191 8 165 1575 1468 1560 1388 1322 969 1015 915 552 896
0 0 1 4 4 3 0 0 0 0 0 0 0 6 84 18 1 1 1 72 270 150 224 297 389 462 50 16 334 897 1061 1083 781 226 315 912 1155 1138 777 1030 942 521 380
0 0 0 0 0 0 2 4 0 0 0 0 0 44 0 1 0 0 2 63 36 18 59 16 13 4 2 0 0 18 96 273 308 220 20 44 26 0 5 96 583 673 883
0 0 0 0 0 0 0 0 0 0 0 0 5 4 0 3 0 0 0 0 0 0 0 0 1 0 1 2 0 0 0 0 0 0 0 73 101 107 0 0 314 647 831
0 0 0 0 0 0 0 0 0 0 0 0 0 0 0 0 0 0 0 0 0 0 0 0 0 0 0 0 0 0 0 0 0 0 0 0 11 187 314 425 42 314 670
0 0 0 0 0 0 0 0 0 0 0 0 0 0 0 0 0 0 0 0 0 0 0 0 0 0 0 0 0 0 0 1 0 0 0 0 0 1 200 357 709 277 441
0 0 0 0 0 0 0 0 0 0 0 0 0 0 0 0 0 0 0 0 0 0 0 0 0 0 0 0 0 0 0 0 3 2 4 7 7 28 229 432 417 514 684
0 0 0 0 0 0 0 0 0 0 0 0 0 0 0 0 0 0 0 0 0 0 0 0 0 0 0 0 0 0 0 0 2 6 4 10 19 18 31 404 315 603 397
0 0 0 0 0 0 0 0 0 0 0 0 0 0 0 0 0 0 0 0 0 0 1 0 0 0 0 0 0 0 0 1 2 12 1 2 8 5 8 40 230 163 178
0 0 0 0 0 0 0 0 0 0 0 0 0 0 0 0 0 0 0 0 0 0 0 1 0 0 0 0 0 0 1 1 5 5 2 19 35 21 11 14 18 31 52
0 0 0 0 0 0 0 0 0 0 0 0 0 0 0 0 0 0 0 0 0 0 0 0 0 0 0 2 18 16 13 5 10 3 41 26 14 4 4 10 10 6 8
0 0 0 0 0 0 0 0 0 0 0 0 0 0 0 0 0 0 0 0 0 0 0 0 0 0 0 1 0 0 1 4 14 18 25 23 32 21 18 12 10 13 12
0 0 0 0 0 0 0 0 0 0 0 0 0 0 0 0 0 0 0 0 0 0 0 0 0 0 0 0 1 12 21 22 21 40 47 21 6 17 9 7 5 2 0
0 0 0 0 0 0 0 0 0 0 0 0 0 0 0 0 0 0 0 0 0 0 2 4 3 4 4 4 7 4 14 10 12 22 26 23 21 19 16 5 4 3 3
0 0 0 0 0 0 0 0 0 0 0 0 0 0 0 0 0 0 0 0 0 1 2 2 3 4 2 4 10 17 7 11 12 17 19 8 45 34 26 23 16 8 13
0 0 0 0 0 0 0 0 0 0 0 0 0 0 0 0 0 0 1 1 2 2 2 5 4 3 3 6 12 14 21 30 25 22 30 50 44 42 31 28 17 11 14
0 0 0 0 0 0 0 0 0 0 0 0 0 0 0 0 0 1 2 2 2 1 2 4 5 3 2 1 8 15 12 21 30 36 34 28 21 18 15 22 30 23 13
0 0 0 0 0 0 0 0 0 0 0 0 0 0 0 0 0 1 2 2 2 1 1 2 2 3 0 2 9 9 14 19 24 21 22 21 18 11 8 22 47 27 20
0 0 0 0 0 0 0 0 0 0 0 0 0 0 0 0 0 0 0 2 2 0 1 1 2 7 5 7 6 6 4 0 1 0 5 7 10 6 11 17 19 24 23
0 0 0 0 0 0 0 0 0 0 0 0 0 0 0 0 0 0 1 2 2 1 3 1 6 6 1 7 4 0 0 0 1 0 2 3 4 5 7 8 10 15 18

GFSGL_con_sbcape_099.txt.gz
CAPE
410 668 934 958 1374 1479 1390 1350 1622 1556 1621 1628 1528 1236 1260 1422 1772 2359 2279 1779 2074 2101 1940 2177 2273 2365 1786 1642 1801 2123 2071 1901 1579 1179 1814 1728 2374 2356 2138 2378 1906 2258 1539
634 712 706 1076 1276 1414 1489 1501 1531 1433 1687 1645 1539 1713 1781 1674 1865 2103 2056 1908 2057 1902 1706 1899 1949 1694 2303 2157 1736 2196 1940 2141 1844 1974 2097 2088 2315 2574 2658 2809 1947 1698 2161
415 774 853 912 976 1073 1313 1439 1498 1418 1782 1711 1550 1662 1783 1408 1219 1529 1806 1777 1978 1908 1842 1905 1700 1883 2257 1969 2293 2757 1783 1940 2192 2160 2173 2171 2265 2205 2286 2293 2560 2572 1838
229 294 387 757 1106 1121 1302 1233 1484 1603 1622 1822 1637 1586 1567 1198 1049 1045 1144 1588 1904 1626 1557 1872 1861 2010 2169 2197 1865 2318 1884 2405 2210 1757 1695 1837 1979 2131 2262 2186 1919 1547 1536
36 29 71 196 186 542 694 740 708 1169 1339 1612 1631 1511 1488 1289 859 1000 1135 1133 1247 1970 2058 1839 1851 1766 1277 1199 2211 2953 2203 2209 2468 1264 1471 1581 1599 1564 1864 1770 1587 1435 1821
60 68 70 40 142 258 301 291 294 366 616 723 796 891 823 969 0 1 211 1783 2083 2224 2195 2229 2105 1427 1216 410 246 83 314 2081 2619 1571 1465 1724 2634 2443 1953 1897 1758 1592 1442
137 110 48 9 4 9 77 126 135 181 207 256 325 460 250 4 0 1 1 1452 1976 2113 1968 1805 1674 1370 460 915 1356 889 523 28 30 1671 2211 2283 2271 2274 2355 2340 2079 2026 1956
0 2 4 5 3 1 18 37 41 57 47 117 334 8 0 0 0 0 5 933 1147 797 370 245 178 2 0 0 336 1218 1581 1757 1888 1563 1749 1902 2042 2007 2027 2044 2028 1728 1747
0 0 0 3 3 3 3 1 0 2 1 218 3 2 0 0 0 0 0 0 3 4 1 0 0 0 1 1 0 0 46 470 308 38 2 0 0 0 31 477 1372 1513 1649
0 0 0 0 0 0 2 0 3 5 31 9 2 0 0 0 0 0 0 0 0 1 0 0 0 0 0 0 0 0 0 0 0 0 0 0 0 148 121 330 1049 1379 1481
0 0 0 0 0 0 0 0 0 0 0 0 0 0 0 0 0 0 0 0 0 0 0 0 0 0 0 0 0 0 0 0 0 0 0 0 0 0 0 129 821 1305 1365
0 0 0 0 0 0 0 0 0 0 0 0 0 0 0 0 0 0 0 0 0 0 0 0 0 0 0 0 0 0 0 0 0 0 0 0 0 1 40 111 255 385 901
0 0 0 0 0 0 0 0 0 0 0 0 0 0 0 0 0 0 0 0 0 0 0 0 0 0 0 0 0 0 0 0 0 0 5 8 14 20 17 34 142 352 677
0 0 0 0 0 0 0 0 0 0 0 0 0 0 0 0 0 0 0 0 0 0 0 0 0 0 0 0 0 0 0 0 0 0 4 4 5 8 25 20 16 14 251
0 0 0 0 0 0 0 0 0 0 0 0 0 0 0 0 0 0 0 0 0 0 0 0 0 0 0 0 0 0 0 0 0 12 3 9 7 14 9 4 6 3 3
0 0 0 0 0 0 0 0 0 0 0 0 0 0 0 0 0 0 0 0 0 0 0 0 0 0 0 0 0 0 0 0 0 0 0 0 2 6 14 4 4 12 10
0 0 0 0 0 0 0 0 0 0 0 0 0 0 0 0 0 0 0 0 0 0 0 0 0 0 0 0 0 0 0 0 0 0 0 0 0 0 0 0 0 5 5
0 0 0 0 0 0 0 0 0 0 0 0 0 0 0 0 0 0 0 0 0 0 0 0 0 0 0 0 0 0 0 0 0 0 0 0 0 1 2 8 12 8 10
0 0 0 0 0 0 0 0 0 0 0 0 0 0 0 0 0 0 0 0 0 0 0 0 0 0 0 0 0 0 0 0 0 0 0 0 0 2 5 6 4 1 4
0 0 0 0 0 0 0 0 0 0 0 0 0 0 0 0 0 0 0 0 0 0 0 0 0 0 0 0 0 0 0 0 0 0 0 0 0 4 5 10 15 15 12
0 0 0 0 0 0 0 0 0 0 0 0 0 0 0 0 0 0 0 0 0 0 0 0 0 0 1 1 2 3 1 1 2 4 6 5 5 5 9 6 5 15 33
0 0 0 0 0 0 0 0 0 0 0 0 0 0 0 0 0 0 0 0 0 0 0 0 1 1 2 4 8 8 8 8 9 12 16 17 18 15 13 12 12 16 22
0 0 0 0 0 0 0 0 0 0 0 0 0 0 0 0 0 0 0 0 0 0 0 1 3 2 3 6 6 10 13 12 15 15 17 15 16 14 17 21 23 24 16
0 0 0 0 0 0 0 0 0 0 0 0 0 0 0 0 0 0 0 0 0 0 1 4 5 4 6 6 7 4 3 6 12 15 19 19 16 13 17 19 19 16 21
0 0 0 0 0 0 0 0 0 0 0 0 0 0 0 0 0 0 0 0 0 0 0 2 4 4 7 8 2 3 0 0 2 0 9 12 13 10 10 10 9 7 10
0 0 0 0 0 0 0 0 0 0 0 0 0 0 0 0 0 0 0 0 0 0 0 1 4 4 10 8 7 1 0 0 0 0 2 5 7 7 8 9 7 8 6

GFSGL_con_sbcape_102.txt.gz
CAPE
935 815 871 928 742 1048 947 793 1097 956 1592 1799 2228 2115 1847 1679 1782 2204 2024 1577 1884 1538 1693 1866 2089 2539 1596 1127 1038 1130 1213 1205 1123 678 901 935 2208 2314 2338 2503 1660 1136 743
927 1074 925 520 819 673 1037 853 1190 1079 1472 1404 1674 2286 1790 1291 1585 2038 1725 1211 1652 1328 1278 1415 1678 1368 2197 2112 1543 1676 1836 1826 1477 1915 2177 1453 1590 2012 2172 2720 1973 1232 1419
1176 1000 1348 543 532 788 920 1019 1252 1052 1158 1264 1601 1555 1179 1666 1612 1611 1577 1639 1485 1354 1163 1261 1282 1376 1667 1422 1907 1665 1131 1530 1954 1688 1386 1060 1313 1497 1815 2342 1934 1807 982
891 1010 707 740 742 792 1035 1352 1257 1665 1013 1035 1248 1691 1414 1231 1506 1725 1595 1619 1525 1291 1506 1300 1401 1419 1607 1832 1621 1901 1806 1947 1696 1512 1158 970 974 1328 1538 1062 776 727 794
231 258 623 970 1042 1236 1223 1438 1500 1588 1228 1940 1413 1768 1819 1557 1084 1879 1916 1804 1870 1669 1687 1594 1495 1317 995 1120 1978 2148 1925 1919 1317 1214 1030 947 824 1904 1761 1095 834 782 1318
67 35 59 143 373 764 1017 1206 1313 1528 1762 1808 1834 1794 1588 1243 0 1 140 1837 2015 1718 1666 1811 1552 1089 1195 766 608 378 543 2122 2140 2080 1483 1454 2152 2194 1427 1169 1470 1381 1508
75 40 41 124 154 175 284 618 836 1043 1134 1144 1185 1135 273 59 0 0 0 1544 1950 1535 1674 1840 1591 624 483 782 791 763 751 387 138 2102 2182 2183 2337 2799 2611 2594 3008 2316 2242
263 136 227 101 32 10 26 104 252 304 510 725 392 144 0 0 0 0 135 1448 814 423 427 169 73 0 0 0 335 962 1413 1647 1690 1602 2013 2040 2163 1603 1434 2134 2093 2265 2285
2 5 14 5 3 3 2 24 69 278 322 426 103 3 0 0 0 0 170 291 194 27 0 0 0 0 0 0 0 7 46 202 9 0 0 0 0 0 8 537 1096 2413 1796
0 0 0 0 34 88 64 4 2 162 26 0 0 0 0 0 0 0 0 54 2 0 0 0 0 0 0 0 0 0 0 0 0 0 0 0 0 0 0 413 1257 1496 1854
0 0 0 0 6 4 4 9 7 0 0 0 0 0 0 0 0 0 0 0 0 0 0 0 0 0 0 0 0 0 0 0 0 0 0 0 0 8 31 169 355 345 298
1 0 0 0 0 1 11 14 3 0 0 0 0 0 0 0 0 0 0 0 0 0 0 0 0 0 0 0 0 0 0 0 0 0 0 0 2 0 0 2 29 111 429
0 0 0 0 0 0 4 0 0 0 0 0 0 0 0 0 0 0 0 0 0 0 0 0 0 0 0 0 0 0 0 0 0 0 0 0 0 0 5 16 0 3 5
0 0 0 0 0 0 0 0 0 0 0 0 0 0 0 0 0 0 0 0 0 0 0 0 0 0 0 0 0 0 0 0 0 0 0 0 0 0 0 0 0 0 0
0 0 0 0 0 0 0 0 0 0 0 0 0 0 0 0 0 0 0 0 0 0 0 0 0 0 0 0 0 0 0 0 0 0 0 0 0 0 0 0 0 0 0
0 0 0 0 0 0 0 0 0 0 0 0 0 0 0 0 0 0 0 0 0 0 0 0 0 0 0 0 0 0 0 0 0 0 0 0 0 0 0 0 0 0 0
0 0 0 0 0 0 0 0 0 0 0 0 0 0 0 0 0 0 0 0 0 0 0 0 0 0 0 0 0 0 0 0 0 0 0 0 0 0 0 0 0 0 0
0 0 0 0 0 0 0 0 0 0 0 0 0 0 0 0 0 0 0 0 0 0 0 0 0 0 0 0 0 0 0 0 0 0 0 0 0 0 0 0 0 0 0
0 0 0 0 0 0 0 0 0 0 0 0 0 0 0 0 0 0 0 0 0 0 0 0 0 0 0 0 0 0 0 0 0 0 0 0 0 0 0 0 0 0 0
0 0 0 0 0 0 0 0 0 0 0 0 0 0 0 0 0 0 0 0 0 0 0 0 0 0 0 0 0 0 0 0 0 0 0 0 0 0 0 0 0 0 0
0 0 0 0 0 0 0 0 0 0 0 0 0 0 0 0 0 0 0 0 0 0 0 0 0 0 0 0 0 0 0 0 0 0 1 1 4 3 3 3 4 3 4
0 0 0 0 0 0 0 0 0 0 0 0 0 0 0 0 0 0 0 0 0 0 0 0 0 0 0 0 0 0 0 0 0 2 5 7 9 6 6 6 7 6 10
0 0 0 0 0 0 0 0 0 0 0 0 0 0 0 0 0 0 0 0 0 0 0 0 0 0 0 0 0 0 0 1 7 9 12 14 14 15 14 13 10 9 16
0 0 0 0 0 0 0 0 0 0 0 0 0 0 0 0 0 0 0 0 0 0 0 0 0 0 0 0 1 1 3 6 8 10 12 13 12 15 14 18 20 21 25
0 0 0 0 0 0 1 2 7 7 1 1 0 0 0 0 0 0 0 0 0 0 0 0 0 0 0 0 3 4 0 0 0 0 2 12 10 5 6 5 11 7 14
0 0 4 4 1 0 0 5 6 11 14 13 9 5 1 0 0 0 1 2 3 3 0 0 0 0 1 2 4 0 0 0 0 0 1 4 7 9 6 10 8 11 12

GFSGL_con_sbcape_105.txt.gz
CAPE
1055 950 833 661 586 781 599 708 974 948 1148 1403 1665 1708 1590 1898 1903 1978 2823 1968 1989 1772 1707 1667 1455 2207 1670 1327 1404 1068 677 705 874 1017 847 1239 3369 3012 2019 2408 1524 2606 966
1194 1295 1124 955 689 523 649 647 1079 1234 1390 1430 1794 1654 1367 1691 1785 1978 2284 1278 1416 1507 1465 1545 1533 1086 1933 2859 1715 3361 1789 2270 951 2851 1810 1483 2690 1739 1593 3441 1532 1071 1277
1370 1305 1831 991 827 715 572 664 911 1291 1312 1439 1415 1415 1559 1680 1399 1769 2020 1516 1578 1217 1134 1372 1453 1530 1865 1782 2083 1833 1188 1839 2114 1670 1052 752 1212 1473 1979 3008 3259 2902 889
758 1249 1823 1441 900 941 1971 778 910 1405 1375 1219 1663 1884 1652 1554 1629 1432 1588 1760 1738 1437 1475 1862 1849 1520 1705 1946 1878 2437 2359 2177 1656 1593 1334 1387 1596 2259 3063 1167 1152 762 893
412 884 836 1885 1530 1413 1386 1611 946 1018 1141 1210 1217 2236 1377 1338 714 1282 1519 1721 1963 1789 1421 1479 1585 1171 772 1047 1347 2475 2492 2138 1371 1317 1096 893 1113 1759 1422 1031 1365 1203 1810
364 515 951 1104 1189 1479 1413 1396 1416 1283 1257 1308 1337 1527 1463 1282 0 0 0 1815 1717 2067 2073 1564 1237 1619 1155 1117 924 828 973 2321 2270 1860 1533 1358 3015 2001 1745 1822 2121 1649 1669
291 280 272 350 240 386 587 1095 1161 1186 1269 1431 1262 1300 1120 310 0 0 0 1130 1703 1993 1861 1854 2011 794 1054 1211 548 539 528 489 324 1793 2370 2698 2586 2892 2502 2994 2727 2588 2014
674 365 256 144 161 227 177 124 234 548 927 942 824 277 95 0 0 0 0 1442 1823 1576 1544 1273 1105 510 0 0 33 775 965 1359 1610 1285 1804 1122 1086 404 266 994 1907 2181 2259
570 528 379 296 166 21 11 54 97 247 433 272 165 88 0 0 0 0 0 1174 582 373 84 27 39 0 0 0 14 65 91 107 0 0 0 0 0 0 0 10 442 1992 2178
2 44 50 76 1 1 0 0 0 3 2 16 0 0 0 0 0 0 0 328 427 97 0 0 0 0 0 0 0 0 0 0 0 0 9 0 9 25 0 49 612 508 547
0 0 0 0 0 5 5 29 6 1 0 0 0 0 0 0 0 0 0 0 0 23 13 0 0 0 0 0 0 0 0 0 0 0 0 4 33 92 129 85 583 71 15
0 5 0 0 0 2 28 3 2 1 0 0 0 0 0 0 0 0 0 0 0 0 0 0 0 0 0 0 0 0 0 0 0 0 0 0 0 0 0 0 299 21 1
6 16 14 3 7 20 13 15 2 0 0 0 0 0 0 0 0 0 0 0 0 0 0 0 0 0 0 0 0 0 0 0 0 0 0 0 0 0 20 9 1 2 4
0 4 1 0 4 9 19 4 5 18 17 13 7 0 0 0 0 0 0 0 0 0 0 0 0 0 0 0 0 0 0 0 0 0 0 0 0 0 0 0 0 0 0
5 0 0 0 0 0 0 0 0 0 0 0 1 0 0 0 0 0 0 0 0 0 0 0 0 0 0 0 0 0 0 0 0 0 0 0 0 0 0 0 0 0 0
0 0 0 0 0 0 0 0 0 0 0 0 0 0 0 0 0 0 0 0 0 0 0 0 0 0 0 0 0 0 0 0 0 0 0 0 0 0 0 0 0 0 0
0 0 0 0 0 0 0 0 0 0 0 0 0 0 0 0 0 0 0 0 0 0 0 0 0 0 0 0 0 0 0 0 0 0 0 0 0 0 0 0 0 0 0
0 0 0 0 0 0 0 0 0 0 0 0 0 0 0 0 0 0 0 0 0 0 0 0 0 0 0 0 0 0 0 0 0 0 0 0 0 0 0 0 0 0 0
0 0 0 0 0 0 0 0 0 0 0 0 0 0 0 0 0 0 0 0 0 0 0 0 0 0 0 0 0 0 0 0 0 0 0 0 0 0 0 0 0 0 0
0 0 0 0 0 0 0 0 0 0 0 0 0 0 0 0 0 0 0 0 0 0 0 0 0 0 0 0 0 0 0 0 0 0 0 0 0 0 0 0 0 0 0
0 0 0 0 0 0 0 0 0 0 0 0 0 0 0 0 0 0 0 0 0 0 0 0 0 0 0 0 0 0 0 0 0 0 0 0 0 0 0 0 0 0 0
0 0 0 0 0 0 0 0 0 0 0 0 0 0 0 0 0 0 0 0 0 0 0 0 0 0 0 0 0 0 0 0 0 0 0 0 0 0 0 0 0 0 1
0 0 0 0 0 0 0 0 0 0 0 0 0 0 0 0 0 0 0 0 0 0 0 0 0 0 0 0 0 0 0 0 0 0 0 1 2 2 3 5 7 8 8
0 0 0 0 0 0 0 0 0 0 0 0 0 0 0 0 0 0 0 0 0 0 0 0 0 0 0 0 0 0 0 0 0 0 3 5 7 9 7 6 9 6 13
0 2 0 0 0 0 0 0 0 1 0 0 1 0 0 0 0 0 0 0 0 0 0 0 0 0 0 0 0 0 0 0 0 0 2 5 6 6 6 5 6 6 5
28 2 1 0 0 0 3 4 3 8 12 8 5 8 3 1 0 0 1 2 2 3 4 3 1 0 0 0 0 0 0 0 0 0 0 2 4 5 6 7 6 9 6

GFSGL_con_sbcape_108.txt.gz
CAPE
1627 1608 1895 1522 1729 1894 1957 1421 0 225 718 13 1524 2394 2266 2147 2091 2576 2507 2614 2030 2749 2702 2220 2282 2767 2688 2182 1962 1726 1452 1881 1682 1529 1174 1319 1954 3084 2648 2672 2619 1714 1572
1034 1791 1946 1604 1346 1451 1929 1563 2329 2368 2868 2261 2490 2630 2679 2523 2580 2703 2296 1986 1517 1932 2451 2630 2519 1749 2265 3254 2553 2586 2154 2603 2408 1261 2559 1051 1414 1969 3381 2784 3021 1011 1539
1214 1444 1165 1744 1773 1570 1133 1496 2395 2766 2474 2160 2462 2280 2129 2057 1864 2663 2698 2793 2109 1814 2423 2323 2286 2126 2167 2174 2712 2666 2063 2045 2295 2190 2134 1470 1283 1679 1070 1673 1902 2489 2090
961 1603 469 2054 1541 1741 1205 1658 2299 2717 2363 2508 2037 1485 2168 2348 2027 2309 2722 1986 2199 1944 1994 1814 867 1767 2186 2293 1864 2342 1890 2237 1810 1842 1567 1523 1328 1463 921 1642 1442 1866 1645
1065 1157 454 758 1283 1801 1541 2254 1695 2024 1594 1713 1910 2025 1726 494 0 10 1696 1967 1862 1973 2706 2136 2294 1197 518 868 1614 2449 2934 2493 2224 1663 1502 1276 1488 1826 1741 1894 2062 1983 1781
421 467 707 816 773 625 783 1226 1603 1916 1754 1786 1643 1843 1378 0 0 0 0 1738 1780 1934 2025 1959 1357 1479 695 907 907 861 786 1693 2156 1998 1730 1614 1869 1903 1864 2034 1947 1766 1589
610 648 843 1067 725 455 593 888 796 1067 1363 1497 1709 1538 82 0 0 0 0 168 1373 2316 2479 2575 1498 44 0 2 172 325 390 333 216 967 1478 1642 1675 1830 1157 1052 1103 1261 1228
809 732 431 326 187 102 134 432 525 278 341 478 188 108 16 0 0 0 0 26 1608 1794 886 1042 204 0 0 0 0 808 784 1219 599 266 519 188 26 48 15 113 280 858 1455
960 561 329 276 74 93 51 72 73 106 110 1 0 0 0 0 0 0 0 1634 669 0 0 0 0 0 0 0 28 6 59 1 0 0 0 0 0 0 0 0 319 524 622
498 409 407 355 159 25 1 0 16 51 2 0 0 0 0 0 0 0 0 382 321 0 0 0 0 0 0 0 0 0 0 0 0 0 0 3 61 6 0 2 384 85 52
0 0 43 97 43 1 2 97 8 0 0 0 0 0 0 0 0 0 0 0 0 0 0 0 0 0 0 0 0 0 0 0 0 0 0 12 0 0 1 0 285 0 0
0 0 0 0 0 2 0 0 0 0 0 0 0 0 0 0 0 0 0 0 0 0 0 0 0 0 0 0 0 0 0 0 0 0 0 0 0 0 0 0 38 0 0
0 0 0 14 5 10 0 1 0 0 0 0 0 0 0 0 0 0 0 0 0 0 0 0 0 0 0 0 0 0 0 0 0 0 0 0 0 0 0 0 0 0 0
0 0 0 0 0 0 0 0 0 0 0 1 7 0 0 0 0 0 0 0 0 0 0 0 0 0 0 0 0 0 0 0 0 0 0 0 0 0 0 0 0 0 0
0 0 0 0 0 0 0 0 0 0 0 0 0 0 0 0 0 0 0 0 0 0 0 0 0 0 0 0 0 0 0 0 0 0 0 0 0 0 0 0 0 0 0
0 0 0 0 0 0 0 0 0 0 0 0 0 0 0 0 0 0 0 0 0 0 0 0 0 0 0 0 0 0 0 0 0 0 0 0 0 0 0 0 0 0 0
0 0 0 0 0 0 0 0 0 0 0 0 0 0 0 0 0 0 0 0 0 0 0 0 0 0 0 0 0 0 0 0 0 0 0 0 0 0 0 0 0 0 0
0 0 0 0 0 0 0 0 0 0 0 0 0 0 0 0 0 0 0 0 0 0 0 0 0 0 0 0 0 0 0 0 0 0 0 0 0 0 0 0 0 0 0
0 0 0 0 0 0 0 0 0 0 1 0 0 0 0 0 0 0 0 0 0 0 0 0 0 0 0 0 0 0 0 0 0 0 0 0 0 0 0 0 0 0 0
0 0 0 0 0 0 0 0 0 0 0 0 0 0 0 0 0 0 0 0 0 0 0 0 0 0 0 0 0 0 0 0 0 0 0 0 0 0 0 0 0 0 0
0 0 0 0 0 0 0 0 0 0 0 0 0 0 0 0 0 0 0 0 0 0 0 0 0 0 0 0 0 0 0 0 0 0 0 0 0 0 0 0 0 0 0
0 0 0 0 0 0 0 0 0 0 0 0 0 0 0 0 0 0 0 0 0 0 0 0 0 0 0 0 0 0 0 0 0 0 0 0 0 0 0 0 0 0 0
0 0 0 0 0 0 0 0 0 0 0 0 0 0 0 0 0 0 0 0 0 0 0 0 0 0 0 0 0 0 0 0 0 0 0 0 0 0 0 1 2 1 0
0 2 0 0 0 0 0 0 0 0 0 0 0 0 0 0 0 1 0 0 0 0 0 0 0 0 0 0 0 0 0 0 0 0 0 0 0 0 0 2 2 1 3
0 8 11 15 7 0 0 0 0 0 0 0 1 2 0 0 0 0 0 0 0 0 0 0 0 0 0 0 0 0 0 0 0 0 0 0 0 0 0 2 3 2 1
31 20 8 23 36 19 8 1 1 10 16 18 4 9 27 5 0 5 2 2 3 1 4 3 1 0 0 0 0 0 0 0 0 0 0 0 0 0 2 0 0 2 2

GFSGL_con_sbcape_111.txt.gz
CAPE
961 793 960 1024 757 173 338 119 0 0 11 55 105 180 1033 678 1024 1109 1009 796 1103 987 1161 1121 976 1167 1213 838 1436 1364 1046 1273 733 490 693 681 437 741 962 1361 1595 1640 705
841 752 823 809 810 787 591 122 0 0 40 119 10 888 898 883 1040 657 844 1449 918 823 831 923 977 1146 905 980 1042 1245 1004 1116 857 557 500 787 585 775 339 505 1112 1624 994
671 947 850 766 874 555 581 572 289 233 630 878 971 826 951 1173 942 1075 1258 954 917 1069 888 983 799 705 850 508 889 1018 626 767 635 759 812 701 657 220 0 309 964 1290 1352
923 797 815 770 723 724 487 355 1000 857 763 645 1027 819 771 692 82 515 1116 1099 915 1020 1311 985 556 498 1026 657 867 865 1165 1076 1049 991 743 638 709 1045 715 1027 1174 1196 1144
266 571 401 577 657 754 942 466 1080 1139 882 747 765 752 0 0 0 0 0 602 764 687 710 639 630 523 264 330 426 537 623 908 895 1057 941 811 681 954 1178 1053 1050 1144 484
186 279 311 317 367 374 397 306 409 311 329 435 511 191 0 0 1 1 0 7 663 797 805 523 0 0 0 0 0 213 208 381 359 739 827 869 808 935 714 124 398 285 510
138 163 218 356 343 330 241 308 323 223 199 144 67 0 0 0 0 0 0 0 290 562 382 232 0 0 0 0 0 123 253 36 34 179 333 464 334 26 0 0 0 0 43
233 398 487 424 179 74 58 85 219 158 133 44 1 0 0 0 0 0 0 0 0 0 0 0 0 0 0 0 0 0 0 0 0 0 0 0 0 0 0 0 0 68 106
332 359 288 134 40 26 0 0 55 16 0 0 0 0 0 0 0 0 0 0 0 0 0 0 0 0 0 0 0 0 0 0 0 0 0 0 0 0 0 0 0 0 0
363 321 260 151 50 0 0 0 1 0 0 0 0 0 0 0 0 0 0 9 0 0 0 0 0 0 0 0 0 0 0 0 0 0 0 0 0 0 0 4 0 0 0
8 172 115 32 17 7 1 0 0 0 0 0 0 0 0 0 0 0 0 0 0 0 0 0 0 0 0 0 0 0 0 0 0 0 0 0 0 0 0 0 0 0 0
0 0 0 0 0 0 0 0 0 0 0 0 0 0 0 0 0 0 0 0 0 0 0 0 0 0 0 0 0 0 0 0 0 0 0 0 0 0 0 0 0 0 0
0 0 1 0 0 0 0 0 0 0 0 0 0 0 0 0 0 0 0 0 0 0 0 0 0 0 0 0 0 0 0 0 0 0 0 0 0 0 0 0 0 0 0
0 0 0 0 0 0 0 0 0 0 0 0 0 0 0 0 0 0 0 0 0 0 0 0 0 0 0 0 0 0 0 0 0 0 0 0 0 0 0 0 0 0 0
0 0 0 0 0 0 0 0 0 0 0 0 0 0 0 0 0 0 0 0 0 0 0 0 0 0 0 0 0 0 0 0 0 0 0 0 0 0 0 0 0 0 0
0 0 0 0 0 0 0 0 0 0 0 0 0 0 0 0 0 0 0 0 0 0 0 0 0 0 0 0 0 0 0 0 0 0 0 0 0 0 0 0 0 0 0
0 0 0 0 0 0 0 0 0 0 0 0 0 0 0 0 0 0 0 0 0 0 0 0 0 0 0 0 0 0 0 0 0 0 0 0 0 0 0 0 0 0 0
0 0 0 0 0 0 0 0 0 0 0 0 0 0 0 0 0 0 0 0 0 0 0 0 0 0 0 0 0 0 0 0 0 0 0 0 0 0 0 0 0 0 0
0 0 0 0 0 0 0 0 0 0 0 0 0 0 0 0 0 0 0 0 0 0 0 0 0 0 0 0 0 0 0 0 0 0 0 0 0 0 0 0 0 0 0
0 0 0 0 0 0 0 0 0 0 0 0 0 0 0 0 0 0 0 0 0 0 0 0 0 0 0 0 0 0 0 0 0 0 0 0 0 0 0 0 0 0 0
0 0 0 0 0 0 0 0 0 0 0 0 0 0 0 0 0 0 0 0 0 0 0 0 0 0 0 0 0 0 0 0 0 0 0 0 0 0 0 0 0 0 0
0 0 0 0 0 0 0 0 0 0 0 0 0 0 0 0 0 0 0 0 0 0 0 0 0 0 0 0 0 0 0 0 0 0 0 0 0 0 0 0 0 0 0
0 0 0 0 0 0 0 0 0 0 0 0 0 0 0 0 0 0 0 0 0 0 0 0 0 0 0 0 0 0 0 0 0 0 0 0 0 0 0 0 0 0 0
0 0 0 0 0 0 0 0 0 0 0 0 0 0 0 0 0 0 0 0 0 0 0 0 0 0 0 0 0 0 0 0 0 0 0 0 0 0 0 0 0 0 0
0 0 0 0 0 0 0 0 0 0 0 0 0 0 0 0 0 0 0 0 0 0 0 0 0 0 0 0 0 0 0 0 0 0 0 0 0 0 0 0 0 0 0
0 0 0 6 0 0 0 0 0 0 0 0 0 0 0 0 0 0 0 0 0 0 0 0 0 0 0 0 0 0 0 0 0 0 0 0 0 0 0 0 0 0 0

GFSGL_con_sbcape_114.txt.gz
CAPE
420 447 276 231 186 79 8 0 0 0 0 0 54 42 200 601 538 794 660 485 731 659 675 702 579 732 777 1008 746 823 712 607 329 236 233 391 273 264 85 696 975 1262 720
618 385 278 249 184 0 0 38 51 0 0 0 15 56 104 541 612 508 516 1304 702 501 407 505 564 785 538 558 626 769 531 554 416 331 231 572 322 183 9 545 864 1295 960
444 365 320 347 169 75 8 70 0 0 0 13 89 5 251 635 364 348 475 464 740 775 689 527 498 364 455 251 506 527 389 410 442 517 558 294 367 340 466 623 848 824 883
237 410 374 295 336 267 209 210 0 0 0 137 346 334 284 67 1 10 154 679 591 536 708 634 553 431 462 313 485 603 591 577 546 381 403 357 338 737 588 660 129 313 423
37 207 336 298 312 339 235 185 271 210 288 376 343 0 0 0 0 0 0 83 539 348 395 436 138 64 90 248 200 311 335 318 300 414 381 390 401 521 533 226 112 140 79
96 158 214 171 232 331 309 353 309 142 131 71 75 0 0 0 0 0 0 0 185 312 249 0 0 0 0 0 0 48 164 272 211 334 392 372 352 248 22 0 0 20 110
70 95 116 108 124 127 218 219 284 131 49 20 0 0 0 0 0 0 0 0 92 233 174 0 0 0 0 0 0 0 0 0 5 72 61 0 3 0 0 0 0 0 28
112 94 125 146 126 47 65 165 238 104 85 8 0 0 0 0 0 0 0 0 0 0 0 0 0 0 0 0 0 0 0 0 0 0 0 0 0 0 0 0 0 0 0
136 155 147 113 31 7 11 41 34 4 1 1 0 0 0 0 0 0 0 0 0 0 0 0 0 0 0 0 0 0 0 0 0 0 0 0 0 0 0 0 0 0 0
101 64 60 30 12 4 9 15 1 0 0 0 0 0 0 0 0 0 0 0 0 0 0 0 0 0 0 0 0 0 0 0 0 0 0 0 0 0 0 0 0 0 0
49 74 28 16 0 0 0 1 0 0 0 0 0 0 0 0 0 0 0 0 0 0 0 0 0 0 0 0 0 0 0 0 0 0 0 0 0 0 0 0 0 0 0
1 2 1 2 1 0 0 0 0 0 0 0 0 0 0 0 0 0 0 0 0 0 0 0 0 0 0 0 0 0 0 0 0 0 0 0 0 0 0 0 0 0 0
1 1 1 0 0 0 0 0 0 0 0 0 0 0 0 0 0 0 0 0 0 0 0 0 0 0 0 0 0 0 0 0 0 0 0 0 0 0 0 0 0 0 0
2 1 0 1 0 0 1 0 0 0 0 0 0 0 0 0 0 0 0 0 0 0 0 0 0 0 0 0 0 0 0 0 0 0 0 0 0 0 0 0 0 0 0
0 0 0 0 0 0 0 0 0 0 0 0 0 0 0 0 0 0 0 0 0 0 0 0 0 0 0 0 0 0 0 0 0 0 0 0 0 0 0 0 0 0 0
0 0 0 0 0 0 0 0 0 0 0 0 0 0 0 0 0 0 0 0 0 0 0 0 0 0 0 0 0 0 0 0 0 0 0 0 0 0 0 0 0 0 0
0 0 0 0 0 0 0 0 0 0 0 0 0 0 0 0 0 0 0 0 0 0 0 0 0 0 0 0 0 0 0 0 0 0 0 0 0 0 0 0 0 0 0
0 0 0 0 0 0 0 0 0 0 0 0 0 0 0 0 0 0 0 0 0 0 0 0 0 0 0 0 0 0 0 0 0 0 0 0 0 0 0 0 0 0 0
0 0 0 0 0 0 0 0 0 0 0 0 0 0 0 0 0 0 0 0 0 0 0 0 0 0 0 0 0 0 0 0 0 0 0 0 0 0 0 0 0 0 0
0 0 0 0 0 0 0 0 0 0 0 0 0 0 0 0 0 0 0 0 0 0 0 0 0 0 0 0 0 0 0 0 0 0 0 0 0 0 0 0 0 0 0
0 0 0 0 0 0 0 0 0 0 0 0 0 0 0 0 0 0 0 0 0 0 0 0 0 0 0 0 0 0 0 0 0 0 0 0 0 0 0 0 0 0 0
0 0 0 0 0 0 0 0 0 0 0 0 0 0 0 0 0 0 0 0 0 0 0 0 0 0 0 0 0 0 0 0 0 0 0 0 0 0 0 0 0 0 0
0 0 0 0 0 0 0 0 0 0 0 0 0 0 0 0 0 0 0 0 0 0 0 0 0 0 0 0 0 0 0 0 0 0 0 0 0 0 0 0 0 0 0
0 0 0 0 0 0 0 0 0 0 0 0 0 0 0 0 0 0 0 0 0 0 0 0 0 0 0 0 0 0 0 0 0 0 0 0 0 0 0 0 0 0 0
0 0 0 0 0 0 0 0 0 0 0 0 0 0 0 0 0 0 0 0 0 0 0 0 0 0 0 0 0 0 0 0 0 0 0 0 0 0 0 0 0 0 0
0 0 0 0 0 0 0 0 0 0 0 0 0 0 0 0 0 0 0 0 0 0 0 0 0 0 0 0 0 0 0 0 0 0 0 0 0 0 0 0 0 0 0

GFSGL_con_sbcape_117.txt.gz
CAPE
56 95 120 129 122 39 0 0 6 0 0 0 0 127 115 419 443 327 455 387 312 479 424 249 256 312 375 390 400 397 354 132 11 59 46 207 180 39 141 497 872 970 673
165 120 172 150 144 58 0 0 0 0 0 0 0 23 0 266 217 303 437 686 567 391 310 347 340 373 244 283 357 422 323 223 137 168 75 247 201 252 165 382 373 478 529
280 295 263 174 179 97 0 0 0 0 0 0 15 4 1 163 385 312 276 302 408 431 431 422 357 264 250 121 203 319 220 391 332 251 225 125 124 357 435 276 0 107 361
341 399 310 229 174 162 44 0 0 0 0 0 0 50 101 190 67 81 201 416 375 357 397 459 497 317 195 206 182 242 334 271 244 132 135 219 159 353 232 28 0 0 112
332 402 366 310 215 203 132 117 107 22 0 0 87 35 0 0 0 0 2 130 192 238 292 221 94 54 20 164 237 229 160 112 76 140 163 152 201 99 28 4 0 0 7
250 376 394 280 234 214 225 208 224 97 95 26 69 0 0 0 0 1 0 0 25 238 250 0 0 0 0 0 0 42 84 149 131 203 204 145 29 0 0 0 0 0 0
71 73 161 160 154 198 203 259 172 99 24 0 0 0 0 0 0 0 0 0 3 76 80 0 0 0 0 0 0 0 0 0 0 58 0 0 0 0 0 0 0 0 0
21 29 101 94 95 117 136 162 119 90 70 0 0 0 0 0 0 0 0 0 0 0 0 0 0 0 0 0 0 0 0 0 0 0 0 0 0 0 0 0 0 0 0
47 86 60 70 46 28 35 39 29 74 67 1 1 0 0 0 0 0 0 0 0 0 0 0 0 0 0 0 0 0 0 0 0 0 0 0 0 0 0 0 0 0 0
77 82 79 47 11 4 2 6 1 1 1 0 1 0 0 0 0 0 0 0 0 0 0 0 0 0 0 0 0 0 0 0 0 0 0 0 0 0 0 0 0 0 0
142 58 22 2 5 3 1 2 2 0 0 0 0 0 0 0 0 0 0 0 0 0 0 0 0 0 0 0 0 0 0 0 0 0 0 0 0 0 0 0 0 0 0
1 2 24 17 2 1 1 0 0 0 0 0 0 0 0 0 0 0 0 0 0 0 0 0 0 0 0 0 0 0 0 0 0 0 0 0 0 0 0 0 0 0 0
0 2 1 1 1 3 1 1 0 0 0 0 0 0 0 0 0 0 0 0 0 0 0 0 0 0 0 0 0 0 0 0 0 0 0 0 0 0 0 0 0 0 0
1 2 1 3 5 5 5 2 0 0 0 0 0 0 0 0 0 0 0 0 0 0 0 0 0 0 0 0 0 0 0 0 0 0 0 0 0 0 0 0 0 0 0
0 0 1 1 0 0 1 2 2 0 0 0 0 0 0 0 0 0 0 0 0 0 0 0 0 0 0 0 0 0 0 0 0 0 0 0 0 0 0 0 0 0 0
0 0 0 0 0 0 0 1 0 0 0 0 0 0 0 0 0 0 0 0 0 0 0 0 0 0 0 0 0 0 0 0 0 0 0 0 0 0 0 0 0 0 0
0 0 0 0 0 0 0 0 0 0 0 0 0 0 0 0 0 0 0 0 0 0 0 0 0 0 0 0 0 0 0 0 0 0 0 0 0 0 0 0 0 0 0
0 0 0 0 0 0 0 0 0 0 0 0 0 0 0 0 0 0 0 0 0 0 0 0 0 0 0 0 0 0 0 0 0 0 0 0 0 0 0 0 0 0 0
0 0 0 0 0 0 0 0 0 0 0 0 0 0 0 0 0 0 0 0 0 0 0 0 0 0 0 0 0 0 0 0 0 0 0 0 0 0 0 0 0 0 0
0 0 0 0 0 0 0 0 0 0 0 0 0 0 0 0 0 0 0 0 0 0 0 0 0 0 0 0 0 0 0 0 0 0 0 0 0 0 0 0 0 0 0
0 0 0 0 0 0 0 0 0 0 0 0 0 0 0 0 0 0 0 0 0 0 0 0 0 0 0 0 0 0 0 0 0 0 0 0 0 0 0 0 0 0 0
0 0 0 0 0 0 0 0 0 0 0 0 0 0 0 0 0 0 0 0 0 0 0 0 0 0 0 0 0 0 0 0 0 0 0 0 0 0 0 0 0 0 0
0 0 0 0 0 0 0 0 0 0 0 0 0 0 0 0 0 0 0 0 0 0 0 0 0 0 0 0 0 0 0 0 0 0 0 0 0 0 0 0 0 0 0
0 0 0 0 0 0 0 0 0 0 0 0 0 0 0 0 0 0 0 0 0 0 0 0 0 0 0 0 0 0 0 0 0 0 0 0 0 0 0 0 0 0 0
0 0 0 0 0 0 0 0 0 0 0 0 0 0 0 0 0 0 0 0 0 0 0 0 0 0 0 0 0 0 0 0 0 0 0 0 0 0 0 0 0 0 0
0 0 0 0 0 0 0 0 0 0 0 0 0 0 0 0 0 0 0 0 0 0 0 0 0 0 0 0 0 0 0 0 0 0 0 0 0 0 0 0 0 0 0